<?xml version="1.0" encoding="UTF-8"?>
<gpx version="1.0" creator="GPSBabel - https://www.gpsbabel.org" xmlns="http://www.topografix.com/GPX/1/0">
  <time>2022-07-10T22:59:45.380Z</time>
  <bounds minlat="37.017759730" minlon="-106.472712780" maxlat="37.029155520" maxlon="-106.450120260"/>
  <trk>
    <name>Cumbres Pass CDT North.Pat.2022-07-07</name>
    <trkseg>
      <trkpt lat="37.017807520" lon="-106.450162440">
        <ele>3007.600</ele>
        <time>2022-07-07T16:47:44Z</time>
        <name>WPT</name>
      </trkpt>
      <trkpt lat="37.017786970" lon="-106.450205460">
        <ele>3014.700</ele>
        <time>2022-07-07T16:47:46Z</time>
        <name>WPT.1</name>
      </trkpt>
      <trkpt lat="37.017821330" lon="-106.450228270">
        <ele>3022.900</ele>
        <time>2022-07-07T16:48:08Z</time>
        <name>WPT.2</name>
      </trkpt>
      <trkpt lat="37.017860710" lon="-106.450249250">
        <ele>3023.300</ele>
        <time>2022-07-07T16:48:14Z</time>
        <name>WPT.3</name>
      </trkpt>
      <trkpt lat="37.017900270" lon="-106.450238620">
        <ele>3023.400</ele>
        <time>2022-07-07T16:48:19Z</time>
        <name>WPT.4</name>
      </trkpt>
      <trkpt lat="37.017937670" lon="-106.450254870">
        <ele>3023.000</ele>
        <time>2022-07-07T16:48:25Z</time>
        <name>WPT.5</name>
      </trkpt>
      <trkpt lat="37.017979440" lon="-106.450264750">
        <ele>3023.300</ele>
        <time>2022-07-07T16:48:30Z</time>
        <name>WPT.6</name>
      </trkpt>
      <trkpt lat="37.018022240" lon="-106.450240460">
        <ele>3022.300</ele>
        <time>2022-07-07T16:48:34Z</time>
        <name>WPT.7</name>
      </trkpt>
      <trkpt lat="37.018062520" lon="-106.450246610">
        <ele>3022.700</ele>
        <time>2022-07-07T16:48:39Z</time>
        <name>WPT.8</name>
      </trkpt>
      <trkpt lat="37.018050160" lon="-106.450288920">
        <ele>3022.900</ele>
        <time>2022-07-07T16:48:45Z</time>
        <name>WPT.9</name>
      </trkpt>
      <trkpt lat="37.018038800" lon="-106.450337790">
        <ele>3023.200</ele>
        <time>2022-07-07T16:48:52Z</time>
        <name>WPT.10</name>
      </trkpt>
      <trkpt lat="37.018050220" lon="-106.450393450">
        <ele>3024.000</ele>
        <time>2022-07-07T16:49:22Z</time>
        <name>WPT.11</name>
      </trkpt>
      <trkpt lat="37.018054680" lon="-106.450438650">
        <ele>3023.500</ele>
        <time>2022-07-07T16:49:25Z</time>
        <name>WPT.12</name>
      </trkpt>
      <trkpt lat="37.018063050" lon="-106.450484940">
        <ele>3025.300</ele>
        <time>2022-07-07T16:49:29Z</time>
        <name>WPT.13</name>
      </trkpt>
      <trkpt lat="37.018069150" lon="-106.450533710">
        <ele>3024.200</ele>
        <time>2022-07-07T16:49:33Z</time>
        <name>WPT.14</name>
      </trkpt>
      <trkpt lat="37.018088330" lon="-106.450580340">
        <ele>3022.500</ele>
        <time>2022-07-07T16:49:37Z</time>
        <name>WPT.15</name>
      </trkpt>
      <trkpt lat="37.018113900" lon="-106.450622190">
        <ele>3023.800</ele>
        <time>2022-07-07T16:49:42Z</time>
        <name>WPT.16</name>
      </trkpt>
      <trkpt lat="37.018129600" lon="-106.450672120">
        <ele>3024.000</ele>
        <time>2022-07-07T16:49:46Z</time>
        <name>WPT.17</name>
      </trkpt>
      <trkpt lat="37.018159110" lon="-106.450699440">
        <ele>3022.000</ele>
        <time>2022-07-07T16:49:50Z</time>
        <name>WPT.18</name>
      </trkpt>
      <trkpt lat="37.018185370" lon="-106.450747680">
        <ele>3022.200</ele>
        <time>2022-07-07T16:49:54Z</time>
        <name>WPT.19</name>
      </trkpt>
      <trkpt lat="37.018214600" lon="-106.450792300">
        <ele>3023.800</ele>
        <time>2022-07-07T16:49:58Z</time>
        <name>WPT.20</name>
      </trkpt>
      <trkpt lat="37.018250520" lon="-106.450825000">
        <ele>3024.700</ele>
        <time>2022-07-07T16:50:02Z</time>
        <name>WPT.21</name>
      </trkpt>
      <trkpt lat="37.018285270" lon="-106.450859770">
        <ele>3024.400</ele>
        <time>2022-07-07T16:50:06Z</time>
        <name>WPT.22</name>
      </trkpt>
      <trkpt lat="37.018307900" lon="-106.450899600">
        <ele>3025.300</ele>
        <time>2022-07-07T16:50:10Z</time>
        <name>WPT.23</name>
      </trkpt>
      <trkpt lat="37.018329790" lon="-106.450941200">
        <ele>3026.900</ele>
        <time>2022-07-07T16:50:14Z</time>
        <name>WPT.24</name>
      </trkpt>
      <trkpt lat="37.018365850" lon="-106.450960460">
        <ele>3026.900</ele>
        <time>2022-07-07T16:50:18Z</time>
        <name>WPT.25</name>
      </trkpt>
      <trkpt lat="37.018395250" lon="-106.450999210">
        <ele>3029.300</ele>
        <time>2022-07-07T16:50:22Z</time>
        <name>WPT.26</name>
      </trkpt>
      <trkpt lat="37.018429200" lon="-106.451026860">
        <ele>3027.800</ele>
        <time>2022-07-07T16:50:26Z</time>
        <name>WPT.27</name>
      </trkpt>
      <trkpt lat="37.018463630" lon="-106.451050950">
        <ele>3027.500</ele>
        <time>2022-07-07T16:50:30Z</time>
        <name>WPT.28</name>
      </trkpt>
      <trkpt lat="37.018501690" lon="-106.451067400">
        <ele>3026.700</ele>
        <time>2022-07-07T16:50:34Z</time>
        <name>WPT.29</name>
      </trkpt>
      <trkpt lat="37.018543230" lon="-106.451090440">
        <ele>3027.800</ele>
        <time>2022-07-07T16:50:39Z</time>
        <name>WPT.30</name>
      </trkpt>
      <trkpt lat="37.018580270" lon="-106.451116850">
        <ele>3029.300</ele>
        <time>2022-07-07T16:50:43Z</time>
        <name>WPT.31</name>
      </trkpt>
      <trkpt lat="37.018613550" lon="-106.451143530">
        <ele>3028.900</ele>
        <time>2022-07-07T16:50:48Z</time>
        <name>WPT.32</name>
      </trkpt>
      <trkpt lat="37.018641870" lon="-106.451188210">
        <ele>3030.100</ele>
        <time>2022-07-07T16:50:52Z</time>
        <name>WPT.33</name>
      </trkpt>
      <trkpt lat="37.018666230" lon="-106.451222210">
        <ele>3030.700</ele>
        <time>2022-07-07T16:50:55Z</time>
        <name>WPT.34</name>
      </trkpt>
      <trkpt lat="37.018659390" lon="-106.451274380">
        <ele>3030.400</ele>
        <time>2022-07-07T16:51:22Z</time>
        <name>WPT.35</name>
      </trkpt>
      <trkpt lat="37.018633750" lon="-106.451311870">
        <ele>3027.600</ele>
        <time>2022-07-07T16:55:20Z</time>
        <name>WPT.36</name>
      </trkpt>
      <trkpt lat="37.018597220" lon="-106.451340940">
        <ele>3029.900</ele>
        <time>2022-07-07T16:55:25Z</time>
        <name>WPT.37</name>
      </trkpt>
      <trkpt lat="37.018584770" lon="-106.451383420">
        <ele>3031.000</ele>
        <time>2022-07-07T16:55:29Z</time>
        <name>WPT.38</name>
      </trkpt>
      <trkpt lat="37.018578410" lon="-106.451428900">
        <ele>3032.500</ele>
        <time>2022-07-07T16:55:33Z</time>
        <name>WPT.39</name>
      </trkpt>
      <trkpt lat="37.018539530" lon="-106.451455860">
        <ele>3031.400</ele>
        <time>2022-07-07T16:55:38Z</time>
        <name>WPT.40</name>
      </trkpt>
      <trkpt lat="37.018500920" lon="-106.451471960">
        <ele>3031.500</ele>
        <time>2022-07-07T16:55:43Z</time>
        <name>WPT.41</name>
      </trkpt>
      <trkpt lat="37.018479440" lon="-106.451508510">
        <ele>3031.500</ele>
        <time>2022-07-07T16:55:54Z</time>
        <name>WPT.42</name>
      </trkpt>
      <trkpt lat="37.018493720" lon="-106.451554530">
        <ele>3031.800</ele>
        <time>2022-07-07T16:56:25Z</time>
        <name>WPT.43</name>
      </trkpt>
      <trkpt lat="37.018475290" lon="-106.451599720">
        <ele>3032.300</ele>
        <time>2022-07-07T16:56:29Z</time>
        <name>WPT.44</name>
      </trkpt>
      <trkpt lat="37.018450180" lon="-106.451639540">
        <ele>3032.700</ele>
        <time>2022-07-07T16:56:33Z</time>
        <name>WPT.45</name>
      </trkpt>
      <trkpt lat="37.018443380" lon="-106.451691380">
        <ele>3033.900</ele>
        <time>2022-07-07T16:56:37Z</time>
        <name>WPT.46</name>
      </trkpt>
      <trkpt lat="37.018463860" lon="-106.451741470">
        <ele>3033.200</ele>
        <time>2022-07-07T16:56:41Z</time>
        <name>WPT.47</name>
      </trkpt>
      <trkpt lat="37.018476000" lon="-106.451794950">
        <ele>3032.700</ele>
        <time>2022-07-07T16:56:45Z</time>
        <name>WPT.48</name>
      </trkpt>
      <trkpt lat="37.018490160" lon="-106.451839120">
        <ele>3032.700</ele>
        <time>2022-07-07T16:56:49Z</time>
        <name>WPT.49</name>
      </trkpt>
      <trkpt lat="37.018512380" lon="-106.451885520">
        <ele>3031.600</ele>
        <time>2022-07-07T16:56:53Z</time>
        <name>WPT.50</name>
      </trkpt>
      <trkpt lat="37.018532050" lon="-106.451923440">
        <ele>3031.700</ele>
        <time>2022-07-07T16:56:56Z</time>
        <name>WPT.51</name>
      </trkpt>
      <trkpt lat="37.018558450" lon="-106.451954340">
        <ele>3032.700</ele>
        <time>2022-07-07T16:56:59Z</time>
        <name>WPT.52</name>
      </trkpt>
      <trkpt lat="37.018590990" lon="-106.451991460">
        <ele>3034.300</ele>
        <time>2022-07-07T16:57:03Z</time>
        <name>WPT.53</name>
      </trkpt>
      <trkpt lat="37.018622410" lon="-106.452025240">
        <ele>3034.600</ele>
        <time>2022-07-07T16:57:07Z</time>
        <name>WPT.54</name>
      </trkpt>
      <trkpt lat="37.018653300" lon="-106.452067210">
        <ele>3035.100</ele>
        <time>2022-07-07T16:57:11Z</time>
        <name>WPT.55</name>
      </trkpt>
      <trkpt lat="37.018675220" lon="-106.452110990">
        <ele>3035.500</ele>
        <time>2022-07-07T16:57:15Z</time>
        <name>WPT.56</name>
      </trkpt>
      <trkpt lat="37.018694910" lon="-106.452155030">
        <ele>3037.100</ele>
        <time>2022-07-07T16:57:19Z</time>
        <name>WPT.57</name>
      </trkpt>
      <trkpt lat="37.018720850" lon="-106.452187560">
        <ele>3038.600</ele>
        <time>2022-07-07T16:57:23Z</time>
        <name>WPT.58</name>
      </trkpt>
      <trkpt lat="37.018740750" lon="-106.452235320">
        <ele>3040.400</ele>
        <time>2022-07-07T16:57:27Z</time>
        <name>WPT.59</name>
      </trkpt>
      <trkpt lat="37.018765650" lon="-106.452272320">
        <ele>3043.200</ele>
        <time>2022-07-07T16:57:32Z</time>
        <name>WPT.60</name>
      </trkpt>
      <trkpt lat="37.018805020" lon="-106.452291370">
        <ele>3045.400</ele>
        <time>2022-07-07T16:57:37Z</time>
        <name>WPT.61</name>
      </trkpt>
      <trkpt lat="37.018841830" lon="-106.452321300">
        <ele>3044.500</ele>
        <time>2022-07-07T16:57:41Z</time>
        <name>WPT.62</name>
      </trkpt>
      <trkpt lat="37.018878580" lon="-106.452346980">
        <ele>3043.900</ele>
        <time>2022-07-07T16:57:45Z</time>
        <name>WPT.63</name>
      </trkpt>
      <trkpt lat="37.018907440" lon="-106.452377640">
        <ele>3044.900</ele>
        <time>2022-07-07T16:57:49Z</time>
        <name>WPT.64</name>
      </trkpt>
      <trkpt lat="37.018933360" lon="-106.452411510">
        <ele>3044.500</ele>
        <time>2022-07-07T16:57:53Z</time>
        <name>WPT.65</name>
      </trkpt>
      <trkpt lat="37.018964890" lon="-106.452449260">
        <ele>3042.000</ele>
        <time>2022-07-07T16:57:57Z</time>
        <name>WPT.66</name>
      </trkpt>
      <trkpt lat="37.018993820" lon="-106.452491960">
        <ele>3042.100</ele>
        <time>2022-07-07T16:58:01Z</time>
        <name>WPT.67</name>
      </trkpt>
      <trkpt lat="37.019024230" lon="-106.452520180">
        <ele>3042.900</ele>
        <time>2022-07-07T16:58:06Z</time>
        <name>WPT.68</name>
      </trkpt>
      <trkpt lat="37.019053650" lon="-106.452553930">
        <ele>3045.100</ele>
        <time>2022-07-07T16:58:11Z</time>
        <name>WPT.69</name>
      </trkpt>
      <trkpt lat="37.019084090" lon="-106.452583380">
        <ele>3045.800</ele>
        <time>2022-07-07T16:58:17Z</time>
        <name>WPT.70</name>
      </trkpt>
      <trkpt lat="37.019102210" lon="-106.452624370">
        <ele>3045.500</ele>
        <time>2022-07-07T16:58:20Z</time>
        <name>WPT.71</name>
      </trkpt>
      <trkpt lat="37.019118020" lon="-106.452680930">
        <ele>3044.800</ele>
        <time>2022-07-07T16:58:24Z</time>
        <name>WPT.72</name>
      </trkpt>
      <trkpt lat="37.019144520" lon="-106.452717440">
        <ele>3042.300</ele>
        <time>2022-07-07T16:58:31Z</time>
        <name>WPT.73</name>
      </trkpt>
      <trkpt lat="37.019153310" lon="-106.452763270">
        <ele>3042.300</ele>
        <time>2022-07-07T16:58:37Z</time>
        <name>WPT.74</name>
      </trkpt>
      <trkpt lat="37.019172020" lon="-106.452806240">
        <ele>3041.500</ele>
        <time>2022-07-07T16:58:43Z</time>
        <name>WPT.75</name>
      </trkpt>
      <trkpt lat="37.019192370" lon="-106.452851120">
        <ele>3043.400</ele>
        <time>2022-07-07T16:58:50Z</time>
        <name>WPT.76</name>
      </trkpt>
      <trkpt lat="37.019212010" lon="-106.452891700">
        <ele>3045.700</ele>
        <time>2022-07-07T16:58:55Z</time>
        <name>WPT.77</name>
      </trkpt>
      <trkpt lat="37.019239280" lon="-106.452935150">
        <ele>3044.600</ele>
        <time>2022-07-07T16:58:59Z</time>
        <name>WPT.78</name>
      </trkpt>
      <trkpt lat="37.019273710" lon="-106.452949010">
        <ele>3045.500</ele>
        <time>2022-07-07T16:59:02Z</time>
        <name>WPT.79</name>
      </trkpt>
      <trkpt lat="37.019310640" lon="-106.452964170">
        <ele>3044.700</ele>
        <time>2022-07-07T16:59:06Z</time>
        <name>WPT.80</name>
      </trkpt>
      <trkpt lat="37.019340880" lon="-106.452991350">
        <ele>3044.000</ele>
        <time>2022-07-07T16:59:09Z</time>
        <name>WPT.81</name>
      </trkpt>
      <trkpt lat="37.019384450" lon="-106.453008990">
        <ele>3042.600</ele>
        <time>2022-07-07T16:59:13Z</time>
        <name>WPT.82</name>
      </trkpt>
      <trkpt lat="37.019422030" lon="-106.453012530">
        <ele>3043.800</ele>
        <time>2022-07-07T16:59:16Z</time>
        <name>WPT.83</name>
      </trkpt>
      <trkpt lat="37.019462100" lon="-106.453013180">
        <ele>3042.400</ele>
        <time>2022-07-07T16:59:20Z</time>
        <name>WPT.84</name>
      </trkpt>
      <trkpt lat="37.019502940" lon="-106.453034560">
        <ele>3040.200</ele>
        <time>2022-07-07T16:59:24Z</time>
        <name>WPT.85</name>
      </trkpt>
      <trkpt lat="37.019542650" lon="-106.453025180">
        <ele>3039.400</ele>
        <time>2022-07-07T16:59:28Z</time>
        <name>WPT.86</name>
      </trkpt>
      <trkpt lat="37.019576480" lon="-106.452996620">
        <ele>3039.600</ele>
        <time>2022-07-07T16:59:32Z</time>
        <name>WPT.87</name>
      </trkpt>
      <trkpt lat="37.019592070" lon="-106.452952690">
        <ele>3039.000</ele>
        <time>2022-07-07T16:59:40Z</time>
        <name>WPT.88</name>
      </trkpt>
      <trkpt lat="37.019599820" lon="-106.452899530">
        <ele>3037.100</ele>
        <time>2022-07-07T16:59:45Z</time>
        <name>WPT.89</name>
      </trkpt>
      <trkpt lat="37.019617050" lon="-106.452850870">
        <ele>3039.000</ele>
        <time>2022-07-07T16:59:52Z</time>
        <name>WPT.90</name>
      </trkpt>
      <trkpt lat="37.019629420" lon="-106.452806600">
        <ele>3038.700</ele>
        <time>2022-07-07T16:59:56Z</time>
        <name>WPT.91</name>
      </trkpt>
      <trkpt lat="37.019628600" lon="-106.452757070">
        <ele>3038.700</ele>
        <time>2022-07-07T17:00:01Z</time>
        <name>WPT.92</name>
      </trkpt>
      <trkpt lat="37.019624630" lon="-106.452705890">
        <ele>3041.300</ele>
        <time>2022-07-07T17:00:07Z</time>
        <name>WPT.93</name>
      </trkpt>
      <trkpt lat="37.019648820" lon="-106.452662990">
        <ele>3038.500</ele>
        <time>2022-07-07T17:00:11Z</time>
        <name>WPT.94</name>
      </trkpt>
      <trkpt lat="37.019680390" lon="-106.452639190">
        <ele>3039.200</ele>
        <time>2022-07-07T17:00:14Z</time>
        <name>WPT.95</name>
      </trkpt>
      <trkpt lat="37.019720090" lon="-106.452640140">
        <ele>3040.200</ele>
        <time>2022-07-07T17:00:21Z</time>
        <name>WPT.96</name>
      </trkpt>
      <trkpt lat="37.019751460" lon="-106.452664220">
        <ele>3042.200</ele>
        <time>2022-07-07T17:00:29Z</time>
        <name>WPT.97</name>
      </trkpt>
      <trkpt lat="37.019778400" lon="-106.452708160">
        <ele>3041.600</ele>
        <time>2022-07-07T17:00:34Z</time>
        <name>WPT.98</name>
      </trkpt>
      <trkpt lat="37.019803910" lon="-106.452752680">
        <ele>3040.500</ele>
        <time>2022-07-07T17:00:38Z</time>
        <name>WPT.99</name>
      </trkpt>
      <trkpt lat="37.019842100" lon="-106.452767250">
        <ele>3036.000</ele>
        <time>2022-07-07T17:00:42Z</time>
        <name>WPT.100</name>
      </trkpt>
      <trkpt lat="37.019865400" lon="-106.452815800">
        <ele>3035.900</ele>
        <time>2022-07-07T17:00:46Z</time>
        <name>WPT.101</name>
      </trkpt>
      <trkpt lat="37.019881620" lon="-106.452858200">
        <ele>3036.500</ele>
        <time>2022-07-07T17:00:49Z</time>
        <name>WPT.102</name>
      </trkpt>
      <trkpt lat="37.019914980" lon="-106.452895060">
        <ele>3036.900</ele>
        <time>2022-07-07T17:00:53Z</time>
        <name>WPT.103</name>
      </trkpt>
      <trkpt lat="37.019929510" lon="-106.452940090">
        <ele>3036.000</ele>
        <time>2022-07-07T17:00:56Z</time>
        <name>WPT.104</name>
      </trkpt>
      <trkpt lat="37.019947220" lon="-106.452981600">
        <ele>3037.900</ele>
        <time>2022-07-07T17:00:59Z</time>
        <name>WPT.105</name>
      </trkpt>
      <trkpt lat="37.019977480" lon="-106.453006600">
        <ele>3039.800</ele>
        <time>2022-07-07T17:01:02Z</time>
        <name>WPT.106</name>
      </trkpt>
      <trkpt lat="37.020010240" lon="-106.453044920">
        <ele>3039.900</ele>
        <time>2022-07-07T17:01:06Z</time>
        <name>WPT.107</name>
      </trkpt>
      <trkpt lat="37.020042320" lon="-106.453078570">
        <ele>3040.900</ele>
        <time>2022-07-07T17:01:10Z</time>
        <name>WPT.108</name>
      </trkpt>
      <trkpt lat="37.020080300" lon="-106.453105590">
        <ele>3040.900</ele>
        <time>2022-07-07T17:01:14Z</time>
        <name>WPT.109</name>
      </trkpt>
      <trkpt lat="37.020115360" lon="-106.453131270">
        <ele>3040.000</ele>
        <time>2022-07-07T17:01:18Z</time>
        <name>WPT.110</name>
      </trkpt>
      <trkpt lat="37.020158260" lon="-106.453141910">
        <ele>3037.900</ele>
        <time>2022-07-07T17:01:22Z</time>
        <name>WPT.111</name>
      </trkpt>
      <trkpt lat="37.020196720" lon="-106.453139990">
        <ele>3037.300</ele>
        <time>2022-07-07T17:01:25Z</time>
        <name>WPT.112</name>
      </trkpt>
      <trkpt lat="37.020235510" lon="-106.453130720">
        <ele>3035.900</ele>
        <time>2022-07-07T17:01:29Z</time>
        <name>WPT.113</name>
      </trkpt>
      <trkpt lat="37.020272380" lon="-106.453135660">
        <ele>3036.500</ele>
        <time>2022-07-07T17:01:58Z</time>
        <name>WPT.114</name>
      </trkpt>
      <trkpt lat="37.020316790" lon="-106.453144710">
        <ele>3037.200</ele>
        <time>2022-07-07T17:02:02Z</time>
        <name>WPT.115</name>
      </trkpt>
      <trkpt lat="37.020360380" lon="-106.453147060">
        <ele>3036.500</ele>
        <time>2022-07-07T17:02:06Z</time>
        <name>WPT.116</name>
      </trkpt>
      <trkpt lat="37.020398540" lon="-106.453145990">
        <ele>3037.100</ele>
        <time>2022-07-07T17:02:10Z</time>
        <name>WPT.117</name>
      </trkpt>
      <trkpt lat="37.020441420" lon="-106.453162900">
        <ele>3036.900</ele>
        <time>2022-07-07T17:02:15Z</time>
        <name>WPT.118</name>
      </trkpt>
      <trkpt lat="37.020477990" lon="-106.453170010">
        <ele>3037.000</ele>
        <time>2022-07-07T17:02:19Z</time>
        <name>WPT.119</name>
      </trkpt>
      <trkpt lat="37.020522310" lon="-106.453182730">
        <ele>3037.800</ele>
        <time>2022-07-07T17:02:23Z</time>
        <name>WPT.120</name>
      </trkpt>
      <trkpt lat="37.020565180" lon="-106.453181460">
        <ele>3036.900</ele>
        <time>2022-07-07T17:02:27Z</time>
        <name>WPT.121</name>
      </trkpt>
      <trkpt lat="37.020605310" lon="-106.453197440">
        <ele>3037.800</ele>
        <time>2022-07-07T17:02:31Z</time>
        <name>WPT.122</name>
      </trkpt>
      <trkpt lat="37.020632440" lon="-106.453230900">
        <ele>3037.500</ele>
        <time>2022-07-07T17:02:36Z</time>
        <name>WPT.123</name>
      </trkpt>
      <trkpt lat="37.020668820" lon="-106.453254520">
        <ele>3037.700</ele>
        <time>2022-07-07T17:02:59Z</time>
        <name>WPT.124</name>
      </trkpt>
      <trkpt lat="37.020695890" lon="-106.453290040">
        <ele>3037.000</ele>
        <time>2022-07-07T17:03:03Z</time>
        <name>WPT.125</name>
      </trkpt>
      <trkpt lat="37.020711510" lon="-106.453336370">
        <ele>3038.200</ele>
        <time>2022-07-07T17:03:07Z</time>
        <name>WPT.126</name>
      </trkpt>
      <trkpt lat="37.020724440" lon="-106.453390340">
        <ele>3039.500</ele>
        <time>2022-07-07T17:03:11Z</time>
        <name>WPT.127</name>
      </trkpt>
      <trkpt lat="37.020730430" lon="-106.453439410">
        <ele>3039.000</ele>
        <time>2022-07-07T17:03:14Z</time>
        <name>WPT.128</name>
      </trkpt>
      <trkpt lat="37.020747390" lon="-106.453487760">
        <ele>3038.900</ele>
        <time>2022-07-07T17:03:18Z</time>
        <name>WPT.129</name>
      </trkpt>
      <trkpt lat="37.020767550" lon="-106.453544670">
        <ele>3040.500</ele>
        <time>2022-07-07T17:03:22Z</time>
        <name>WPT.130</name>
      </trkpt>
      <trkpt lat="37.020786290" lon="-106.453588290">
        <ele>3040.000</ele>
        <time>2022-07-07T17:03:26Z</time>
        <name>WPT.131</name>
      </trkpt>
      <trkpt lat="37.020788810" lon="-106.453637640">
        <ele>3041.800</ele>
        <time>2022-07-07T17:03:30Z</time>
        <name>WPT.132</name>
      </trkpt>
      <trkpt lat="37.020784030" lon="-106.453692230">
        <ele>3043.000</ele>
        <time>2022-07-07T17:03:34Z</time>
        <name>WPT.133</name>
      </trkpt>
      <trkpt lat="37.020795560" lon="-106.453748790">
        <ele>3043.900</ele>
        <time>2022-07-07T17:03:38Z</time>
        <name>WPT.134</name>
      </trkpt>
      <trkpt lat="37.020815410" lon="-106.453798730">
        <ele>3044.900</ele>
        <time>2022-07-07T17:03:42Z</time>
        <name>WPT.135</name>
      </trkpt>
      <trkpt lat="37.020836460" lon="-106.453848190">
        <ele>3042.900</ele>
        <time>2022-07-07T17:03:47Z</time>
        <name>WPT.136</name>
      </trkpt>
      <trkpt lat="37.020836140" lon="-106.453899360">
        <ele>3044.100</ele>
        <time>2022-07-07T17:03:51Z</time>
        <name>WPT.137</name>
      </trkpt>
      <trkpt lat="37.020833390" lon="-106.453952630">
        <ele>3045.100</ele>
        <time>2022-07-07T17:03:55Z</time>
        <name>WPT.138</name>
      </trkpt>
      <trkpt lat="37.020832380" lon="-106.453998130">
        <ele>3044.900</ele>
        <time>2022-07-07T17:03:58Z</time>
        <name>WPT.139</name>
      </trkpt>
      <trkpt lat="37.020844610" lon="-106.454045170">
        <ele>3044.500</ele>
        <time>2022-07-07T17:04:02Z</time>
        <name>WPT.140</name>
      </trkpt>
      <trkpt lat="37.020845040" lon="-106.454098380">
        <ele>3046.000</ele>
        <time>2022-07-07T17:04:06Z</time>
        <name>WPT.141</name>
      </trkpt>
      <trkpt lat="37.020852340" lon="-106.454154440">
        <ele>3046.300</ele>
        <time>2022-07-07T17:04:10Z</time>
        <name>WPT.142</name>
      </trkpt>
      <trkpt lat="37.020862300" lon="-106.454209970">
        <ele>3045.900</ele>
        <time>2022-07-07T17:04:14Z</time>
        <name>WPT.143</name>
      </trkpt>
      <trkpt lat="37.020872280" lon="-106.454266990">
        <ele>3046.500</ele>
        <time>2022-07-07T17:04:18Z</time>
        <name>WPT.144</name>
      </trkpt>
      <trkpt lat="37.020881420" lon="-106.454319150">
        <ele>3045.600</ele>
        <time>2022-07-07T17:04:36Z</time>
        <name>WPT.145</name>
      </trkpt>
      <trkpt lat="37.020889400" lon="-106.454372530">
        <ele>3045.500</ele>
        <time>2022-07-07T17:04:40Z</time>
        <name>WPT.146</name>
      </trkpt>
      <trkpt lat="37.020889720" lon="-106.454431010">
        <ele>3044.900</ele>
        <time>2022-07-07T17:04:44Z</time>
        <name>WPT.147</name>
      </trkpt>
      <trkpt lat="37.020890790" lon="-106.454476530">
        <ele>3045.200</ele>
        <time>2022-07-07T17:04:47Z</time>
        <name>WPT.148</name>
      </trkpt>
      <trkpt lat="37.020883170" lon="-106.454536470">
        <ele>3047.200</ele>
        <time>2022-07-07T17:04:51Z</time>
        <name>WPT.149</name>
      </trkpt>
      <trkpt lat="37.020871060" lon="-106.454580900">
        <ele>3046.800</ele>
        <time>2022-07-07T17:04:54Z</time>
        <name>WPT.150</name>
      </trkpt>
      <trkpt lat="37.020850720" lon="-106.454632990">
        <ele>3048.200</ele>
        <time>2022-07-07T17:04:58Z</time>
        <name>WPT.151</name>
      </trkpt>
      <trkpt lat="37.020838010" lon="-106.454689000">
        <ele>3047.900</ele>
        <time>2022-07-07T17:05:02Z</time>
        <name>WPT.152</name>
      </trkpt>
      <trkpt lat="37.020832650" lon="-106.454733810">
        <ele>3047.900</ele>
        <time>2022-07-07T17:05:05Z</time>
        <name>WPT.153</name>
      </trkpt>
      <trkpt lat="37.020827570" lon="-106.454779240">
        <ele>3047.400</ele>
        <time>2022-07-07T17:05:08Z</time>
        <name>WPT.154</name>
      </trkpt>
      <trkpt lat="37.020811890" lon="-106.454830070">
        <ele>3048.300</ele>
        <time>2022-07-07T17:05:12Z</time>
        <name>WPT.155</name>
      </trkpt>
      <trkpt lat="37.020796430" lon="-106.454881390">
        <ele>3049.500</ele>
        <time>2022-07-07T17:05:16Z</time>
        <name>WPT.156</name>
      </trkpt>
      <trkpt lat="37.020784990" lon="-106.454929130">
        <ele>3050.200</ele>
        <time>2022-07-07T17:05:25Z</time>
        <name>WPT.157</name>
      </trkpt>
      <trkpt lat="37.020780780" lon="-106.454976780">
        <ele>3049.900</ele>
        <time>2022-07-07T17:05:29Z</time>
        <name>WPT.158</name>
      </trkpt>
      <trkpt lat="37.020772370" lon="-106.455026270">
        <ele>3050.700</ele>
        <time>2022-07-07T17:05:33Z</time>
        <name>WPT.159</name>
      </trkpt>
      <trkpt lat="37.020765540" lon="-106.455070960">
        <ele>3050.100</ele>
        <time>2022-07-07T17:05:38Z</time>
        <name>WPT.160</name>
      </trkpt>
      <trkpt lat="37.020752490" lon="-106.455118030">
        <ele>3049.400</ele>
        <time>2022-07-07T17:05:43Z</time>
        <name>WPT.161</name>
      </trkpt>
      <trkpt lat="37.020742790" lon="-106.455162930">
        <ele>3049.500</ele>
        <time>2022-07-07T17:05:48Z</time>
        <name>WPT.162</name>
      </trkpt>
      <trkpt lat="37.020737320" lon="-106.455207540">
        <ele>3050.000</ele>
        <time>2022-07-07T17:05:53Z</time>
        <name>WPT.163</name>
      </trkpt>
      <trkpt lat="37.020742840" lon="-106.455263900">
        <ele>3052.000</ele>
        <time>2022-07-07T17:06:14Z</time>
        <name>WPT.164</name>
      </trkpt>
      <trkpt lat="37.020739510" lon="-106.455310510">
        <ele>3052.900</ele>
        <time>2022-07-07T17:06:17Z</time>
        <name>WPT.165</name>
      </trkpt>
      <trkpt lat="37.020721780" lon="-106.455356760">
        <ele>3053.400</ele>
        <time>2022-07-07T17:06:20Z</time>
        <name>WPT.166</name>
      </trkpt>
      <trkpt lat="37.020711890" lon="-106.455409870">
        <ele>3053.700</ele>
        <time>2022-07-07T17:06:23Z</time>
        <name>WPT.167</name>
      </trkpt>
      <trkpt lat="37.020708910" lon="-106.455456460">
        <ele>3053.600</ele>
        <time>2022-07-07T17:06:28Z</time>
        <name>WPT.168</name>
      </trkpt>
      <trkpt lat="37.020702720" lon="-106.455511130">
        <ele>3053.300</ele>
        <time>2022-07-07T17:06:32Z</time>
        <name>WPT.169</name>
      </trkpt>
      <trkpt lat="37.020700700" lon="-106.455558370">
        <ele>3053.400</ele>
        <time>2022-07-07T17:06:35Z</time>
        <name>WPT.170</name>
      </trkpt>
      <trkpt lat="37.020708060" lon="-106.455614190">
        <ele>3054.600</ele>
        <time>2022-07-07T17:06:39Z</time>
        <name>WPT.171</name>
      </trkpt>
      <trkpt lat="37.020709900" lon="-106.455670870">
        <ele>3055.300</ele>
        <time>2022-07-07T17:06:43Z</time>
        <name>WPT.172</name>
      </trkpt>
      <trkpt lat="37.020698450" lon="-106.455719500">
        <ele>3055.000</ele>
        <time>2022-07-07T17:06:47Z</time>
        <name>WPT.173</name>
      </trkpt>
      <trkpt lat="37.020692400" lon="-106.455767770">
        <ele>3055.300</ele>
        <time>2022-07-07T17:06:50Z</time>
        <name>WPT.174</name>
      </trkpt>
      <trkpt lat="37.020695620" lon="-106.455814990">
        <ele>3055.500</ele>
        <time>2022-07-07T17:06:53Z</time>
        <name>WPT.175</name>
      </trkpt>
      <trkpt lat="37.020710500" lon="-106.455862220">
        <ele>3056.700</ele>
        <time>2022-07-07T17:06:56Z</time>
        <name>WPT.176</name>
      </trkpt>
      <trkpt lat="37.020722970" lon="-106.455914910">
        <ele>3057.700</ele>
        <time>2022-07-07T17:06:59Z</time>
        <name>WPT.177</name>
      </trkpt>
      <trkpt lat="37.020733270" lon="-106.455964220">
        <ele>3058.300</ele>
        <time>2022-07-07T17:07:02Z</time>
        <name>WPT.178</name>
      </trkpt>
      <trkpt lat="37.020749250" lon="-106.456018310">
        <ele>3059.400</ele>
        <time>2022-07-07T17:07:06Z</time>
        <name>WPT.179</name>
      </trkpt>
      <trkpt lat="37.020760750" lon="-106.456062940">
        <ele>3060.100</ele>
        <time>2022-07-07T17:07:09Z</time>
        <name>WPT.180</name>
      </trkpt>
      <trkpt lat="37.020770790" lon="-106.456117880">
        <ele>3061.300</ele>
        <time>2022-07-07T17:07:13Z</time>
        <name>WPT.181</name>
      </trkpt>
      <trkpt lat="37.020782240" lon="-106.456160890">
        <ele>3061.800</ele>
        <time>2022-07-07T17:07:16Z</time>
        <name>WPT.182</name>
      </trkpt>
      <trkpt lat="37.020788070" lon="-106.456206520">
        <ele>3063.100</ele>
        <time>2022-07-07T17:07:19Z</time>
        <name>WPT.183</name>
      </trkpt>
      <trkpt lat="37.020788960" lon="-106.456262500">
        <ele>3064.100</ele>
        <time>2022-07-07T17:07:23Z</time>
        <name>WPT.184</name>
      </trkpt>
      <trkpt lat="37.020781460" lon="-106.456319730">
        <ele>3064.700</ele>
        <time>2022-07-07T17:07:27Z</time>
        <name>WPT.185</name>
      </trkpt>
      <trkpt lat="37.020775530" lon="-106.456368390">
        <ele>3065.000</ele>
        <time>2022-07-07T17:07:31Z</time>
        <name>WPT.186</name>
      </trkpt>
      <trkpt lat="37.020775970" lon="-106.456417820">
        <ele>3065.200</ele>
        <time>2022-07-07T17:08:00Z</time>
        <name>WPT.187</name>
      </trkpt>
      <trkpt lat="37.020772210" lon="-106.456469310">
        <ele>3065.300</ele>
        <time>2022-07-07T17:08:03Z</time>
        <name>WPT.188</name>
      </trkpt>
      <trkpt lat="37.020763550" lon="-106.456520470">
        <ele>3065.100</ele>
        <time>2022-07-07T17:08:06Z</time>
        <name>WPT.189</name>
      </trkpt>
      <trkpt lat="37.020752660" lon="-106.456573130">
        <ele>3065.500</ele>
        <time>2022-07-07T17:08:09Z</time>
        <name>WPT.190</name>
      </trkpt>
      <trkpt lat="37.020742860" lon="-106.456620200">
        <ele>3065.400</ele>
        <time>2022-07-07T17:08:12Z</time>
        <name>WPT.191</name>
      </trkpt>
      <trkpt lat="37.020733180" lon="-106.456674940">
        <ele>3066.100</ele>
        <time>2022-07-07T17:08:16Z</time>
        <name>WPT.192</name>
      </trkpt>
      <trkpt lat="37.020731990" lon="-106.456721040">
        <ele>3067.200</ele>
        <time>2022-07-07T17:08:29Z</time>
        <name>WPT.193</name>
      </trkpt>
      <trkpt lat="37.020742210" lon="-106.456781230">
        <ele>3068.000</ele>
        <time>2022-07-07T17:08:33Z</time>
        <name>WPT.194</name>
      </trkpt>
      <trkpt lat="37.020758380" lon="-106.456824720">
        <ele>3067.400</ele>
        <time>2022-07-07T17:08:36Z</time>
        <name>WPT.195</name>
      </trkpt>
      <trkpt lat="37.020789320" lon="-106.456858020">
        <ele>3067.700</ele>
        <time>2022-07-07T17:08:40Z</time>
        <name>WPT.196</name>
      </trkpt>
      <trkpt lat="37.020823300" lon="-106.456889720">
        <ele>3067.400</ele>
        <time>2022-07-07T17:08:44Z</time>
        <name>WPT.197</name>
      </trkpt>
      <trkpt lat="37.020857160" lon="-106.456919280">
        <ele>3068.000</ele>
        <time>2022-07-07T17:08:48Z</time>
        <name>WPT.198</name>
      </trkpt>
      <trkpt lat="37.020822320" lon="-106.456890580">
        <ele>3067.400</ele>
        <time>2022-07-07T17:12:05Z</time>
        <name>WPT.199</name>
      </trkpt>
      <trkpt lat="37.020851340" lon="-106.456917540">
        <ele>3067.900</ele>
        <time>2022-07-07T17:13:32Z</time>
        <name>WPT.200</name>
      </trkpt>
      <trkpt lat="37.020886470" lon="-106.456933880">
        <ele>3068.000</ele>
        <time>2022-07-07T17:13:36Z</time>
        <name>WPT.201</name>
      </trkpt>
      <trkpt lat="37.020926250" lon="-106.456953810">
        <ele>3069.000</ele>
        <time>2022-07-07T17:13:40Z</time>
        <name>WPT.202</name>
      </trkpt>
      <trkpt lat="37.020967680" lon="-106.456966340">
        <ele>3069.700</ele>
        <time>2022-07-07T17:13:44Z</time>
        <name>WPT.203</name>
      </trkpt>
      <trkpt lat="37.021008240" lon="-106.456968780">
        <ele>3069.500</ele>
        <time>2022-07-07T17:13:48Z</time>
        <name>WPT.204</name>
      </trkpt>
      <trkpt lat="37.021053610" lon="-106.456960760">
        <ele>3069.400</ele>
        <time>2022-07-07T17:13:52Z</time>
        <name>WPT.205</name>
      </trkpt>
      <trkpt lat="37.021089300" lon="-106.456936630">
        <ele>3070.400</ele>
        <time>2022-07-07T17:13:56Z</time>
        <name>WPT.206</name>
      </trkpt>
      <trkpt lat="37.021121100" lon="-106.456900520">
        <ele>3068.300</ele>
        <time>2022-07-07T17:14:09Z</time>
        <name>WPT.207</name>
      </trkpt>
      <trkpt lat="37.021163680" lon="-106.456882610">
        <ele>3069.100</ele>
        <time>2022-07-07T17:14:12Z</time>
        <name>WPT.208</name>
      </trkpt>
      <trkpt lat="37.021206240" lon="-106.456873610">
        <ele>3069.300</ele>
        <time>2022-07-07T17:14:15Z</time>
        <name>WPT.209</name>
      </trkpt>
      <trkpt lat="37.021244790" lon="-106.456877870">
        <ele>3070.600</ele>
        <time>2022-07-07T17:14:26Z</time>
        <name>WPT.210</name>
      </trkpt>
      <trkpt lat="37.021289960" lon="-106.456867210">
        <ele>3070.300</ele>
        <time>2022-07-07T17:14:30Z</time>
        <name>WPT.211</name>
      </trkpt>
      <trkpt lat="37.021331620" lon="-106.456854080">
        <ele>3071.500</ele>
        <time>2022-07-07T17:14:34Z</time>
        <name>WPT.212</name>
      </trkpt>
      <trkpt lat="37.021366670" lon="-106.456836900">
        <ele>3071.900</ele>
        <time>2022-07-07T17:14:37Z</time>
        <name>WPT.213</name>
      </trkpt>
      <trkpt lat="37.021402370" lon="-106.456813320">
        <ele>3072.100</ele>
        <time>2022-07-07T17:14:41Z</time>
        <name>WPT.214</name>
      </trkpt>
      <trkpt lat="37.021449090" lon="-106.456805510">
        <ele>3071.100</ele>
        <time>2022-07-07T17:14:45Z</time>
        <name>WPT.215</name>
      </trkpt>
      <trkpt lat="37.021489760" lon="-106.456780760">
        <ele>3072.000</ele>
        <time>2022-07-07T17:14:49Z</time>
        <name>WPT.216</name>
      </trkpt>
      <trkpt lat="37.021525080" lon="-106.456763720">
        <ele>3072.200</ele>
        <time>2022-07-07T17:14:52Z</time>
        <name>WPT.217</name>
      </trkpt>
      <trkpt lat="37.021564360" lon="-106.456756960">
        <ele>3072.100</ele>
        <time>2022-07-07T17:14:55Z</time>
        <name>WPT.218</name>
      </trkpt>
      <trkpt lat="37.021602580" lon="-106.456759460">
        <ele>3072.800</ele>
        <time>2022-07-07T17:14:59Z</time>
        <name>WPT.219</name>
      </trkpt>
      <trkpt lat="37.021650950" lon="-106.456754310">
        <ele>3072.600</ele>
        <time>2022-07-07T17:15:03Z</time>
        <name>WPT.220</name>
      </trkpt>
      <trkpt lat="37.021688400" lon="-106.456761310">
        <ele>3073.100</ele>
        <time>2022-07-07T17:15:06Z</time>
        <name>WPT.221</name>
      </trkpt>
      <trkpt lat="37.021726160" lon="-106.456755690">
        <ele>3073.800</ele>
        <time>2022-07-07T17:15:10Z</time>
        <name>WPT.222</name>
      </trkpt>
      <trkpt lat="37.021771290" lon="-106.456770090">
        <ele>3074.700</ele>
        <time>2022-07-07T17:15:16Z</time>
        <name>WPT.223</name>
      </trkpt>
      <trkpt lat="37.021807510" lon="-106.456763140">
        <ele>3075.400</ele>
        <time>2022-07-07T17:15:19Z</time>
        <name>WPT.224</name>
      </trkpt>
      <trkpt lat="37.021843290" lon="-106.456740140">
        <ele>3074.300</ele>
        <time>2022-07-07T17:15:22Z</time>
        <name>WPT.225</name>
      </trkpt>
      <trkpt lat="37.021877950" lon="-106.456712100">
        <ele>3074.900</ele>
        <time>2022-07-07T17:15:25Z</time>
        <name>WPT.226</name>
      </trkpt>
      <trkpt lat="37.021911230" lon="-106.456671310">
        <ele>3075.100</ele>
        <time>2022-07-07T17:15:30Z</time>
        <name>WPT.227</name>
      </trkpt>
      <trkpt lat="37.021933690" lon="-106.456631960">
        <ele>3073.300</ele>
        <time>2022-07-07T17:15:33Z</time>
        <name>WPT.228</name>
      </trkpt>
      <trkpt lat="37.021957390" lon="-106.456593100">
        <ele>3072.400</ele>
        <time>2022-07-07T17:15:37Z</time>
        <name>WPT.229</name>
      </trkpt>
      <trkpt lat="37.021975590" lon="-106.456546580">
        <ele>3071.700</ele>
        <time>2022-07-07T17:15:41Z</time>
        <name>WPT.230</name>
      </trkpt>
      <trkpt lat="37.022007650" lon="-106.456502860">
        <ele>3071.400</ele>
        <time>2022-07-07T17:15:45Z</time>
        <name>WPT.231</name>
      </trkpt>
      <trkpt lat="37.022041870" lon="-106.456469880">
        <ele>3070.700</ele>
        <time>2022-07-07T17:15:49Z</time>
        <name>WPT.232</name>
      </trkpt>
      <trkpt lat="37.022077140" lon="-106.456440660">
        <ele>3070.200</ele>
        <time>2022-07-07T17:15:53Z</time>
        <name>WPT.233</name>
      </trkpt>
      <trkpt lat="37.022117150" lon="-106.456411730">
        <ele>3069.900</ele>
        <time>2022-07-07T17:15:57Z</time>
        <name>WPT.234</name>
      </trkpt>
      <trkpt lat="37.022148810" lon="-106.456389030">
        <ele>3069.000</ele>
        <time>2022-07-07T17:16:00Z</time>
        <name>WPT.235</name>
      </trkpt>
      <trkpt lat="37.022186150" lon="-106.456372830">
        <ele>3070.500</ele>
        <time>2022-07-07T17:16:04Z</time>
        <name>WPT.236</name>
      </trkpt>
      <trkpt lat="37.022229110" lon="-106.456373360">
        <ele>3073.100</ele>
        <time>2022-07-07T17:16:58Z</time>
        <name>WPT.237</name>
      </trkpt>
      <trkpt lat="37.022266700" lon="-106.456357230">
        <ele>3072.800</ele>
        <time>2022-07-07T17:17:01Z</time>
        <name>WPT.238</name>
      </trkpt>
      <trkpt lat="37.022305740" lon="-106.456328670">
        <ele>3071.200</ele>
        <time>2022-07-07T17:17:05Z</time>
        <name>WPT.239</name>
      </trkpt>
      <trkpt lat="37.022344220" lon="-106.456325530">
        <ele>3071.500</ele>
        <time>2022-07-07T17:17:09Z</time>
        <name>WPT.240</name>
      </trkpt>
      <trkpt lat="37.022386760" lon="-106.456321420">
        <ele>3070.800</ele>
        <time>2022-07-07T17:17:13Z</time>
        <name>WPT.241</name>
      </trkpt>
      <trkpt lat="37.022426450" lon="-106.456330500">
        <ele>3071.000</ele>
        <time>2022-07-07T17:17:16Z</time>
        <name>WPT.242</name>
      </trkpt>
      <trkpt lat="37.022462730" lon="-106.456332400">
        <ele>3070.700</ele>
        <time>2022-07-07T17:17:19Z</time>
        <name>WPT.243</name>
      </trkpt>
      <trkpt lat="37.022504420" lon="-106.456345090">
        <ele>3071.700</ele>
        <time>2022-07-07T17:17:22Z</time>
        <name>WPT.244</name>
      </trkpt>
      <trkpt lat="37.022537400" lon="-106.456385300">
        <ele>3073.200</ele>
        <time>2022-07-07T17:17:26Z</time>
        <name>WPT.245</name>
      </trkpt>
      <trkpt lat="37.022567230" lon="-106.456424650">
        <ele>3073.000</ele>
        <time>2022-07-07T17:17:40Z</time>
        <name>WPT.246</name>
      </trkpt>
      <trkpt lat="37.022613000" lon="-106.456413170">
        <ele>3075.000</ele>
        <time>2022-07-07T17:17:43Z</time>
        <name>WPT.247</name>
      </trkpt>
      <trkpt lat="37.022649650" lon="-106.456454610">
        <ele>3076.300</ele>
        <time>2022-07-07T17:17:47Z</time>
        <name>WPT.248</name>
      </trkpt>
      <trkpt lat="37.022666090" lon="-106.456504160">
        <ele>3075.000</ele>
        <time>2022-07-07T17:17:50Z</time>
        <name>WPT.249</name>
      </trkpt>
      <trkpt lat="37.022670840" lon="-106.456549110">
        <ele>3075.800</ele>
        <time>2022-07-07T17:17:53Z</time>
        <name>WPT.250</name>
      </trkpt>
      <trkpt lat="37.022642300" lon="-106.456590590">
        <ele>3075.400</ele>
        <time>2022-07-07T17:17:57Z</time>
        <name>WPT.251</name>
      </trkpt>
      <trkpt lat="37.022614840" lon="-106.456624010">
        <ele>3075.700</ele>
        <time>2022-07-07T17:18:01Z</time>
        <name>WPT.252</name>
      </trkpt>
      <trkpt lat="37.022609170" lon="-106.456678900">
        <ele>3075.500</ele>
        <time>2022-07-07T17:18:05Z</time>
        <name>WPT.253</name>
      </trkpt>
      <trkpt lat="37.022605330" lon="-106.456730490">
        <ele>3076.000</ele>
        <time>2022-07-07T17:18:09Z</time>
        <name>WPT.254</name>
      </trkpt>
      <trkpt lat="37.022624220" lon="-106.456771650">
        <ele>3076.900</ele>
        <time>2022-07-07T17:18:31Z</time>
        <name>WPT.255</name>
      </trkpt>
      <trkpt lat="37.022640600" lon="-106.456815790">
        <ele>3077.900</ele>
        <time>2022-07-07T17:18:35Z</time>
        <name>WPT.256</name>
      </trkpt>
      <trkpt lat="37.022670240" lon="-106.456862450">
        <ele>3078.800</ele>
        <time>2022-07-07T17:18:40Z</time>
        <name>WPT.257</name>
      </trkpt>
      <trkpt lat="37.022701450" lon="-106.456901710">
        <ele>3079.600</ele>
        <time>2022-07-07T17:18:44Z</time>
        <name>WPT.258</name>
      </trkpt>
      <trkpt lat="37.022740700" lon="-106.456926740">
        <ele>3080.000</ele>
        <time>2022-07-07T17:18:48Z</time>
        <name>WPT.259</name>
      </trkpt>
      <trkpt lat="37.022781710" lon="-106.456943200">
        <ele>3078.700</ele>
        <time>2022-07-07T17:18:52Z</time>
        <name>WPT.260</name>
      </trkpt>
      <trkpt lat="37.022827440" lon="-106.456954760">
        <ele>3078.100</ele>
        <time>2022-07-07T17:18:56Z</time>
        <name>WPT.261</name>
      </trkpt>
      <trkpt lat="37.022864970" lon="-106.456954880">
        <ele>3078.900</ele>
        <time>2022-07-07T17:19:00Z</time>
        <name>WPT.262</name>
      </trkpt>
      <trkpt lat="37.022905110" lon="-106.456963860">
        <ele>3080.200</ele>
        <time>2022-07-07T17:19:05Z</time>
        <name>WPT.263</name>
      </trkpt>
      <trkpt lat="37.022938110" lon="-106.456981940">
        <ele>3079.800</ele>
        <time>2022-07-07T17:19:09Z</time>
        <name>WPT.264</name>
      </trkpt>
      <trkpt lat="37.022978100" lon="-106.457012140">
        <ele>3080.100</ele>
        <time>2022-07-07T17:19:13Z</time>
        <name>WPT.265</name>
      </trkpt>
      <trkpt lat="37.023006750" lon="-106.457051470">
        <ele>3082.100</ele>
        <time>2022-07-07T17:19:17Z</time>
        <name>WPT.266</name>
      </trkpt>
      <trkpt lat="37.023036370" lon="-106.457082160">
        <ele>3082.200</ele>
        <time>2022-07-07T17:19:21Z</time>
        <name>WPT.267</name>
      </trkpt>
      <trkpt lat="37.023063320" lon="-106.457114430">
        <ele>3083.700</ele>
        <time>2022-07-07T17:19:25Z</time>
        <name>WPT.268</name>
      </trkpt>
      <trkpt lat="37.023097870" lon="-106.457147250">
        <ele>3084.800</ele>
        <time>2022-07-07T17:19:30Z</time>
        <name>WPT.269</name>
      </trkpt>
      <trkpt lat="37.023130760" lon="-106.457179500">
        <ele>3084.900</ele>
        <time>2022-07-07T17:19:34Z</time>
        <name>WPT.270</name>
      </trkpt>
      <trkpt lat="37.023160220" lon="-106.457212050">
        <ele>3085.500</ele>
        <time>2022-07-07T17:19:39Z</time>
        <name>WPT.271</name>
      </trkpt>
      <trkpt lat="37.023200960" lon="-106.457222380">
        <ele>3084.300</ele>
        <time>2022-07-07T17:19:43Z</time>
        <name>WPT.272</name>
      </trkpt>
      <trkpt lat="37.023236180" lon="-106.457232670">
        <ele>3083.500</ele>
        <time>2022-07-07T17:19:51Z</time>
        <name>WPT.273</name>
      </trkpt>
      <trkpt lat="37.023279510" lon="-106.457242840">
        <ele>3083.300</ele>
        <time>2022-07-07T17:19:58Z</time>
        <name>WPT.274</name>
      </trkpt>
      <trkpt lat="37.023325860" lon="-106.457238810">
        <ele>3082.500</ele>
        <time>2022-07-07T17:20:02Z</time>
        <name>WPT.275</name>
      </trkpt>
      <trkpt lat="37.023363720" lon="-106.457262890">
        <ele>3082.400</ele>
        <time>2022-07-07T17:20:06Z</time>
        <name>WPT.276</name>
      </trkpt>
      <trkpt lat="37.023399160" lon="-106.457296140">
        <ele>3083.100</ele>
        <time>2022-07-07T17:20:10Z</time>
        <name>WPT.277</name>
      </trkpt>
      <trkpt lat="37.023422800" lon="-106.457339340">
        <ele>3084.000</ele>
        <time>2022-07-07T17:20:13Z</time>
        <name>WPT.278</name>
      </trkpt>
      <trkpt lat="37.023440980" lon="-106.457380240">
        <ele>3083.600</ele>
        <time>2022-07-07T17:20:16Z</time>
        <name>WPT.279</name>
      </trkpt>
      <trkpt lat="37.023456560" lon="-106.457427910">
        <ele>3083.600</ele>
        <time>2022-07-07T17:20:19Z</time>
        <name>WPT.280</name>
      </trkpt>
      <trkpt lat="37.023480580" lon="-106.457469960">
        <ele>3083.400</ele>
        <time>2022-07-07T17:20:23Z</time>
        <name>WPT.281</name>
      </trkpt>
      <trkpt lat="37.023517220" lon="-106.457491360">
        <ele>3082.400</ele>
        <time>2022-07-07T17:20:28Z</time>
        <name>WPT.282</name>
      </trkpt>
      <trkpt lat="37.023559840" lon="-106.457478700">
        <ele>3081.300</ele>
        <time>2022-07-07T17:20:32Z</time>
        <name>WPT.283</name>
      </trkpt>
      <trkpt lat="37.023595640" lon="-106.457468070">
        <ele>3080.100</ele>
        <time>2022-07-07T17:20:50Z</time>
        <name>WPT.284</name>
      </trkpt>
      <trkpt lat="37.023634250" lon="-106.457465950">
        <ele>3079.300</ele>
        <time>2022-07-07T17:20:55Z</time>
        <name>WPT.285</name>
      </trkpt>
      <trkpt lat="37.023676050" lon="-106.457484940">
        <ele>3079.300</ele>
        <time>2022-07-07T17:21:00Z</time>
        <name>WPT.286</name>
      </trkpt>
      <trkpt lat="37.023706780" lon="-106.457516120">
        <ele>3080.100</ele>
        <time>2022-07-07T17:21:04Z</time>
        <name>WPT.287</name>
      </trkpt>
      <trkpt lat="37.023736500" lon="-106.457554740">
        <ele>3080.300</ele>
        <time>2022-07-07T17:21:08Z</time>
        <name>WPT.288</name>
      </trkpt>
      <trkpt lat="37.023768970" lon="-106.457579850">
        <ele>3080.000</ele>
        <time>2022-07-07T17:21:12Z</time>
        <name>WPT.289</name>
      </trkpt>
      <trkpt lat="37.023794780" lon="-106.457611680">
        <ele>3079.900</ele>
        <time>2022-07-07T17:21:16Z</time>
        <name>WPT.290</name>
      </trkpt>
      <trkpt lat="37.023821970" lon="-106.457650500">
        <ele>3080.000</ele>
        <time>2022-07-07T17:21:20Z</time>
        <name>WPT.291</name>
      </trkpt>
      <trkpt lat="37.023850120" lon="-106.457681290">
        <ele>3080.200</ele>
        <time>2022-07-07T17:21:24Z</time>
        <name>WPT.292</name>
      </trkpt>
      <trkpt lat="37.023888270" lon="-106.457710020">
        <ele>3079.700</ele>
        <time>2022-07-07T17:21:29Z</time>
        <name>WPT.293</name>
      </trkpt>
      <trkpt lat="37.023918810" lon="-106.457734190">
        <ele>3079.700</ele>
        <time>2022-07-07T17:21:32Z</time>
        <name>WPT.294</name>
      </trkpt>
      <trkpt lat="37.023958200" lon="-106.457748650">
        <ele>3079.300</ele>
        <time>2022-07-07T17:21:36Z</time>
        <name>WPT.295</name>
      </trkpt>
      <trkpt lat="37.023992110" lon="-106.457774770">
        <ele>3080.000</ele>
        <time>2022-07-07T17:21:40Z</time>
        <name>WPT.296</name>
      </trkpt>
      <trkpt lat="37.024016110" lon="-106.457822410">
        <ele>3080.700</ele>
        <time>2022-07-07T17:21:44Z</time>
        <name>WPT.297</name>
      </trkpt>
      <trkpt lat="37.024050520" lon="-106.457857650">
        <ele>3081.300</ele>
        <time>2022-07-07T17:21:48Z</time>
        <name>WPT.298</name>
      </trkpt>
      <trkpt lat="37.024075080" lon="-106.457896600">
        <ele>3080.700</ele>
        <time>2022-07-07T17:21:52Z</time>
        <name>WPT.299</name>
      </trkpt>
      <trkpt lat="37.024096560" lon="-106.457943890">
        <ele>3081.100</ele>
        <time>2022-07-07T17:21:56Z</time>
        <name>WPT.300</name>
      </trkpt>
      <trkpt lat="37.024125790" lon="-106.457988940">
        <ele>3080.700</ele>
        <time>2022-07-07T17:22:00Z</time>
        <name>WPT.301</name>
      </trkpt>
      <trkpt lat="37.024151790" lon="-106.458033940">
        <ele>3080.900</ele>
        <time>2022-07-07T17:22:04Z</time>
        <name>WPT.302</name>
      </trkpt>
      <trkpt lat="37.024184830" lon="-106.458066810">
        <ele>3081.000</ele>
        <time>2022-07-07T17:22:08Z</time>
        <name>WPT.303</name>
      </trkpt>
      <trkpt lat="37.024217230" lon="-106.458104130">
        <ele>3079.500</ele>
        <time>2022-07-07T17:22:12Z</time>
        <name>WPT.304</name>
      </trkpt>
      <trkpt lat="37.024253740" lon="-106.458137000">
        <ele>3078.500</ele>
        <time>2022-07-07T17:22:16Z</time>
        <name>WPT.305</name>
      </trkpt>
      <trkpt lat="37.024281670" lon="-106.458177690">
        <ele>3078.000</ele>
        <time>2022-07-07T17:22:20Z</time>
        <name>WPT.306</name>
      </trkpt>
      <trkpt lat="37.024311550" lon="-106.458216630">
        <ele>3078.500</ele>
        <time>2022-07-07T17:22:24Z</time>
        <name>WPT.307</name>
      </trkpt>
      <trkpt lat="37.024334600" lon="-106.458251300">
        <ele>3078.900</ele>
        <time>2022-07-07T17:22:28Z</time>
        <name>WPT.308</name>
      </trkpt>
      <trkpt lat="37.024352500" lon="-106.458291490">
        <ele>3079.400</ele>
        <time>2022-07-07T17:22:32Z</time>
        <name>WPT.309</name>
      </trkpt>
      <trkpt lat="37.024374540" lon="-106.458335280">
        <ele>3079.900</ele>
        <time>2022-07-07T17:22:37Z</time>
        <name>WPT.310</name>
      </trkpt>
      <trkpt lat="37.024393120" lon="-106.458374570">
        <ele>3079.900</ele>
        <time>2022-07-07T17:22:41Z</time>
        <name>WPT.311</name>
      </trkpt>
      <trkpt lat="37.024420820" lon="-106.458412070">
        <ele>3080.300</ele>
        <time>2022-07-07T17:22:46Z</time>
        <name>WPT.312</name>
      </trkpt>
      <trkpt lat="37.024447570" lon="-106.458445250">
        <ele>3080.400</ele>
        <time>2022-07-07T17:22:51Z</time>
        <name>WPT.313</name>
      </trkpt>
      <trkpt lat="37.024482230" lon="-106.458481800">
        <ele>3080.000</ele>
        <time>2022-07-07T17:22:56Z</time>
        <name>WPT.314</name>
      </trkpt>
      <trkpt lat="37.024505500" lon="-106.458522530">
        <ele>3079.700</ele>
        <time>2022-07-07T17:23:00Z</time>
        <name>WPT.315</name>
      </trkpt>
      <trkpt lat="37.024535850" lon="-106.458559290">
        <ele>3079.200</ele>
        <time>2022-07-07T17:23:05Z</time>
        <name>WPT.316</name>
      </trkpt>
      <trkpt lat="37.024548340" lon="-106.458606930">
        <ele>3077.400</ele>
        <time>2022-07-07T17:23:13Z</time>
        <name>WPT.317</name>
      </trkpt>
      <trkpt lat="37.024538500" lon="-106.458656790">
        <ele>3076.700</ele>
        <time>2022-07-07T17:23:19Z</time>
        <name>WPT.318</name>
      </trkpt>
      <trkpt lat="37.024550410" lon="-106.458705040">
        <ele>3076.700</ele>
        <time>2022-07-07T17:23:23Z</time>
        <name>WPT.319</name>
      </trkpt>
      <trkpt lat="37.024571940" lon="-106.458741980">
        <ele>3077.500</ele>
        <time>2022-07-07T17:23:28Z</time>
        <name>WPT.320</name>
      </trkpt>
      <trkpt lat="37.024587940" lon="-106.458783630">
        <ele>3078.600</ele>
        <time>2022-07-07T17:23:33Z</time>
        <name>WPT.321</name>
      </trkpt>
      <trkpt lat="37.024610400" lon="-106.458826160">
        <ele>3079.700</ele>
        <time>2022-07-07T17:23:38Z</time>
        <name>WPT.322</name>
      </trkpt>
      <trkpt lat="37.024634200" lon="-106.458875870">
        <ele>3080.400</ele>
        <time>2022-07-07T17:23:56Z</time>
        <name>WPT.323</name>
      </trkpt>
      <trkpt lat="37.024656570" lon="-106.458911600">
        <ele>3081.800</ele>
        <time>2022-07-07T17:24:01Z</time>
        <name>WPT.324</name>
      </trkpt>
      <trkpt lat="37.024689490" lon="-106.458951790">
        <ele>3084.700</ele>
        <time>2022-07-07T17:24:10Z</time>
        <name>WPT.325</name>
      </trkpt>
      <trkpt lat="37.024712220" lon="-106.458994330">
        <ele>3085.900</ele>
        <time>2022-07-07T17:24:15Z</time>
        <name>WPT.326</name>
      </trkpt>
      <trkpt lat="37.024732000" lon="-106.459035620">
        <ele>3086.900</ele>
        <time>2022-07-07T17:24:18Z</time>
        <name>WPT.327</name>
      </trkpt>
      <trkpt lat="37.024758100" lon="-106.459070540">
        <ele>3088.000</ele>
        <time>2022-07-07T17:24:22Z</time>
        <name>WPT.328</name>
      </trkpt>
      <trkpt lat="37.024783020" lon="-106.459103490">
        <ele>3090.400</ele>
        <time>2022-07-07T17:24:26Z</time>
        <name>WPT.329</name>
      </trkpt>
      <trkpt lat="37.024785310" lon="-106.459152480">
        <ele>3095.600</ele>
        <time>2022-07-07T17:24:32Z</time>
        <name>WPT.330</name>
      </trkpt>
      <trkpt lat="37.024816480" lon="-106.459191560">
        <ele>3095.200</ele>
        <time>2022-07-07T17:24:38Z</time>
        <name>WPT.331</name>
      </trkpt>
      <trkpt lat="37.024838590" lon="-106.459235360">
        <ele>3094.600</ele>
        <time>2022-07-07T17:24:42Z</time>
        <name>WPT.332</name>
      </trkpt>
      <trkpt lat="37.024851020" lon="-106.459280660">
        <ele>3095.700</ele>
        <time>2022-07-07T17:24:46Z</time>
        <name>WPT.333</name>
      </trkpt>
      <trkpt lat="37.024866890" lon="-106.459323170">
        <ele>3097.000</ele>
        <time>2022-07-07T17:24:50Z</time>
        <name>WPT.334</name>
      </trkpt>
      <trkpt lat="37.024887910" lon="-106.459361310">
        <ele>3096.900</ele>
        <time>2022-07-07T17:24:56Z</time>
        <name>WPT.335</name>
      </trkpt>
      <trkpt lat="37.024919090" lon="-106.459391270">
        <ele>3097.800</ele>
        <time>2022-07-07T17:25:20Z</time>
        <name>WPT.336</name>
      </trkpt>
      <trkpt lat="37.024925830" lon="-106.459436530">
        <ele>3099.600</ele>
        <time>2022-07-07T17:25:23Z</time>
        <name>WPT.337</name>
      </trkpt>
      <trkpt lat="37.024945410" lon="-106.459479780">
        <ele>3100.400</ele>
        <time>2022-07-07T17:25:28Z</time>
        <name>WPT.338</name>
      </trkpt>
      <trkpt lat="37.024973220" lon="-106.459510310">
        <ele>3097.800</ele>
        <time>2022-07-07T17:25:31Z</time>
        <name>WPT.339</name>
      </trkpt>
      <trkpt lat="37.025012550" lon="-106.459517130">
        <ele>3098.400</ele>
        <time>2022-07-07T17:25:34Z</time>
        <name>WPT.340</name>
      </trkpt>
      <trkpt lat="37.025052060" lon="-106.459517120">
        <ele>3096.200</ele>
        <time>2022-07-07T17:25:37Z</time>
        <name>WPT.341</name>
      </trkpt>
      <trkpt lat="37.025090140" lon="-106.459518190">
        <ele>3095.100</ele>
        <time>2022-07-07T17:25:40Z</time>
        <name>WPT.342</name>
      </trkpt>
      <trkpt lat="37.025126660" lon="-106.459527830">
        <ele>3093.900</ele>
        <time>2022-07-07T17:25:43Z</time>
        <name>WPT.343</name>
      </trkpt>
      <trkpt lat="37.025162860" lon="-106.459545880">
        <ele>3094.600</ele>
        <time>2022-07-07T17:25:47Z</time>
        <name>WPT.344</name>
      </trkpt>
      <trkpt lat="37.025201980" lon="-106.459553710">
        <ele>3097.600</ele>
        <time>2022-07-07T17:25:52Z</time>
        <name>WPT.345</name>
      </trkpt>
      <trkpt lat="37.025239860" lon="-106.459543710">
        <ele>3095.600</ele>
        <time>2022-07-07T17:25:57Z</time>
        <name>WPT.346</name>
      </trkpt>
      <trkpt lat="37.025273680" lon="-106.459573120">
        <ele>3094.300</ele>
        <time>2022-07-07T17:26:01Z</time>
        <name>WPT.347</name>
      </trkpt>
      <trkpt lat="37.025289440" lon="-106.459613930">
        <ele>3097.600</ele>
        <time>2022-07-07T17:26:06Z</time>
        <name>WPT.348</name>
      </trkpt>
      <trkpt lat="37.025312660" lon="-106.459663520">
        <ele>3092.000</ele>
        <time>2022-07-07T17:26:10Z</time>
        <name>WPT.349</name>
      </trkpt>
      <trkpt lat="37.025345520" lon="-106.459693510">
        <ele>3093.600</ele>
        <time>2022-07-07T17:26:14Z</time>
        <name>WPT.350</name>
      </trkpt>
      <trkpt lat="37.025386940" lon="-106.459720360">
        <ele>3095.900</ele>
        <time>2022-07-07T17:26:18Z</time>
        <name>WPT.351</name>
      </trkpt>
      <trkpt lat="37.025422440" lon="-106.459728240">
        <ele>3093.400</ele>
        <time>2022-07-07T17:26:22Z</time>
        <name>WPT.352</name>
      </trkpt>
      <trkpt lat="37.025462630" lon="-106.459727450">
        <ele>3090.700</ele>
        <time>2022-07-07T17:26:26Z</time>
        <name>WPT.353</name>
      </trkpt>
      <trkpt lat="37.025499020" lon="-106.459721230">
        <ele>3090.900</ele>
        <time>2022-07-07T17:26:30Z</time>
        <name>WPT.354</name>
      </trkpt>
      <trkpt lat="37.025541290" lon="-106.459698770">
        <ele>3091.300</ele>
        <time>2022-07-07T17:26:34Z</time>
        <name>WPT.355</name>
      </trkpt>
      <trkpt lat="37.025581770" lon="-106.459684080">
        <ele>3090.200</ele>
        <time>2022-07-07T17:26:38Z</time>
        <name>WPT.356</name>
      </trkpt>
      <trkpt lat="37.025619750" lon="-106.459674560">
        <ele>3090.300</ele>
        <time>2022-07-07T17:26:42Z</time>
        <name>WPT.357</name>
      </trkpt>
      <trkpt lat="37.025660140" lon="-106.459668390">
        <ele>3092.100</ele>
        <time>2022-07-07T17:26:46Z</time>
        <name>WPT.358</name>
      </trkpt>
      <trkpt lat="37.025704010" lon="-106.459653140">
        <ele>3092.700</ele>
        <time>2022-07-07T17:26:50Z</time>
        <name>WPT.359</name>
      </trkpt>
      <trkpt lat="37.025741410" lon="-106.459644280">
        <ele>3093.000</ele>
        <time>2022-07-07T17:26:54Z</time>
        <name>WPT.360</name>
      </trkpt>
      <trkpt lat="37.025771820" lon="-106.459611650">
        <ele>3084.200</ele>
        <time>2022-07-07T17:27:00Z</time>
        <name>WPT.361</name>
      </trkpt>
      <trkpt lat="37.025790540" lon="-106.459567060">
        <ele>3083.700</ele>
        <time>2022-07-07T17:27:02Z</time>
        <name>WPT.362</name>
      </trkpt>
      <trkpt lat="37.025807090" lon="-106.459527100">
        <ele>3078.600</ele>
        <time>2022-07-07T17:27:25Z</time>
        <name>WPT.363</name>
      </trkpt>
      <trkpt lat="37.025839350" lon="-106.459499290">
        <ele>3078.700</ele>
        <time>2022-07-07T17:27:41Z</time>
        <name>WPT.364</name>
      </trkpt>
      <trkpt lat="37.025878130" lon="-106.459462430">
        <ele>3078.400</ele>
        <time>2022-07-07T17:27:45Z</time>
        <name>WPT.365</name>
      </trkpt>
      <trkpt lat="37.025912120" lon="-106.459427800">
        <ele>3079.800</ele>
        <time>2022-07-07T17:27:49Z</time>
        <name>WPT.366</name>
      </trkpt>
      <trkpt lat="37.025947410" lon="-106.459410310">
        <ele>3082.500</ele>
        <time>2022-07-07T17:27:54Z</time>
        <name>WPT.367</name>
      </trkpt>
      <trkpt lat="37.025979750" lon="-106.459390330">
        <ele>3082.900</ele>
        <time>2022-07-07T17:27:59Z</time>
        <name>WPT.368</name>
      </trkpt>
      <trkpt lat="37.026011350" lon="-106.459361950">
        <ele>3080.500</ele>
        <time>2022-07-07T17:28:04Z</time>
        <name>WPT.369</name>
      </trkpt>
      <trkpt lat="37.026050810" lon="-106.459349970">
        <ele>3082.700</ele>
        <time>2022-07-07T17:28:08Z</time>
        <name>WPT.370</name>
      </trkpt>
      <trkpt lat="37.026085310" lon="-106.459317300">
        <ele>3083.100</ele>
        <time>2022-07-07T17:28:12Z</time>
        <name>WPT.371</name>
      </trkpt>
      <trkpt lat="37.026091030" lon="-106.459263990">
        <ele>3076.900</ele>
        <time>2022-07-07T17:28:15Z</time>
        <name>WPT.372</name>
      </trkpt>
      <trkpt lat="37.026111970" lon="-106.459220260">
        <ele>3078.300</ele>
        <time>2022-07-07T17:28:19Z</time>
        <name>WPT.373</name>
      </trkpt>
      <trkpt lat="37.026144120" lon="-106.459182390">
        <ele>3079.400</ele>
        <time>2022-07-07T17:28:24Z</time>
        <name>WPT.374</name>
      </trkpt>
      <trkpt lat="37.026178990" lon="-106.459155790">
        <ele>3080.000</ele>
        <time>2022-07-07T17:28:28Z</time>
        <name>WPT.375</name>
      </trkpt>
      <trkpt lat="37.026215110" lon="-106.459133900">
        <ele>3081.600</ele>
        <time>2022-07-07T17:28:32Z</time>
        <name>WPT.376</name>
      </trkpt>
      <trkpt lat="37.026256690" lon="-106.459142660">
        <ele>3083.000</ele>
        <time>2022-07-07T17:28:37Z</time>
        <name>WPT.377</name>
      </trkpt>
      <trkpt lat="37.026297040" lon="-106.459149620">
        <ele>3084.400</ele>
        <time>2022-07-07T17:28:42Z</time>
        <name>WPT.378</name>
      </trkpt>
      <trkpt lat="37.026333110" lon="-106.459138690">
        <ele>3086.800</ele>
        <time>2022-07-07T17:28:46Z</time>
        <name>WPT.379</name>
      </trkpt>
      <trkpt lat="37.026374870" lon="-106.459119780">
        <ele>3089.200</ele>
        <time>2022-07-07T17:28:50Z</time>
        <name>WPT.380</name>
      </trkpt>
      <trkpt lat="37.026410200" lon="-106.459102080">
        <ele>3091.100</ele>
        <time>2022-07-07T17:28:54Z</time>
        <name>WPT.381</name>
      </trkpt>
      <trkpt lat="37.026457040" lon="-106.459100680">
        <ele>3090.900</ele>
        <time>2022-07-07T17:28:58Z</time>
        <name>WPT.382</name>
      </trkpt>
      <trkpt lat="37.026502990" lon="-106.459096000">
        <ele>3089.200</ele>
        <time>2022-07-07T17:29:04Z</time>
        <name>WPT.383</name>
      </trkpt>
      <trkpt lat="37.026541050" lon="-106.459064470">
        <ele>3085.800</ele>
        <time>2022-07-07T17:29:09Z</time>
        <name>WPT.384</name>
      </trkpt>
      <trkpt lat="37.026560430" lon="-106.459017820">
        <ele>3083.900</ele>
        <time>2022-07-07T17:29:13Z</time>
        <name>WPT.385</name>
      </trkpt>
      <trkpt lat="37.026578370" lon="-106.458974110">
        <ele>3082.200</ele>
        <time>2022-07-07T17:29:17Z</time>
        <name>WPT.386</name>
      </trkpt>
      <trkpt lat="37.026615430" lon="-106.458957660">
        <ele>3081.400</ele>
        <time>2022-07-07T17:29:21Z</time>
        <name>WPT.387</name>
      </trkpt>
      <trkpt lat="37.026654950" lon="-106.458935530">
        <ele>3083.000</ele>
        <time>2022-07-07T17:29:25Z</time>
        <name>WPT.388</name>
      </trkpt>
      <trkpt lat="37.026692470" lon="-106.458929300">
        <ele>3083.400</ele>
        <time>2022-07-07T17:29:41Z</time>
        <name>WPT.389</name>
      </trkpt>
      <trkpt lat="37.026724930" lon="-106.458961400">
        <ele>3083.600</ele>
        <time>2022-07-07T17:29:45Z</time>
        <name>WPT.390</name>
      </trkpt>
      <trkpt lat="37.026763990" lon="-106.458981240">
        <ele>3086.600</ele>
        <time>2022-07-07T17:29:51Z</time>
        <name>WPT.391</name>
      </trkpt>
      <trkpt lat="37.026803370" lon="-106.458977950">
        <ele>3086.000</ele>
        <time>2022-07-07T17:29:56Z</time>
        <name>WPT.392</name>
      </trkpt>
      <trkpt lat="37.026838470" lon="-106.459007290">
        <ele>3085.400</ele>
        <time>2022-07-07T17:30:02Z</time>
        <name>WPT.393</name>
      </trkpt>
      <trkpt lat="37.026878100" lon="-106.459035860">
        <ele>3086.400</ele>
        <time>2022-07-07T17:30:07Z</time>
        <name>WPT.394</name>
      </trkpt>
      <trkpt lat="37.026919560" lon="-106.459050640">
        <ele>3085.400</ele>
        <time>2022-07-07T17:30:11Z</time>
        <name>WPT.395</name>
      </trkpt>
      <trkpt lat="37.026967730" lon="-106.459061100">
        <ele>3086.200</ele>
        <time>2022-07-07T17:30:16Z</time>
        <name>WPT.396</name>
      </trkpt>
      <trkpt lat="37.027002420" lon="-106.459085490">
        <ele>3086.700</ele>
        <time>2022-07-07T17:30:19Z</time>
        <name>WPT.397</name>
      </trkpt>
      <trkpt lat="37.027043870" lon="-106.459092660">
        <ele>3086.000</ele>
        <time>2022-07-07T17:30:23Z</time>
        <name>WPT.398</name>
      </trkpt>
      <trkpt lat="37.027080590" lon="-106.459091370">
        <ele>3088.300</ele>
        <time>2022-07-07T17:30:27Z</time>
        <name>WPT.399</name>
      </trkpt>
      <trkpt lat="37.027121030" lon="-106.459100250">
        <ele>3089.400</ele>
        <time>2022-07-07T17:30:31Z</time>
        <name>WPT.400</name>
      </trkpt>
      <trkpt lat="37.027160390" lon="-106.459102980">
        <ele>3087.800</ele>
        <time>2022-07-07T17:30:34Z</time>
        <name>WPT.401</name>
      </trkpt>
      <trkpt lat="37.027199300" lon="-106.459114230">
        <ele>3086.600</ele>
        <time>2022-07-07T17:30:38Z</time>
        <name>WPT.402</name>
      </trkpt>
      <trkpt lat="37.027234860" lon="-106.459102260">
        <ele>3085.900</ele>
        <time>2022-07-07T17:30:45Z</time>
        <name>WPT.403</name>
      </trkpt>
      <trkpt lat="37.027263920" lon="-106.459075240">
        <ele>3085.900</ele>
        <time>2022-07-07T17:31:29Z</time>
        <name>WPT.404</name>
      </trkpt>
      <trkpt lat="37.027300530" lon="-106.459091540">
        <ele>3083.000</ele>
        <time>2022-07-07T17:32:34Z</time>
        <name>WPT.405</name>
      </trkpt>
      <trkpt lat="37.027344870" lon="-106.459077390">
        <ele>3085.400</ele>
        <time>2022-07-07T17:32:39Z</time>
        <name>WPT.406</name>
      </trkpt>
      <trkpt lat="37.027366500" lon="-106.459037020">
        <ele>3084.800</ele>
        <time>2022-07-07T17:32:42Z</time>
        <name>WPT.407</name>
      </trkpt>
      <trkpt lat="37.027374370" lon="-106.458985310">
        <ele>3086.100</ele>
        <time>2022-07-07T17:32:46Z</time>
        <name>WPT.408</name>
      </trkpt>
      <trkpt lat="37.027390560" lon="-106.458936290">
        <ele>3086.400</ele>
        <time>2022-07-07T17:32:51Z</time>
        <name>WPT.409</name>
      </trkpt>
      <trkpt lat="37.027383610" lon="-106.458892080">
        <ele>3082.800</ele>
        <time>2022-07-07T17:32:55Z</time>
        <name>WPT.410</name>
      </trkpt>
      <trkpt lat="37.027414570" lon="-106.458917620">
        <ele>3083.300</ele>
        <time>2022-07-07T17:33:00Z</time>
        <name>WPT.411</name>
      </trkpt>
      <trkpt lat="37.027449690" lon="-106.458947080">
        <ele>3088.100</ele>
        <time>2022-07-07T17:33:08Z</time>
        <name>WPT.412</name>
      </trkpt>
      <trkpt lat="37.027459280" lon="-106.458992790">
        <ele>3090.600</ele>
        <time>2022-07-07T17:33:13Z</time>
        <name>WPT.413</name>
      </trkpt>
      <trkpt lat="37.027470470" lon="-106.459035630">
        <ele>3093.800</ele>
        <time>2022-07-07T17:33:18Z</time>
        <name>WPT.414</name>
      </trkpt>
      <trkpt lat="37.027502150" lon="-106.459063230">
        <ele>3096.100</ele>
        <time>2022-07-07T17:33:24Z</time>
        <name>WPT.415</name>
      </trkpt>
      <trkpt lat="37.027508840" lon="-106.459111920">
        <ele>3100.100</ele>
        <time>2022-07-07T17:33:43Z</time>
        <name>WPT.416</name>
      </trkpt>
      <trkpt lat="37.027545090" lon="-106.459126190">
        <ele>3098.700</ele>
        <time>2022-07-07T17:33:48Z</time>
        <name>WPT.417</name>
      </trkpt>
      <trkpt lat="37.027587280" lon="-106.459119280">
        <ele>3099.200</ele>
        <time>2022-07-07T17:33:56Z</time>
        <name>WPT.418</name>
      </trkpt>
      <trkpt lat="37.027628170" lon="-106.459107240">
        <ele>3098.800</ele>
        <time>2022-07-07T17:34:03Z</time>
        <name>WPT.419</name>
      </trkpt>
      <trkpt lat="37.027659070" lon="-106.459082640">
        <ele>3099.000</ele>
        <time>2022-07-07T17:34:09Z</time>
        <name>WPT.420</name>
      </trkpt>
      <trkpt lat="37.027674440" lon="-106.459033020">
        <ele>3095.700</ele>
        <time>2022-07-07T17:34:16Z</time>
        <name>WPT.421</name>
      </trkpt>
      <trkpt lat="37.027658930" lon="-106.459081210">
        <ele>3102.500</ele>
        <time>2022-07-07T17:34:51Z</time>
        <name>WPT.422</name>
      </trkpt>
      <trkpt lat="37.027701450" lon="-106.459107040">
        <ele>3102.100</ele>
        <time>2022-07-07T17:35:03Z</time>
        <name>WPT.423</name>
      </trkpt>
      <trkpt lat="37.027737990" lon="-106.459103950">
        <ele>3099.000</ele>
        <time>2022-07-07T17:35:09Z</time>
        <name>WPT.424</name>
      </trkpt>
      <trkpt lat="37.027759000" lon="-106.459064510">
        <ele>3099.000</ele>
        <time>2022-07-07T17:35:15Z</time>
        <name>WPT.425</name>
      </trkpt>
      <trkpt lat="37.027754540" lon="-106.459016880">
        <ele>3100.100</ele>
        <time>2022-07-07T17:35:21Z</time>
        <name>WPT.426</name>
      </trkpt>
      <trkpt lat="37.027762620" lon="-106.458960580">
        <ele>3099.200</ele>
        <time>2022-07-07T17:35:25Z</time>
        <name>WPT.427</name>
      </trkpt>
      <trkpt lat="37.027792320" lon="-106.458931030">
        <ele>3100.300</ele>
        <time>2022-07-07T17:35:30Z</time>
        <name>WPT.428</name>
      </trkpt>
      <trkpt lat="37.027811310" lon="-106.458888900">
        <ele>3100.000</ele>
        <time>2022-07-07T17:35:34Z</time>
        <name>WPT.429</name>
      </trkpt>
      <trkpt lat="37.027837280" lon="-106.458849760">
        <ele>3098.400</ele>
        <time>2022-07-07T17:35:38Z</time>
        <name>WPT.430</name>
      </trkpt>
      <trkpt lat="37.027859600" lon="-106.458886050">
        <ele>3097.000</ele>
        <time>2022-07-07T17:35:47Z</time>
        <name>WPT.431</name>
      </trkpt>
      <trkpt lat="37.027865630" lon="-106.458934630">
        <ele>3101.800</ele>
        <time>2022-07-07T17:36:13Z</time>
        <name>WPT.432</name>
      </trkpt>
      <trkpt lat="37.027868650" lon="-106.458979480">
        <ele>3102.600</ele>
        <time>2022-07-07T17:36:29Z</time>
        <name>WPT.433</name>
      </trkpt>
      <trkpt lat="37.027866970" lon="-106.459028670">
        <ele>3105.300</ele>
        <time>2022-07-07T17:36:35Z</time>
        <name>WPT.434</name>
      </trkpt>
      <trkpt lat="37.027873840" lon="-106.459082150">
        <ele>3108.300</ele>
        <time>2022-07-07T17:36:43Z</time>
        <name>WPT.435</name>
      </trkpt>
      <trkpt lat="37.027893580" lon="-106.459121780">
        <ele>3106.800</ele>
        <time>2022-07-07T17:36:47Z</time>
        <name>WPT.436</name>
      </trkpt>
      <trkpt lat="37.027927820" lon="-106.459145700">
        <ele>3104.900</ele>
        <time>2022-07-07T17:36:52Z</time>
        <name>WPT.437</name>
      </trkpt>
      <trkpt lat="37.027938750" lon="-106.459100510">
        <ele>3103.400</ele>
        <time>2022-07-07T17:37:01Z</time>
        <name>WPT.438</name>
      </trkpt>
      <trkpt lat="37.027954100" lon="-106.459059440">
        <ele>3105.700</ele>
        <time>2022-07-07T17:37:06Z</time>
        <name>WPT.439</name>
      </trkpt>
      <trkpt lat="37.027975690" lon="-106.459017380">
        <ele>3108.100</ele>
        <time>2022-07-07T17:37:12Z</time>
        <name>WPT.440</name>
      </trkpt>
      <trkpt lat="37.027997060" lon="-106.458977870">
        <ele>3104.300</ele>
        <time>2022-07-07T17:37:17Z</time>
        <name>WPT.441</name>
      </trkpt>
      <trkpt lat="37.028018130" lon="-106.458938000">
        <ele>3102.800</ele>
        <time>2022-07-07T17:37:39Z</time>
        <name>WPT.442</name>
      </trkpt>
      <trkpt lat="37.028031610" lon="-106.458891050">
        <ele>3106.100</ele>
        <time>2022-07-07T17:37:45Z</time>
        <name>WPT.443</name>
      </trkpt>
      <trkpt lat="37.028056920" lon="-106.458852340">
        <ele>3105.600</ele>
        <time>2022-07-07T17:37:54Z</time>
        <name>WPT.444</name>
      </trkpt>
      <trkpt lat="37.028060370" lon="-106.458903680">
        <ele>3103.800</ele>
        <time>2022-07-07T17:38:12Z</time>
        <name>WPT.445</name>
      </trkpt>
      <trkpt lat="37.028078810" lon="-106.458953290">
        <ele>3104.300</ele>
        <time>2022-07-07T17:38:21Z</time>
        <name>WPT.446</name>
      </trkpt>
      <trkpt lat="37.028097470" lon="-106.458999020">
        <ele>3107.100</ele>
        <time>2022-07-07T17:38:26Z</time>
        <name>WPT.447</name>
      </trkpt>
      <trkpt lat="37.028125690" lon="-106.459036670">
        <ele>3111.800</ele>
        <time>2022-07-07T17:38:35Z</time>
        <name>WPT.448</name>
      </trkpt>
      <trkpt lat="37.028145740" lon="-106.459082160">
        <ele>3113.300</ele>
        <time>2022-07-07T17:38:40Z</time>
        <name>WPT.449</name>
      </trkpt>
      <trkpt lat="37.028173740" lon="-106.459121650">
        <ele>3111.500</ele>
        <time>2022-07-07T17:38:44Z</time>
        <name>WPT.450</name>
      </trkpt>
      <trkpt lat="37.028209970" lon="-106.459120100">
        <ele>3113.600</ele>
        <time>2022-07-07T17:38:52Z</time>
        <name>WPT.451</name>
      </trkpt>
      <trkpt lat="37.028239410" lon="-106.459147540">
        <ele>3114.500</ele>
        <time>2022-07-07T17:38:58Z</time>
        <name>WPT.452</name>
      </trkpt>
      <trkpt lat="37.028273150" lon="-106.459175260">
        <ele>3120.100</ele>
        <time>2022-07-07T17:39:03Z</time>
        <name>WPT.453</name>
      </trkpt>
      <trkpt lat="37.028309350" lon="-106.459187840">
        <ele>3116.800</ele>
        <time>2022-07-07T17:39:06Z</time>
        <name>WPT.454</name>
      </trkpt>
      <trkpt lat="37.028351010" lon="-106.459220950">
        <ele>3115.000</ele>
        <time>2022-07-07T17:39:10Z</time>
        <name>WPT.455</name>
      </trkpt>
      <trkpt lat="37.028380230" lon="-106.459250150">
        <ele>3117.600</ele>
        <time>2022-07-07T17:39:13Z</time>
        <name>WPT.456</name>
      </trkpt>
      <trkpt lat="37.028416320" lon="-106.459243780">
        <ele>3116.300</ele>
        <time>2022-07-07T17:39:18Z</time>
        <name>WPT.457</name>
      </trkpt>
      <trkpt lat="37.028454370" lon="-106.459225500">
        <ele>3112.700</ele>
        <time>2022-07-07T17:39:30Z</time>
        <name>WPT.458</name>
      </trkpt>
      <trkpt lat="37.028496950" lon="-106.459221200">
        <ele>3109.900</ele>
        <time>2022-07-07T17:39:35Z</time>
        <name>WPT.459</name>
      </trkpt>
      <trkpt lat="37.028539180" lon="-106.459224770">
        <ele>3108.800</ele>
        <time>2022-07-07T17:39:38Z</time>
        <name>WPT.460</name>
      </trkpt>
      <trkpt lat="37.028577310" lon="-106.459246520">
        <ele>3107.400</ele>
        <time>2022-07-07T17:39:42Z</time>
        <name>WPT.461</name>
      </trkpt>
      <trkpt lat="37.028622150" lon="-106.459254990">
        <ele>3108.300</ele>
        <time>2022-07-07T17:39:47Z</time>
        <name>WPT.462</name>
      </trkpt>
      <trkpt lat="37.028659070" lon="-106.459250920">
        <ele>3105.800</ele>
        <time>2022-07-07T17:39:51Z</time>
        <name>WPT.463</name>
      </trkpt>
      <trkpt lat="37.028694180" lon="-106.459240320">
        <ele>3105.500</ele>
        <time>2022-07-07T17:39:55Z</time>
        <name>WPT.464</name>
      </trkpt>
      <trkpt lat="37.028730820" lon="-106.459231610">
        <ele>3106.400</ele>
        <time>2022-07-07T17:40:00Z</time>
        <name>WPT.465</name>
      </trkpt>
      <trkpt lat="37.028770700" lon="-106.459243510">
        <ele>3109.400</ele>
        <time>2022-07-07T17:40:16Z</time>
        <name>WPT.466</name>
      </trkpt>
      <trkpt lat="37.028806360" lon="-106.459255750">
        <ele>3110.800</ele>
        <time>2022-07-07T17:40:21Z</time>
        <name>WPT.467</name>
      </trkpt>
      <trkpt lat="37.028839740" lon="-106.459276110">
        <ele>3110.000</ele>
        <time>2022-07-07T17:40:26Z</time>
        <name>WPT.468</name>
      </trkpt>
      <trkpt lat="37.028871450" lon="-106.459302600">
        <ele>3108.400</ele>
        <time>2022-07-07T17:40:29Z</time>
        <name>WPT.469</name>
      </trkpt>
      <trkpt lat="37.028905740" lon="-106.459328990">
        <ele>3108.000</ele>
        <time>2022-07-07T17:40:33Z</time>
        <name>WPT.470</name>
      </trkpt>
      <trkpt lat="37.028930480" lon="-106.459374870">
        <ele>3111.800</ele>
        <time>2022-07-07T17:40:39Z</time>
        <name>WPT.471</name>
      </trkpt>
      <trkpt lat="37.028958870" lon="-106.459414890">
        <ele>3110.100</ele>
        <time>2022-07-07T17:40:43Z</time>
        <name>WPT.472</name>
      </trkpt>
      <trkpt lat="37.028987990" lon="-106.459451650">
        <ele>3110.500</ele>
        <time>2022-07-07T17:40:48Z</time>
        <name>WPT.473</name>
      </trkpt>
      <trkpt lat="37.029021910" lon="-106.459475240">
        <ele>3106.700</ele>
        <time>2022-07-07T17:41:17Z</time>
        <name>WPT.474</name>
      </trkpt>
      <trkpt lat="37.029049220" lon="-106.459505950">
        <ele>3105.000</ele>
        <time>2022-07-07T17:41:21Z</time>
        <name>WPT.475</name>
      </trkpt>
      <trkpt lat="37.029072270" lon="-106.459549240">
        <ele>3103.800</ele>
        <time>2022-07-07T17:41:26Z</time>
        <name>WPT.476</name>
      </trkpt>
      <trkpt lat="37.029097850" lon="-106.459585090">
        <ele>3103.200</ele>
        <time>2022-07-07T17:41:38Z</time>
        <name>WPT.477</name>
      </trkpt>
      <trkpt lat="37.029086840" lon="-106.459541790">
        <ele>3098.900</ele>
        <time>2022-07-07T17:41:57Z</time>
        <name>WPT.478</name>
      </trkpt>
      <trkpt lat="37.029048030" lon="-106.459543040">
        <ele>3100.500</ele>
        <time>2022-07-07T17:42:03Z</time>
        <name>WPT.479</name>
      </trkpt>
      <trkpt lat="37.029011070" lon="-106.459558940">
        <ele>3098.700</ele>
        <time>2022-07-07T17:42:12Z</time>
        <name>WPT.480</name>
      </trkpt>
      <trkpt lat="37.028973900" lon="-106.459564260">
        <ele>3101.400</ele>
        <time>2022-07-07T17:42:18Z</time>
        <name>WPT.481</name>
      </trkpt>
      <trkpt lat="37.028945780" lon="-106.459604270">
        <ele>3102.900</ele>
        <time>2022-07-07T17:42:24Z</time>
        <name>WPT.482</name>
      </trkpt>
      <trkpt lat="37.028909990" lon="-106.459593060">
        <ele>3108.300</ele>
        <time>2022-07-07T17:42:29Z</time>
        <name>WPT.483</name>
      </trkpt>
      <trkpt lat="37.028859160" lon="-106.459586330">
        <ele>3109.000</ele>
        <time>2022-07-07T17:42:33Z</time>
        <name>WPT.484</name>
      </trkpt>
      <trkpt lat="37.028829100" lon="-106.459615490">
        <ele>3107.200</ele>
        <time>2022-07-07T17:42:35Z</time>
        <name>WPT.485</name>
      </trkpt>
      <trkpt lat="37.028789570" lon="-106.459638540">
        <ele>3108.100</ele>
        <time>2022-07-07T17:42:39Z</time>
        <name>WPT.486</name>
      </trkpt>
      <trkpt lat="37.028755280" lon="-106.459670510">
        <ele>3112.300</ele>
        <time>2022-07-07T17:42:45Z</time>
        <name>WPT.487</name>
      </trkpt>
      <trkpt lat="37.028719510" lon="-106.459693970">
        <ele>3115.000</ele>
        <time>2022-07-07T17:42:50Z</time>
        <name>WPT.488</name>
      </trkpt>
      <trkpt lat="37.028676630" lon="-106.459714220">
        <ele>3112.500</ele>
        <time>2022-07-07T17:42:54Z</time>
        <name>WPT.489</name>
      </trkpt>
      <trkpt lat="37.028661040" lon="-106.459774010">
        <ele>3112.300</ele>
        <time>2022-07-07T17:42:57Z</time>
        <name>WPT.490</name>
      </trkpt>
      <trkpt lat="37.028651120" lon="-106.459836140">
        <ele>3109.700</ele>
        <time>2022-07-07T17:43:00Z</time>
        <name>WPT.491</name>
      </trkpt>
      <trkpt lat="37.028644310" lon="-106.459888310">
        <ele>3111.100</ele>
        <time>2022-07-07T17:43:04Z</time>
        <name>WPT.492</name>
      </trkpt>
      <trkpt lat="37.028646250" lon="-106.459934390">
        <ele>3109.800</ele>
        <time>2022-07-07T17:43:07Z</time>
        <name>WPT.493</name>
      </trkpt>
      <trkpt lat="37.028662280" lon="-106.459991520">
        <ele>3108.700</ele>
        <time>2022-07-07T17:43:10Z</time>
        <name>WPT.494</name>
      </trkpt>
      <trkpt lat="37.028673870" lon="-106.460042070">
        <ele>3109.400</ele>
        <time>2022-07-07T17:43:13Z</time>
        <name>WPT.495</name>
      </trkpt>
      <trkpt lat="37.028680660" lon="-106.460086570">
        <ele>3108.900</ele>
        <time>2022-07-07T17:43:16Z</time>
        <name>WPT.496</name>
      </trkpt>
      <trkpt lat="37.028672910" lon="-106.460131200">
        <ele>3108.000</ele>
        <time>2022-07-07T17:43:19Z</time>
        <name>WPT.497</name>
      </trkpt>
      <trkpt lat="37.028664890" lon="-106.460180170">
        <ele>3109.100</ele>
        <time>2022-07-07T17:43:22Z</time>
        <name>WPT.498</name>
      </trkpt>
      <trkpt lat="37.028649280" lon="-106.460231760">
        <ele>3113.600</ele>
        <time>2022-07-07T17:43:27Z</time>
        <name>WPT.499</name>
      </trkpt>
      <trkpt lat="37.028646400" lon="-106.460282730">
        <ele>3115.000</ele>
        <time>2022-07-07T17:43:31Z</time>
        <name>WPT.500</name>
      </trkpt>
      <trkpt lat="37.028645940" lon="-106.460329710">
        <ele>3115.200</ele>
        <time>2022-07-07T17:43:34Z</time>
        <name>WPT.501</name>
      </trkpt>
      <trkpt lat="37.028651950" lon="-106.460375370">
        <ele>3114.200</ele>
        <time>2022-07-07T17:43:37Z</time>
        <name>WPT.502</name>
      </trkpt>
      <trkpt lat="37.028644240" lon="-106.460421500">
        <ele>3115.800</ele>
        <time>2022-07-07T17:43:43Z</time>
        <name>WPT.503</name>
      </trkpt>
      <trkpt lat="37.028627880" lon="-106.460475610">
        <ele>3114.400</ele>
        <time>2022-07-07T17:43:47Z</time>
        <name>WPT.504</name>
      </trkpt>
      <trkpt lat="37.028592380" lon="-106.460495070">
        <ele>3117.100</ele>
        <time>2022-07-07T17:43:54Z</time>
        <name>WPT.505</name>
      </trkpt>
      <trkpt lat="37.028552200" lon="-106.460495870">
        <ele>3116.100</ele>
        <time>2022-07-07T17:43:59Z</time>
        <name>WPT.506</name>
      </trkpt>
      <trkpt lat="37.028517480" lon="-106.460515600">
        <ele>3116.700</ele>
        <time>2022-07-07T17:44:04Z</time>
        <name>WPT.507</name>
      </trkpt>
      <trkpt lat="37.028495640" lon="-106.460555370">
        <ele>3116.400</ele>
        <time>2022-07-07T17:44:08Z</time>
        <name>WPT.508</name>
      </trkpt>
      <trkpt lat="37.028472580" lon="-106.460596980">
        <ele>3116.000</ele>
        <time>2022-07-07T17:44:12Z</time>
        <name>WPT.509</name>
      </trkpt>
      <trkpt lat="37.028455560" lon="-106.460638590">
        <ele>3117.300</ele>
        <time>2022-07-07T17:44:17Z</time>
        <name>WPT.510</name>
      </trkpt>
      <trkpt lat="37.028422550" lon="-106.460663460">
        <ele>3117.700</ele>
        <time>2022-07-07T17:44:21Z</time>
        <name>WPT.511</name>
      </trkpt>
      <trkpt lat="37.028388220" lon="-106.460682410">
        <ele>3119.000</ele>
        <time>2022-07-07T17:44:26Z</time>
        <name>WPT.512</name>
      </trkpt>
      <trkpt lat="37.028350370" lon="-106.460681400">
        <ele>3120.200</ele>
        <time>2022-07-07T17:44:30Z</time>
        <name>WPT.513</name>
      </trkpt>
      <trkpt lat="37.028310380" lon="-106.460676550">
        <ele>3121.200</ele>
        <time>2022-07-07T17:44:34Z</time>
        <name>WPT.514</name>
      </trkpt>
      <trkpt lat="37.028273190" lon="-106.460686840">
        <ele>3122.000</ele>
        <time>2022-07-07T17:44:38Z</time>
        <name>WPT.515</name>
      </trkpt>
      <trkpt lat="37.028234910" lon="-106.460716190">
        <ele>3122.500</ele>
        <time>2022-07-07T17:44:42Z</time>
        <name>WPT.516</name>
      </trkpt>
      <trkpt lat="37.028197950" lon="-106.460728460">
        <ele>3122.700</ele>
        <time>2022-07-07T17:44:46Z</time>
        <name>WPT.517</name>
      </trkpt>
      <trkpt lat="37.028170410" lon="-106.460767380">
        <ele>3122.400</ele>
        <time>2022-07-07T17:44:50Z</time>
        <name>WPT.518</name>
      </trkpt>
      <trkpt lat="37.028146500" lon="-106.460814020">
        <ele>3121.200</ele>
        <time>2022-07-07T17:44:53Z</time>
        <name>WPT.519</name>
      </trkpt>
      <trkpt lat="37.028123650" lon="-106.460854800">
        <ele>3121.700</ele>
        <time>2022-07-07T17:44:57Z</time>
        <name>WPT.520</name>
      </trkpt>
      <trkpt lat="37.028104820" lon="-106.460899310">
        <ele>3122.400</ele>
        <time>2022-07-07T17:45:02Z</time>
        <name>WPT.521</name>
      </trkpt>
      <trkpt lat="37.028095080" lon="-106.460942980">
        <ele>3120.600</ele>
        <time>2022-07-07T17:45:08Z</time>
        <name>WPT.522</name>
      </trkpt>
      <trkpt lat="37.028094940" lon="-106.460991960">
        <ele>3119.000</ele>
        <time>2022-07-07T17:46:47Z</time>
        <name>WPT.523</name>
      </trkpt>
      <trkpt lat="37.028095950" lon="-106.461045150">
        <ele>3119.600</ele>
        <time>2022-07-07T17:46:56Z</time>
        <name>WPT.524</name>
      </trkpt>
      <trkpt lat="37.028101160" lon="-106.461097700">
        <ele>3119.800</ele>
        <time>2022-07-07T17:47:03Z</time>
        <name>WPT.525</name>
      </trkpt>
      <trkpt lat="37.028118210" lon="-106.461154240">
        <ele>3117.400</ele>
        <time>2022-07-07T17:47:07Z</time>
        <name>WPT.526</name>
      </trkpt>
      <trkpt lat="37.028126400" lon="-106.461202730">
        <ele>3118.500</ele>
        <time>2022-07-07T17:47:10Z</time>
        <name>WPT.527</name>
      </trkpt>
      <trkpt lat="37.028131230" lon="-106.461252450">
        <ele>3119.000</ele>
        <time>2022-07-07T17:47:14Z</time>
        <name>WPT.528</name>
      </trkpt>
      <trkpt lat="37.028137700" lon="-106.461308720">
        <ele>3118.900</ele>
        <time>2022-07-07T17:47:17Z</time>
        <name>WPT.529</name>
      </trkpt>
      <trkpt lat="37.028127730" lon="-106.461352770">
        <ele>3118.200</ele>
        <time>2022-07-07T17:47:20Z</time>
        <name>WPT.530</name>
      </trkpt>
      <trkpt lat="37.028122160" lon="-106.461408130">
        <ele>3116.500</ele>
        <time>2022-07-07T17:47:24Z</time>
        <name>WPT.531</name>
      </trkpt>
      <trkpt lat="37.028130670" lon="-106.461454730">
        <ele>3116.800</ele>
        <time>2022-07-07T17:47:59Z</time>
        <name>WPT.532</name>
      </trkpt>
      <trkpt lat="37.028138900" lon="-106.461503990">
        <ele>3116.500</ele>
        <time>2022-07-07T17:48:14Z</time>
        <name>WPT.533</name>
      </trkpt>
      <trkpt lat="37.028145490" lon="-106.461550670">
        <ele>3117.300</ele>
        <time>2022-07-07T17:48:18Z</time>
        <name>WPT.534</name>
      </trkpt>
      <trkpt lat="37.028144800" lon="-106.461602800">
        <ele>3114.800</ele>
        <time>2022-07-07T17:48:22Z</time>
        <name>WPT.535</name>
      </trkpt>
      <trkpt lat="37.028147280" lon="-106.461651520">
        <ele>3114.900</ele>
        <time>2022-07-07T17:48:26Z</time>
        <name>WPT.536</name>
      </trkpt>
      <trkpt lat="37.028132570" lon="-106.461692800">
        <ele>3114.800</ele>
        <time>2022-07-07T17:48:30Z</time>
        <name>WPT.537</name>
      </trkpt>
      <trkpt lat="37.028109930" lon="-106.461731380">
        <ele>3113.900</ele>
        <time>2022-07-07T17:48:35Z</time>
        <name>WPT.538</name>
      </trkpt>
      <trkpt lat="37.028076300" lon="-106.461760180">
        <ele>3115.200</ele>
        <time>2022-07-07T17:48:41Z</time>
        <name>WPT.539</name>
      </trkpt>
      <trkpt lat="37.028074790" lon="-106.461819840">
        <ele>3115.100</ele>
        <time>2022-07-07T17:48:51Z</time>
        <name>WPT.540</name>
      </trkpt>
      <trkpt lat="37.028064590" lon="-106.461870850">
        <ele>3114.800</ele>
        <time>2022-07-07T17:48:55Z</time>
        <name>WPT.541</name>
      </trkpt>
      <trkpt lat="37.028041470" lon="-106.461917550">
        <ele>3117.000</ele>
        <time>2022-07-07T17:49:00Z</time>
        <name>WPT.542</name>
      </trkpt>
      <trkpt lat="37.028019740" lon="-106.461962620">
        <ele>3119.000</ele>
        <time>2022-07-07T17:49:04Z</time>
        <name>WPT.543</name>
      </trkpt>
      <trkpt lat="37.027986890" lon="-106.462000070">
        <ele>3118.700</ele>
        <time>2022-07-07T17:49:09Z</time>
        <name>WPT.544</name>
      </trkpt>
      <trkpt lat="37.027974790" lon="-106.462054860">
        <ele>3119.900</ele>
        <time>2022-07-07T17:49:13Z</time>
        <name>WPT.545</name>
      </trkpt>
      <trkpt lat="37.027955050" lon="-106.462094890">
        <ele>3122.000</ele>
        <time>2022-07-07T17:49:21Z</time>
        <name>WPT.546</name>
      </trkpt>
      <trkpt lat="37.027923770" lon="-106.462123750">
        <ele>3126.500</ele>
        <time>2022-07-07T17:49:28Z</time>
        <name>WPT.547</name>
      </trkpt>
      <trkpt lat="37.027899550" lon="-106.462169950">
        <ele>3125.000</ele>
        <time>2022-07-07T17:49:32Z</time>
        <name>WPT.548</name>
      </trkpt>
      <trkpt lat="37.027880770" lon="-106.462227720">
        <ele>3124.700</ele>
        <time>2022-07-07T17:49:36Z</time>
        <name>WPT.549</name>
      </trkpt>
      <trkpt lat="37.027869260" lon="-106.462271210">
        <ele>3125.300</ele>
        <time>2022-07-07T17:49:40Z</time>
        <name>WPT.550</name>
      </trkpt>
      <trkpt lat="37.027843010" lon="-106.462307440">
        <ele>3124.800</ele>
        <time>2022-07-07T17:50:01Z</time>
        <name>WPT.551</name>
      </trkpt>
      <trkpt lat="37.027828760" lon="-106.462359170">
        <ele>3124.700</ele>
        <time>2022-07-07T17:50:06Z</time>
        <name>WPT.552</name>
      </trkpt>
      <trkpt lat="37.027820130" lon="-106.462409390">
        <ele>3124.500</ele>
        <time>2022-07-07T17:50:10Z</time>
        <name>WPT.553</name>
      </trkpt>
      <trkpt lat="37.027819460" lon="-106.462460940">
        <ele>3122.500</ele>
        <time>2022-07-07T17:50:13Z</time>
        <name>WPT.554</name>
      </trkpt>
      <trkpt lat="37.027815670" lon="-106.462506240">
        <ele>3122.600</ele>
        <time>2022-07-07T17:50:26Z</time>
        <name>WPT.555</name>
      </trkpt>
      <trkpt lat="37.027802020" lon="-106.462559380">
        <ele>3122.100</ele>
        <time>2022-07-07T17:50:32Z</time>
        <name>WPT.556</name>
      </trkpt>
      <trkpt lat="37.027788560" lon="-106.462601100">
        <ele>3121.700</ele>
        <time>2022-07-07T17:50:49Z</time>
        <name>WPT.557</name>
      </trkpt>
      <trkpt lat="37.027767730" lon="-106.462639540">
        <ele>3123.100</ele>
        <time>2022-07-07T17:53:01Z</time>
        <name>WPT.558</name>
      </trkpt>
      <trkpt lat="37.027745780" lon="-106.462688280">
        <ele>3124.100</ele>
        <time>2022-07-07T17:53:08Z</time>
        <name>WPT.559</name>
      </trkpt>
      <trkpt lat="37.027716000" lon="-106.462727300">
        <ele>3122.600</ele>
        <time>2022-07-07T17:53:13Z</time>
        <name>WPT.560</name>
      </trkpt>
      <trkpt lat="37.027702570" lon="-106.462769270">
        <ele>3122.100</ele>
        <time>2022-07-07T17:53:16Z</time>
        <name>WPT.561</name>
      </trkpt>
      <trkpt lat="37.027685140" lon="-106.462819580">
        <ele>3120.600</ele>
        <time>2022-07-07T17:53:20Z</time>
        <name>WPT.562</name>
      </trkpt>
      <trkpt lat="37.027674500" lon="-106.462870560">
        <ele>3121.000</ele>
        <time>2022-07-07T17:53:25Z</time>
        <name>WPT.563</name>
      </trkpt>
      <trkpt lat="37.027652490" lon="-106.462907920">
        <ele>3121.000</ele>
        <time>2022-07-07T17:53:29Z</time>
        <name>WPT.564</name>
      </trkpt>
      <trkpt lat="37.027631930" lon="-106.462964430">
        <ele>3121.700</ele>
        <time>2022-07-07T17:53:34Z</time>
        <name>WPT.565</name>
      </trkpt>
      <trkpt lat="37.027621950" lon="-106.463018330">
        <ele>3120.900</ele>
        <time>2022-07-07T17:53:38Z</time>
        <name>WPT.566</name>
      </trkpt>
      <trkpt lat="37.027604970" lon="-106.463067770">
        <ele>3119.600</ele>
        <time>2022-07-07T17:53:42Z</time>
        <name>WPT.567</name>
      </trkpt>
      <trkpt lat="37.027589150" lon="-106.463114070">
        <ele>3120.900</ele>
        <time>2022-07-07T17:53:46Z</time>
        <name>WPT.568</name>
      </trkpt>
      <trkpt lat="37.027583980" lon="-106.463164170">
        <ele>3119.300</ele>
        <time>2022-07-07T17:53:50Z</time>
        <name>WPT.569</name>
      </trkpt>
      <trkpt lat="37.027570870" lon="-106.463209810">
        <ele>3118.100</ele>
        <time>2022-07-07T17:53:54Z</time>
        <name>WPT.570</name>
      </trkpt>
      <trkpt lat="37.027580200" lon="-106.463261600">
        <ele>3116.600</ele>
        <time>2022-07-07T17:53:57Z</time>
        <name>WPT.571</name>
      </trkpt>
      <trkpt lat="37.027576260" lon="-106.463317930">
        <ele>3117.800</ele>
        <time>2022-07-07T17:54:01Z</time>
        <name>WPT.572</name>
      </trkpt>
      <trkpt lat="37.027556560" lon="-106.463361260">
        <ele>3116.300</ele>
        <time>2022-07-07T17:54:05Z</time>
        <name>WPT.573</name>
      </trkpt>
      <trkpt lat="37.027533190" lon="-106.463401040">
        <ele>3115.500</ele>
        <time>2022-07-07T17:54:10Z</time>
        <name>WPT.574</name>
      </trkpt>
      <trkpt lat="37.027504510" lon="-106.463433610">
        <ele>3118.300</ele>
        <time>2022-07-07T17:54:18Z</time>
        <name>WPT.575</name>
      </trkpt>
      <trkpt lat="37.027468220" lon="-106.463458090">
        <ele>3122.500</ele>
        <time>2022-07-07T17:54:25Z</time>
        <name>WPT.576</name>
      </trkpt>
      <trkpt lat="37.027435500" lon="-106.463480540">
        <ele>3121.500</ele>
        <time>2022-07-07T17:54:30Z</time>
        <name>WPT.577</name>
      </trkpt>
      <trkpt lat="37.027405940" lon="-106.463509550">
        <ele>3120.300</ele>
        <time>2022-07-07T17:54:33Z</time>
        <name>WPT.578</name>
      </trkpt>
      <trkpt lat="37.027369450" lon="-106.463518930">
        <ele>3122.400</ele>
        <time>2022-07-07T17:54:37Z</time>
        <name>WPT.579</name>
      </trkpt>
      <trkpt lat="37.027331740" lon="-106.463531860">
        <ele>3124.000</ele>
        <time>2022-07-07T17:54:42Z</time>
        <name>WPT.580</name>
      </trkpt>
      <trkpt lat="37.027295870" lon="-106.463527410">
        <ele>3124.700</ele>
        <time>2022-07-07T17:54:46Z</time>
        <name>WPT.581</name>
      </trkpt>
      <trkpt lat="37.027255540" lon="-106.463519970">
        <ele>3126.200</ele>
        <time>2022-07-07T17:54:50Z</time>
        <name>WPT.582</name>
      </trkpt>
      <trkpt lat="37.027215400" lon="-106.463554620">
        <ele>3125.100</ele>
        <time>2022-07-07T17:54:54Z</time>
        <name>WPT.583</name>
      </trkpt>
      <trkpt lat="37.027180620" lon="-106.463592750">
        <ele>3124.900</ele>
        <time>2022-07-07T17:54:58Z</time>
        <name>WPT.584</name>
      </trkpt>
      <trkpt lat="37.027163940" lon="-106.463633960">
        <ele>3122.700</ele>
        <time>2022-07-07T17:55:00Z</time>
        <name>WPT.585</name>
      </trkpt>
      <trkpt lat="37.027156070" lon="-106.463686710">
        <ele>3120.600</ele>
        <time>2022-07-07T17:55:02Z</time>
        <name>WPT.586</name>
      </trkpt>
      <trkpt lat="37.027152350" lon="-106.463742280">
        <ele>3119.100</ele>
        <time>2022-07-07T17:55:04Z</time>
        <name>WPT.587</name>
      </trkpt>
      <trkpt lat="37.027142810" lon="-106.463788590">
        <ele>3118.000</ele>
        <time>2022-07-07T17:55:06Z</time>
        <name>WPT.588</name>
      </trkpt>
      <trkpt lat="37.027120780" lon="-106.463849650">
        <ele>3115.400</ele>
        <time>2022-07-07T17:55:09Z</time>
        <name>WPT.589</name>
      </trkpt>
      <trkpt lat="37.027106270" lon="-106.463894960">
        <ele>3116.500</ele>
        <time>2022-07-07T17:55:12Z</time>
        <name>WPT.590</name>
      </trkpt>
      <trkpt lat="37.027090360" lon="-106.463947160">
        <ele>3115.400</ele>
        <time>2022-07-07T17:55:16Z</time>
        <name>WPT.591</name>
      </trkpt>
      <trkpt lat="37.027072420" lon="-106.463996290">
        <ele>3115.600</ele>
        <time>2022-07-07T17:55:20Z</time>
        <name>WPT.592</name>
      </trkpt>
      <trkpt lat="37.027057250" lon="-106.464047900">
        <ele>3115.800</ele>
        <time>2022-07-07T17:55:24Z</time>
        <name>WPT.593</name>
      </trkpt>
      <trkpt lat="37.027035500" lon="-106.464097040">
        <ele>3115.700</ele>
        <time>2022-07-07T17:55:29Z</time>
        <name>WPT.594</name>
      </trkpt>
      <trkpt lat="37.027012430" lon="-106.464140870">
        <ele>3115.700</ele>
        <time>2022-07-07T17:55:33Z</time>
        <name>WPT.595</name>
      </trkpt>
      <trkpt lat="37.027009280" lon="-106.464190470">
        <ele>3115.200</ele>
        <time>2022-07-07T17:55:36Z</time>
        <name>WPT.596</name>
      </trkpt>
      <trkpt lat="37.027004500" lon="-106.464241020">
        <ele>3115.200</ele>
        <time>2022-07-07T17:55:39Z</time>
        <name>WPT.597</name>
      </trkpt>
      <trkpt lat="37.026995460" lon="-106.464284850">
        <ele>3115.200</ele>
        <time>2022-07-07T17:55:42Z</time>
        <name>WPT.598</name>
      </trkpt>
      <trkpt lat="37.026982430" lon="-106.464340460">
        <ele>3113.900</ele>
        <time>2022-07-07T17:55:46Z</time>
        <name>WPT.599</name>
      </trkpt>
      <trkpt lat="37.026969570" lon="-106.464390100">
        <ele>3113.800</ele>
        <time>2022-07-07T17:55:50Z</time>
        <name>WPT.600</name>
      </trkpt>
      <trkpt lat="37.026965530" lon="-106.464439360">
        <ele>3114.300</ele>
        <time>2022-07-07T17:55:54Z</time>
        <name>WPT.601</name>
      </trkpt>
      <trkpt lat="37.026966210" lon="-106.464486610">
        <ele>3114.800</ele>
        <time>2022-07-07T17:55:58Z</time>
        <name>WPT.602</name>
      </trkpt>
      <trkpt lat="37.026960130" lon="-106.464536210">
        <ele>3114.100</ele>
        <time>2022-07-07T17:56:04Z</time>
        <name>WPT.603</name>
      </trkpt>
      <trkpt lat="37.026953710" lon="-106.464591570">
        <ele>3110.400</ele>
        <time>2022-07-07T17:56:09Z</time>
        <name>WPT.604</name>
      </trkpt>
      <trkpt lat="37.026937000" lon="-106.464631730">
        <ele>3110.400</ele>
        <time>2022-07-07T17:56:13Z</time>
        <name>WPT.605</name>
      </trkpt>
      <trkpt lat="37.026915680" lon="-106.464669930">
        <ele>3111.700</ele>
        <time>2022-07-07T17:56:18Z</time>
        <name>WPT.606</name>
      </trkpt>
      <trkpt lat="37.026906130" lon="-106.464720580">
        <ele>3113.000</ele>
        <time>2022-07-07T17:56:23Z</time>
        <name>WPT.607</name>
      </trkpt>
      <trkpt lat="37.026912970" lon="-106.464767080">
        <ele>3114.700</ele>
        <time>2022-07-07T17:56:28Z</time>
        <name>WPT.608</name>
      </trkpt>
      <trkpt lat="37.026927690" lon="-106.464827300">
        <ele>3112.900</ele>
        <time>2022-07-07T17:56:33Z</time>
        <name>WPT.609</name>
      </trkpt>
      <trkpt lat="37.026938410" lon="-106.464871000">
        <ele>3113.400</ele>
        <time>2022-07-07T17:56:36Z</time>
        <name>WPT.610</name>
      </trkpt>
      <trkpt lat="37.026955240" lon="-106.464912270">
        <ele>3113.400</ele>
        <time>2022-07-07T17:56:39Z</time>
        <name>WPT.611</name>
      </trkpt>
      <trkpt lat="37.026976740" lon="-106.464953840">
        <ele>3114.400</ele>
        <time>2022-07-07T17:56:43Z</time>
        <name>WPT.612</name>
      </trkpt>
      <trkpt lat="37.026984050" lon="-106.465000420">
        <ele>3115.000</ele>
        <time>2022-07-07T17:56:47Z</time>
        <name>WPT.613</name>
      </trkpt>
      <trkpt lat="37.026998600" lon="-106.465054200">
        <ele>3115.600</ele>
        <time>2022-07-07T17:56:51Z</time>
        <name>WPT.614</name>
      </trkpt>
      <trkpt lat="37.027010020" lon="-106.465097740">
        <ele>3116.600</ele>
        <time>2022-07-07T17:56:55Z</time>
        <name>WPT.615</name>
      </trkpt>
      <trkpt lat="37.027030720" lon="-106.465136290">
        <ele>3115.700</ele>
        <time>2022-07-07T17:56:58Z</time>
        <name>WPT.616</name>
      </trkpt>
      <trkpt lat="37.027045810" lon="-106.465180560">
        <ele>3114.900</ele>
        <time>2022-07-07T17:57:04Z</time>
        <name>WPT.617</name>
      </trkpt>
      <trkpt lat="37.027056300" lon="-106.465231560">
        <ele>3116.900</ele>
        <time>2022-07-07T17:57:12Z</time>
        <name>WPT.618</name>
      </trkpt>
      <trkpt lat="37.027088010" lon="-106.465265340">
        <ele>3116.400</ele>
        <time>2022-07-07T17:57:16Z</time>
        <name>WPT.619</name>
      </trkpt>
      <trkpt lat="37.027118620" lon="-106.465304690">
        <ele>3117.300</ele>
        <time>2022-07-07T17:57:20Z</time>
        <name>WPT.620</name>
      </trkpt>
      <trkpt lat="37.027136190" lon="-106.465346010">
        <ele>3116.400</ele>
        <time>2022-07-07T17:57:26Z</time>
        <name>WPT.621</name>
      </trkpt>
      <trkpt lat="37.027163190" lon="-106.465381360">
        <ele>3118.500</ele>
        <time>2022-07-07T17:57:30Z</time>
        <name>WPT.622</name>
      </trkpt>
      <trkpt lat="37.027187090" lon="-106.465418200">
        <ele>3121.900</ele>
        <time>2022-07-07T17:57:33Z</time>
        <name>WPT.623</name>
      </trkpt>
      <trkpt lat="37.027224070" lon="-106.465452360">
        <ele>3120.500</ele>
        <time>2022-07-07T17:57:36Z</time>
        <name>WPT.624</name>
      </trkpt>
      <trkpt lat="37.027261450" lon="-106.465482100">
        <ele>3118.000</ele>
        <time>2022-07-07T17:57:39Z</time>
        <name>WPT.625</name>
      </trkpt>
      <trkpt lat="37.027294230" lon="-106.465513710">
        <ele>3116.100</ele>
        <time>2022-07-07T17:57:42Z</time>
        <name>WPT.626</name>
      </trkpt>
      <trkpt lat="37.027320150" lon="-106.465552550">
        <ele>3116.100</ele>
        <time>2022-07-07T17:57:46Z</time>
        <name>WPT.627</name>
      </trkpt>
      <trkpt lat="37.027338180" lon="-106.465600330">
        <ele>3115.500</ele>
        <time>2022-07-07T17:57:51Z</time>
        <name>WPT.628</name>
      </trkpt>
      <trkpt lat="37.027364410" lon="-106.465637040">
        <ele>3114.700</ele>
        <time>2022-07-07T17:57:54Z</time>
        <name>WPT.629</name>
      </trkpt>
      <trkpt lat="37.027384580" lon="-106.465681650">
        <ele>3112.500</ele>
        <time>2022-07-07T17:58:00Z</time>
        <name>WPT.630</name>
      </trkpt>
      <trkpt lat="37.027402580" lon="-106.465722720">
        <ele>3112.800</ele>
        <time>2022-07-07T17:58:05Z</time>
        <name>WPT.631</name>
      </trkpt>
      <trkpt lat="37.027435430" lon="-106.465750100">
        <ele>3112.700</ele>
        <time>2022-07-07T17:58:29Z</time>
        <name>WPT.632</name>
      </trkpt>
      <trkpt lat="37.027462990" lon="-106.465781220">
        <ele>3110.000</ele>
        <time>2022-07-07T17:58:46Z</time>
        <name>WPT.633</name>
      </trkpt>
      <trkpt lat="37.027424110" lon="-106.465795040">
        <ele>3115.100</ele>
        <time>2022-07-07T17:58:52Z</time>
        <name>WPT.634</name>
      </trkpt>
      <trkpt lat="37.027404470" lon="-106.465837030">
        <ele>3116.100</ele>
        <time>2022-07-07T17:58:57Z</time>
        <name>WPT.635</name>
      </trkpt>
      <trkpt lat="37.027383040" lon="-106.465873480">
        <ele>3114.200</ele>
        <time>2022-07-07T17:59:00Z</time>
        <name>WPT.636</name>
      </trkpt>
      <trkpt lat="37.027359150" lon="-106.465916310">
        <ele>3114.100</ele>
        <time>2022-07-07T17:59:03Z</time>
        <name>WPT.637</name>
      </trkpt>
      <trkpt lat="37.027327080" lon="-106.465945470">
        <ele>3115.200</ele>
        <time>2022-07-07T17:59:10Z</time>
        <name>WPT.638</name>
      </trkpt>
      <trkpt lat="37.027318450" lon="-106.465993560">
        <ele>3115.400</ele>
        <time>2022-07-07T17:59:13Z</time>
        <name>WPT.639</name>
      </trkpt>
      <trkpt lat="37.027308510" lon="-106.466038090">
        <ele>3115.700</ele>
        <time>2022-07-07T17:59:17Z</time>
        <name>WPT.640</name>
      </trkpt>
      <trkpt lat="37.027302480" lon="-106.466093820">
        <ele>3112.600</ele>
        <time>2022-07-07T17:59:23Z</time>
        <name>WPT.641</name>
      </trkpt>
      <trkpt lat="37.027307200" lon="-106.466138410">
        <ele>3111.400</ele>
        <time>2022-07-07T17:59:25Z</time>
        <name>WPT.642</name>
      </trkpt>
      <trkpt lat="37.027326420" lon="-106.466185070">
        <ele>3109.900</ele>
        <time>2022-07-07T17:59:30Z</time>
        <name>WPT.643</name>
      </trkpt>
      <trkpt lat="37.027341660" lon="-106.466228320">
        <ele>3112.300</ele>
        <time>2022-07-07T17:59:34Z</time>
        <name>WPT.644</name>
      </trkpt>
      <trkpt lat="37.027351470" lon="-106.466273500">
        <ele>3113.600</ele>
        <time>2022-07-07T17:59:38Z</time>
        <name>WPT.645</name>
      </trkpt>
      <trkpt lat="37.027376750" lon="-106.466306900">
        <ele>3115.300</ele>
        <time>2022-07-07T17:59:41Z</time>
        <name>WPT.646</name>
      </trkpt>
      <trkpt lat="37.027403800" lon="-106.466345420">
        <ele>3115.400</ele>
        <time>2022-07-07T17:59:46Z</time>
        <name>WPT.647</name>
      </trkpt>
      <trkpt lat="37.027436430" lon="-106.466372790">
        <ele>3117.200</ele>
        <time>2022-07-07T17:59:51Z</time>
        <name>WPT.648</name>
      </trkpt>
      <trkpt lat="37.027455190" lon="-106.466417750">
        <ele>3116.900</ele>
        <time>2022-07-07T17:59:56Z</time>
        <name>WPT.649</name>
      </trkpt>
      <trkpt lat="37.027464880" lon="-106.466472250">
        <ele>3116.300</ele>
        <time>2022-07-07T18:00:01Z</time>
        <name>WPT.650</name>
      </trkpt>
      <trkpt lat="37.027467840" lon="-106.466520340">
        <ele>3116.000</ele>
        <time>2022-07-07T18:00:07Z</time>
        <name>WPT.651</name>
      </trkpt>
      <trkpt lat="37.027459760" lon="-106.466565990">
        <ele>3117.700</ele>
        <time>2022-07-07T18:00:14Z</time>
        <name>WPT.652</name>
      </trkpt>
      <trkpt lat="37.027456130" lon="-106.466627700">
        <ele>3116.200</ele>
        <time>2022-07-07T18:00:18Z</time>
        <name>WPT.653</name>
      </trkpt>
      <trkpt lat="37.027460450" lon="-106.466678520">
        <ele>3117.100</ele>
        <time>2022-07-07T18:00:22Z</time>
        <name>WPT.654</name>
      </trkpt>
      <trkpt lat="37.027466820" lon="-106.466728070">
        <ele>3115.400</ele>
        <time>2022-07-07T18:00:25Z</time>
        <name>WPT.655</name>
      </trkpt>
      <trkpt lat="37.027471800" lon="-106.466782270">
        <ele>3115.600</ele>
        <time>2022-07-07T18:00:29Z</time>
        <name>WPT.656</name>
      </trkpt>
      <trkpt lat="37.027469800" lon="-106.466827910">
        <ele>3116.100</ele>
        <time>2022-07-07T18:00:35Z</time>
        <name>WPT.657</name>
      </trkpt>
      <trkpt lat="37.027479860" lon="-106.466874790">
        <ele>3115.100</ele>
        <time>2022-07-07T18:00:38Z</time>
        <name>WPT.658</name>
      </trkpt>
      <trkpt lat="37.027481690" lon="-106.466923260">
        <ele>3115.000</ele>
        <time>2022-07-07T18:00:44Z</time>
        <name>WPT.659</name>
      </trkpt>
      <trkpt lat="37.027477450" lon="-106.466972440">
        <ele>3117.300</ele>
        <time>2022-07-07T18:00:48Z</time>
        <name>WPT.660</name>
      </trkpt>
      <trkpt lat="37.027496220" lon="-106.467021700">
        <ele>3118.000</ele>
        <time>2022-07-07T18:00:51Z</time>
        <name>WPT.661</name>
      </trkpt>
      <trkpt lat="37.027505850" lon="-106.467085500">
        <ele>3117.400</ele>
        <time>2022-07-07T18:00:55Z</time>
        <name>WPT.662</name>
      </trkpt>
      <trkpt lat="37.027502470" lon="-106.467135820">
        <ele>3117.600</ele>
        <time>2022-07-07T18:00:58Z</time>
        <name>WPT.663</name>
      </trkpt>
      <trkpt lat="37.027490980" lon="-106.467195730">
        <ele>3117.400</ele>
        <time>2022-07-07T18:01:02Z</time>
        <name>WPT.664</name>
      </trkpt>
      <trkpt lat="37.027486050" lon="-106.467248030">
        <ele>3119.500</ele>
        <time>2022-07-07T18:01:06Z</time>
        <name>WPT.665</name>
      </trkpt>
      <trkpt lat="37.027469240" lon="-106.467288500">
        <ele>3118.300</ele>
        <time>2022-07-07T18:01:11Z</time>
        <name>WPT.666</name>
      </trkpt>
      <trkpt lat="37.027454980" lon="-106.467348060">
        <ele>3118.300</ele>
        <time>2022-07-07T18:01:15Z</time>
        <name>WPT.667</name>
      </trkpt>
      <trkpt lat="37.027438740" lon="-106.467393260">
        <ele>3119.200</ele>
        <time>2022-07-07T18:01:20Z</time>
        <name>WPT.668</name>
      </trkpt>
      <trkpt lat="37.027432140" lon="-106.467445820">
        <ele>3117.600</ele>
        <time>2022-07-07T18:01:23Z</time>
        <name>WPT.669</name>
      </trkpt>
      <trkpt lat="37.027435610" lon="-106.467498280">
        <ele>3116.500</ele>
        <time>2022-07-07T18:01:26Z</time>
        <name>WPT.670</name>
      </trkpt>
      <trkpt lat="37.027437770" lon="-106.467551420">
        <ele>3115.900</ele>
        <time>2022-07-07T18:01:31Z</time>
        <name>WPT.671</name>
      </trkpt>
      <trkpt lat="37.027443630" lon="-106.467603980">
        <ele>3118.700</ele>
        <time>2022-07-07T18:01:35Z</time>
        <name>WPT.672</name>
      </trkpt>
      <trkpt lat="37.027458050" lon="-106.467656570">
        <ele>3120.900</ele>
        <time>2022-07-07T18:01:40Z</time>
        <name>WPT.673</name>
      </trkpt>
      <trkpt lat="37.027468340" lon="-106.467701940">
        <ele>3119.600</ele>
        <time>2022-07-07T18:01:43Z</time>
        <name>WPT.674</name>
      </trkpt>
      <trkpt lat="37.027467590" lon="-106.467756260">
        <ele>3120.900</ele>
        <time>2022-07-07T18:01:47Z</time>
        <name>WPT.675</name>
      </trkpt>
      <trkpt lat="37.027472670" lon="-106.467808700">
        <ele>3122.100</ele>
        <time>2022-07-07T18:01:52Z</time>
        <name>WPT.676</name>
      </trkpt>
      <trkpt lat="37.027504070" lon="-106.467858200">
        <ele>3120.700</ele>
        <time>2022-07-07T18:01:56Z</time>
        <name>WPT.677</name>
      </trkpt>
      <trkpt lat="37.027526830" lon="-106.467894730">
        <ele>3119.800</ele>
        <time>2022-07-07T18:01:59Z</time>
        <name>WPT.678</name>
      </trkpt>
      <trkpt lat="37.027534830" lon="-106.467952770">
        <ele>3120.300</ele>
        <time>2022-07-07T18:02:04Z</time>
        <name>WPT.679</name>
      </trkpt>
      <trkpt lat="37.027520680" lon="-106.468000790">
        <ele>3120.400</ele>
        <time>2022-07-07T18:02:09Z</time>
        <name>WPT.680</name>
      </trkpt>
      <trkpt lat="37.027521000" lon="-106.468049710">
        <ele>3120.600</ele>
        <time>2022-07-07T18:02:14Z</time>
        <name>WPT.681</name>
      </trkpt>
      <trkpt lat="37.027551120" lon="-106.468100390">
        <ele>3120.700</ele>
        <time>2022-07-07T18:02:19Z</time>
        <name>WPT.682</name>
      </trkpt>
      <trkpt lat="37.027565090" lon="-106.468149570">
        <ele>3120.800</ele>
        <time>2022-07-07T18:02:23Z</time>
        <name>WPT.683</name>
      </trkpt>
      <trkpt lat="37.027590240" lon="-106.468190040">
        <ele>3121.200</ele>
        <time>2022-07-07T18:02:27Z</time>
        <name>WPT.684</name>
      </trkpt>
      <trkpt lat="37.027602570" lon="-106.468237530">
        <ele>3120.100</ele>
        <time>2022-07-07T18:02:38Z</time>
        <name>WPT.685</name>
      </trkpt>
      <trkpt lat="37.027635850" lon="-106.468278930">
        <ele>3116.100</ele>
        <time>2022-07-07T18:02:43Z</time>
        <name>WPT.686</name>
      </trkpt>
      <trkpt lat="37.027653470" lon="-106.468321050">
        <ele>3117.600</ele>
        <time>2022-07-07T18:02:49Z</time>
        <name>WPT.687</name>
      </trkpt>
      <trkpt lat="37.027656790" lon="-106.468368000">
        <ele>3115.700</ele>
        <time>2022-07-07T18:02:54Z</time>
        <name>WPT.688</name>
      </trkpt>
      <trkpt lat="37.027692280" lon="-106.468404980">
        <ele>3112.200</ele>
        <time>2022-07-07T18:03:18Z</time>
        <name>WPT.689</name>
      </trkpt>
      <trkpt lat="37.027724510" lon="-106.468443520">
        <ele>3111.500</ele>
        <time>2022-07-07T18:03:22Z</time>
        <name>WPT.690</name>
      </trkpt>
      <trkpt lat="37.027752190" lon="-106.468475310">
        <ele>3111.200</ele>
        <time>2022-07-07T18:03:25Z</time>
        <name>WPT.691</name>
      </trkpt>
      <trkpt lat="37.027777630" lon="-106.468513100">
        <ele>3113.300</ele>
        <time>2022-07-07T18:03:30Z</time>
        <name>WPT.692</name>
      </trkpt>
      <trkpt lat="37.027790750" lon="-106.468558170">
        <ele>3113.000</ele>
        <time>2022-07-07T18:03:34Z</time>
        <name>WPT.693</name>
      </trkpt>
      <trkpt lat="37.027817930" lon="-106.468590750">
        <ele>3117.400</ele>
        <time>2022-07-07T18:03:39Z</time>
        <name>WPT.694</name>
      </trkpt>
      <trkpt lat="37.027839500" lon="-106.468627450">
        <ele>3118.500</ele>
        <time>2022-07-07T18:03:42Z</time>
        <name>WPT.695</name>
      </trkpt>
      <trkpt lat="37.027869720" lon="-106.468658420">
        <ele>3119.200</ele>
        <time>2022-07-07T18:03:46Z</time>
        <name>WPT.696</name>
      </trkpt>
      <trkpt lat="37.027896760" lon="-106.468697500">
        <ele>3120.900</ele>
        <time>2022-07-07T18:03:51Z</time>
        <name>WPT.697</name>
      </trkpt>
      <trkpt lat="37.027929870" lon="-106.468723200">
        <ele>3118.400</ele>
        <time>2022-07-07T18:03:55Z</time>
        <name>WPT.698</name>
      </trkpt>
      <trkpt lat="37.027964220" lon="-106.468752190">
        <ele>3118.100</ele>
        <time>2022-07-07T18:03:58Z</time>
        <name>WPT.699</name>
      </trkpt>
      <trkpt lat="37.027992530" lon="-106.468786660">
        <ele>3118.100</ele>
        <time>2022-07-07T18:04:01Z</time>
        <name>WPT.700</name>
      </trkpt>
      <trkpt lat="37.028014500" lon="-106.468826390">
        <ele>3119.800</ele>
        <time>2022-07-07T18:04:07Z</time>
        <name>WPT.701</name>
      </trkpt>
      <trkpt lat="37.028031000" lon="-106.468870060">
        <ele>3116.700</ele>
        <time>2022-07-07T18:04:54Z</time>
        <name>WPT.702</name>
      </trkpt>
      <trkpt lat="37.028021070" lon="-106.468922130">
        <ele>3115.900</ele>
        <time>2022-07-07T18:05:01Z</time>
        <name>WPT.703</name>
      </trkpt>
      <trkpt lat="37.027993610" lon="-106.468956410">
        <ele>3114.600</ele>
        <time>2022-07-07T18:05:08Z</time>
        <name>WPT.704</name>
      </trkpt>
      <trkpt lat="37.027974670" lon="-106.468995870">
        <ele>3115.000</ele>
        <time>2022-07-07T18:05:17Z</time>
        <name>WPT.705</name>
      </trkpt>
      <trkpt lat="37.027960060" lon="-106.469040720">
        <ele>3118.900</ele>
        <time>2022-07-07T18:05:24Z</time>
        <name>WPT.706</name>
      </trkpt>
      <trkpt lat="37.027925080" lon="-106.469078180">
        <ele>3117.100</ele>
        <time>2022-07-07T18:05:28Z</time>
        <name>WPT.707</name>
      </trkpt>
      <trkpt lat="37.027911640" lon="-106.469121810">
        <ele>3115.100</ele>
        <time>2022-07-07T18:05:32Z</time>
        <name>WPT.708</name>
      </trkpt>
      <trkpt lat="37.027914330" lon="-106.469171350">
        <ele>3115.400</ele>
        <time>2022-07-07T18:05:35Z</time>
        <name>WPT.709</name>
      </trkpt>
      <trkpt lat="37.027929240" lon="-106.469218740">
        <ele>3114.300</ele>
        <time>2022-07-07T18:05:38Z</time>
        <name>WPT.710</name>
      </trkpt>
      <trkpt lat="37.027940120" lon="-106.469272620">
        <ele>3110.700</ele>
        <time>2022-07-07T18:05:41Z</time>
        <name>WPT.711</name>
      </trkpt>
      <trkpt lat="37.027954080" lon="-106.469323120">
        <ele>3111.400</ele>
        <time>2022-07-07T18:05:44Z</time>
        <name>WPT.712</name>
      </trkpt>
      <trkpt lat="37.027990100" lon="-106.469357920">
        <ele>3110.700</ele>
        <time>2022-07-07T18:05:47Z</time>
        <name>WPT.713</name>
      </trkpt>
      <trkpt lat="37.028017170" lon="-106.469393460">
        <ele>3109.300</ele>
        <time>2022-07-07T18:05:50Z</time>
        <name>WPT.714</name>
      </trkpt>
      <trkpt lat="37.028045120" lon="-106.469429080">
        <ele>3109.400</ele>
        <time>2022-07-07T18:05:53Z</time>
        <name>WPT.715</name>
      </trkpt>
      <trkpt lat="37.028077080" lon="-106.469472310">
        <ele>3110.400</ele>
        <time>2022-07-07T18:05:57Z</time>
        <name>WPT.716</name>
      </trkpt>
      <trkpt lat="37.028097720" lon="-106.469511710">
        <ele>3109.300</ele>
        <time>2022-07-07T18:06:01Z</time>
        <name>WPT.717</name>
      </trkpt>
      <trkpt lat="37.028118440" lon="-106.469557460">
        <ele>3109.200</ele>
        <time>2022-07-07T18:06:05Z</time>
        <name>WPT.718</name>
      </trkpt>
      <trkpt lat="37.028113700" lon="-106.469614070">
        <ele>3111.600</ele>
        <time>2022-07-07T18:06:09Z</time>
        <name>WPT.719</name>
      </trkpt>
      <trkpt lat="37.028107140" lon="-106.469661110">
        <ele>3111.000</ele>
        <time>2022-07-07T18:06:13Z</time>
        <name>WPT.720</name>
      </trkpt>
      <trkpt lat="37.028094960" lon="-106.469704700">
        <ele>3109.300</ele>
        <time>2022-07-07T18:06:18Z</time>
        <name>WPT.721</name>
      </trkpt>
      <trkpt lat="37.028073300" lon="-106.469744330">
        <ele>3109.600</ele>
        <time>2022-07-07T18:06:23Z</time>
        <name>WPT.722</name>
      </trkpt>
      <trkpt lat="37.028045270" lon="-106.469785600">
        <ele>3109.000</ele>
        <time>2022-07-07T18:06:29Z</time>
        <name>WPT.723</name>
      </trkpt>
      <trkpt lat="37.028008660" lon="-106.469809840">
        <ele>3108.400</ele>
        <time>2022-07-07T18:06:33Z</time>
        <name>WPT.724</name>
      </trkpt>
      <trkpt lat="37.027966650" lon="-106.469818230">
        <ele>3105.800</ele>
        <time>2022-07-07T18:06:38Z</time>
        <name>WPT.725</name>
      </trkpt>
      <trkpt lat="37.027931060" lon="-106.469809900">
        <ele>3105.800</ele>
        <time>2022-07-07T18:06:42Z</time>
        <name>WPT.726</name>
      </trkpt>
      <trkpt lat="37.027896320" lon="-106.469788820">
        <ele>3107.100</ele>
        <time>2022-07-07T18:06:47Z</time>
        <name>WPT.727</name>
      </trkpt>
      <trkpt lat="37.027860640" lon="-106.469779030">
        <ele>3107.200</ele>
        <time>2022-07-07T18:06:53Z</time>
        <name>WPT.728</name>
      </trkpt>
      <trkpt lat="37.027832790" lon="-106.469809740">
        <ele>3102.100</ele>
        <time>2022-07-07T18:07:06Z</time>
        <name>WPT.729</name>
      </trkpt>
      <trkpt lat="37.027825420" lon="-106.469858640">
        <ele>3101.500</ele>
        <time>2022-07-07T18:07:13Z</time>
        <name>WPT.730</name>
      </trkpt>
      <trkpt lat="37.027840240" lon="-106.469899720">
        <ele>3101.400</ele>
        <time>2022-07-07T18:07:19Z</time>
        <name>WPT.731</name>
      </trkpt>
      <trkpt lat="37.027856160" lon="-106.469948860">
        <ele>3100.000</ele>
        <time>2022-07-07T18:07:26Z</time>
        <name>WPT.732</name>
      </trkpt>
      <trkpt lat="37.027879300" lon="-106.469985060">
        <ele>3098.600</ele>
        <time>2022-07-07T18:07:31Z</time>
        <name>WPT.733</name>
      </trkpt>
      <trkpt lat="37.027896440" lon="-106.470024650">
        <ele>3097.500</ele>
        <time>2022-07-07T18:07:35Z</time>
        <name>WPT.734</name>
      </trkpt>
      <trkpt lat="37.027910290" lon="-106.470074470">
        <ele>3097.700</ele>
        <time>2022-07-07T18:07:42Z</time>
        <name>WPT.735</name>
      </trkpt>
      <trkpt lat="37.027920220" lon="-106.470121780">
        <ele>3099.800</ele>
        <time>2022-07-07T18:07:46Z</time>
        <name>WPT.736</name>
      </trkpt>
      <trkpt lat="37.027928020" lon="-106.470171390">
        <ele>3098.500</ele>
        <time>2022-07-07T18:07:50Z</time>
        <name>WPT.737</name>
      </trkpt>
      <trkpt lat="37.027939110" lon="-106.470223690">
        <ele>3098.600</ele>
        <time>2022-07-07T18:07:58Z</time>
        <name>WPT.738</name>
      </trkpt>
      <trkpt lat="37.027970930" lon="-106.470264150">
        <ele>3097.700</ele>
        <time>2022-07-07T18:08:02Z</time>
        <name>WPT.739</name>
      </trkpt>
      <trkpt lat="37.027995180" lon="-106.470303690">
        <ele>3099.600</ele>
        <time>2022-07-07T18:08:06Z</time>
        <name>WPT.740</name>
      </trkpt>
      <trkpt lat="37.028021430" lon="-106.470335300">
        <ele>3099.500</ele>
        <time>2022-07-07T18:08:09Z</time>
        <name>WPT.741</name>
      </trkpt>
      <trkpt lat="37.028045060" lon="-106.470376920">
        <ele>3099.800</ele>
        <time>2022-07-07T18:08:17Z</time>
        <name>WPT.742</name>
      </trkpt>
      <trkpt lat="37.028076460" lon="-106.470412000">
        <ele>3099.200</ele>
        <time>2022-07-07T18:08:20Z</time>
        <name>WPT.743</name>
      </trkpt>
      <trkpt lat="37.028106720" lon="-106.470438060">
        <ele>3098.800</ele>
        <time>2022-07-07T18:08:24Z</time>
        <name>WPT.744</name>
      </trkpt>
      <trkpt lat="37.028129130" lon="-106.470478310">
        <ele>3100.300</ele>
        <time>2022-07-07T18:08:29Z</time>
        <name>WPT.745</name>
      </trkpt>
      <trkpt lat="37.028148840" lon="-106.470516040">
        <ele>3100.900</ele>
        <time>2022-07-07T18:08:37Z</time>
        <name>WPT.746</name>
      </trkpt>
      <trkpt lat="37.028185830" lon="-106.470512570">
        <ele>3098.200</ele>
        <time>2022-07-07T18:09:32Z</time>
        <name>WPT.747</name>
      </trkpt>
      <trkpt lat="37.028191310" lon="-106.470558260">
        <ele>3098.900</ele>
        <time>2022-07-07T18:09:41Z</time>
        <name>WPT.748</name>
      </trkpt>
      <trkpt lat="37.028212850" lon="-106.470595420">
        <ele>3100.800</ele>
        <time>2022-07-07T18:09:56Z</time>
        <name>WPT.749</name>
      </trkpt>
      <trkpt lat="37.028240960" lon="-106.470626900">
        <ele>3099.700</ele>
        <time>2022-07-07T18:10:04Z</time>
        <name>WPT.750</name>
      </trkpt>
      <trkpt lat="37.028277140" lon="-106.470659250">
        <ele>3098.400</ele>
        <time>2022-07-07T18:10:15Z</time>
        <name>WPT.751</name>
      </trkpt>
      <trkpt lat="37.028304260" lon="-106.470692310">
        <ele>3101.400</ele>
        <time>2022-07-07T18:10:20Z</time>
        <name>WPT.752</name>
      </trkpt>
      <trkpt lat="37.028331160" lon="-106.470726070">
        <ele>3105.300</ele>
        <time>2022-07-07T18:10:26Z</time>
        <name>WPT.753</name>
      </trkpt>
      <trkpt lat="37.028351860" lon="-106.470763110">
        <ele>3109.200</ele>
        <time>2022-07-07T18:10:32Z</time>
        <name>WPT.754</name>
      </trkpt>
      <trkpt lat="37.028383640" lon="-106.470789020">
        <ele>3111.100</ele>
        <time>2022-07-07T18:10:38Z</time>
        <name>WPT.755</name>
      </trkpt>
      <trkpt lat="37.028411950" lon="-106.470818890">
        <ele>3112.700</ele>
        <time>2022-07-07T18:10:48Z</time>
        <name>WPT.756</name>
      </trkpt>
      <trkpt lat="37.028455470" lon="-106.470807580">
        <ele>3111.600</ele>
        <time>2022-07-07T18:10:55Z</time>
        <name>WPT.757</name>
      </trkpt>
      <trkpt lat="37.028491910" lon="-106.470831640">
        <ele>3112.700</ele>
        <time>2022-07-07T18:10:58Z</time>
        <name>WPT.758</name>
      </trkpt>
      <trkpt lat="37.028522510" lon="-106.470858300">
        <ele>3113.400</ele>
        <time>2022-07-07T18:11:03Z</time>
        <name>WPT.759</name>
      </trkpt>
      <trkpt lat="37.028563690" lon="-106.470864810">
        <ele>3113.900</ele>
        <time>2022-07-07T18:11:09Z</time>
        <name>WPT.760</name>
      </trkpt>
      <trkpt lat="37.028596250" lon="-106.470889020">
        <ele>3114.200</ele>
        <time>2022-07-07T18:11:15Z</time>
        <name>WPT.761</name>
      </trkpt>
      <trkpt lat="37.028627870" lon="-106.470914760">
        <ele>3113.100</ele>
        <time>2022-07-07T18:11:18Z</time>
        <name>WPT.762</name>
      </trkpt>
      <trkpt lat="37.028657120" lon="-106.470941560">
        <ele>3111.900</ele>
        <time>2022-07-07T18:11:20Z</time>
        <name>WPT.763</name>
      </trkpt>
      <trkpt lat="37.028691610" lon="-106.470973420">
        <ele>3116.600</ele>
        <time>2022-07-07T18:11:25Z</time>
        <name>WPT.764</name>
      </trkpt>
      <trkpt lat="37.028712810" lon="-106.471019130">
        <ele>3115.700</ele>
        <time>2022-07-07T18:11:28Z</time>
        <name>WPT.765</name>
      </trkpt>
      <trkpt lat="37.028665830" lon="-106.471018090">
        <ele>3106.600</ele>
        <time>2022-07-07T18:12:18Z</time>
        <name>WPT.766</name>
      </trkpt>
      <trkpt lat="37.028627090" lon="-106.470986650">
        <ele>3105.900</ele>
        <time>2022-07-07T18:12:23Z</time>
        <name>WPT.767</name>
      </trkpt>
      <trkpt lat="37.028591260" lon="-106.470972920">
        <ele>3106.400</ele>
        <time>2022-07-07T18:12:27Z</time>
        <name>WPT.768</name>
      </trkpt>
      <trkpt lat="37.028550680" lon="-106.470969970">
        <ele>3104.100</ele>
        <time>2022-07-07T18:12:31Z</time>
        <name>WPT.769</name>
      </trkpt>
      <trkpt lat="37.028513680" lon="-106.470950420">
        <ele>3106.700</ele>
        <time>2022-07-07T18:12:35Z</time>
        <name>WPT.770</name>
      </trkpt>
      <trkpt lat="37.028470740" lon="-106.470935410">
        <ele>3106.700</ele>
        <time>2022-07-07T18:12:40Z</time>
        <name>WPT.771</name>
      </trkpt>
      <trkpt lat="37.028428530" lon="-106.470920890">
        <ele>3106.900</ele>
        <time>2022-07-07T18:12:46Z</time>
        <name>WPT.772</name>
      </trkpt>
      <trkpt lat="37.028395450" lon="-106.470938950">
        <ele>3109.300</ele>
        <time>2022-07-07T18:12:57Z</time>
        <name>WPT.773</name>
      </trkpt>
      <trkpt lat="37.028340430" lon="-106.470961290">
        <ele>3107.400</ele>
        <time>2022-07-07T18:13:02Z</time>
        <name>WPT.774</name>
      </trkpt>
      <trkpt lat="37.028302500" lon="-106.470964830">
        <ele>3107.700</ele>
        <time>2022-07-07T18:13:04Z</time>
        <name>WPT.775</name>
      </trkpt>
      <trkpt lat="37.028263680" lon="-106.470975760">
        <ele>3108.500</ele>
        <time>2022-07-07T18:13:07Z</time>
        <name>WPT.776</name>
      </trkpt>
      <trkpt lat="37.028219390" lon="-106.470979170">
        <ele>3109.200</ele>
        <time>2022-07-07T18:13:12Z</time>
        <name>WPT.777</name>
      </trkpt>
      <trkpt lat="37.028183450" lon="-106.470963500">
        <ele>3112.900</ele>
        <time>2022-07-07T18:13:18Z</time>
        <name>WPT.778</name>
      </trkpt>
      <trkpt lat="37.028136180" lon="-106.470962520">
        <ele>3113.100</ele>
        <time>2022-07-07T18:13:25Z</time>
        <name>WPT.779</name>
      </trkpt>
      <trkpt lat="37.028102090" lon="-106.470995640">
        <ele>3109.300</ele>
        <time>2022-07-07T18:13:27Z</time>
        <name>WPT.780</name>
      </trkpt>
      <trkpt lat="37.028082510" lon="-106.471036490">
        <ele>3110.300</ele>
        <time>2022-07-07T18:13:32Z</time>
        <name>WPT.781</name>
      </trkpt>
      <trkpt lat="37.028094360" lon="-106.471082310">
        <ele>3111.100</ele>
        <time>2022-07-07T18:13:36Z</time>
        <name>WPT.782</name>
      </trkpt>
      <trkpt lat="37.028083060" lon="-106.471125940">
        <ele>3113.100</ele>
        <time>2022-07-07T18:13:43Z</time>
        <name>WPT.783</name>
      </trkpt>
      <trkpt lat="37.028044220" lon="-106.471142320">
        <ele>3111.100</ele>
        <time>2022-07-07T18:13:54Z</time>
        <name>WPT.784</name>
      </trkpt>
      <trkpt lat="37.028001820" lon="-106.471148830">
        <ele>3111.300</ele>
        <time>2022-07-07T18:13:59Z</time>
        <name>WPT.785</name>
      </trkpt>
      <trkpt lat="37.027964980" lon="-106.471143020">
        <ele>3111.900</ele>
        <time>2022-07-07T18:14:05Z</time>
        <name>WPT.786</name>
      </trkpt>
      <trkpt lat="37.027924040" lon="-106.471136760">
        <ele>3111.200</ele>
        <time>2022-07-07T18:14:09Z</time>
        <name>WPT.787</name>
      </trkpt>
      <trkpt lat="37.027887350" lon="-106.471133710">
        <ele>3112.600</ele>
        <time>2022-07-07T18:14:15Z</time>
        <name>WPT.788</name>
      </trkpt>
      <trkpt lat="37.027845760" lon="-106.471112550">
        <ele>3113.700</ele>
        <time>2022-07-07T18:14:25Z</time>
        <name>WPT.789</name>
      </trkpt>
      <trkpt lat="37.027814770" lon="-106.471073680">
        <ele>3112.400</ele>
        <time>2022-07-07T18:14:29Z</time>
        <name>WPT.790</name>
      </trkpt>
      <trkpt lat="37.027800940" lon="-106.471031540">
        <ele>3111.800</ele>
        <time>2022-07-07T18:14:34Z</time>
        <name>WPT.791</name>
      </trkpt>
      <trkpt lat="37.027785930" lon="-106.470989850">
        <ele>3112.300</ele>
        <time>2022-07-07T18:14:38Z</time>
        <name>WPT.792</name>
      </trkpt>
      <trkpt lat="37.027751830" lon="-106.470973590">
        <ele>3113.600</ele>
        <time>2022-07-07T18:14:42Z</time>
        <name>WPT.793</name>
      </trkpt>
      <trkpt lat="37.027719730" lon="-106.470940500">
        <ele>3116.500</ele>
        <time>2022-07-07T18:14:46Z</time>
        <name>WPT.794</name>
      </trkpt>
      <trkpt lat="37.027685340" lon="-106.470908080">
        <ele>3115.300</ele>
        <time>2022-07-07T18:14:50Z</time>
        <name>WPT.795</name>
      </trkpt>
      <trkpt lat="37.027645280" lon="-106.470877800">
        <ele>3114.900</ele>
        <time>2022-07-07T18:14:54Z</time>
        <name>WPT.796</name>
      </trkpt>
      <trkpt lat="37.027609200" lon="-106.470861730">
        <ele>3113.600</ele>
        <time>2022-07-07T18:14:57Z</time>
        <name>WPT.797</name>
      </trkpt>
      <trkpt lat="37.027579350" lon="-106.470827160">
        <ele>3115.700</ele>
        <time>2022-07-07T18:15:02Z</time>
        <name>WPT.798</name>
      </trkpt>
      <trkpt lat="37.027537500" lon="-106.470831470">
        <ele>3114.800</ele>
        <time>2022-07-07T18:15:08Z</time>
        <name>WPT.799</name>
      </trkpt>
      <trkpt lat="37.027507560" lon="-106.470864600">
        <ele>3113.300</ele>
        <time>2022-07-07T18:15:14Z</time>
        <name>WPT.800</name>
      </trkpt>
      <trkpt lat="37.027468360" lon="-106.470889460">
        <ele>3109.300</ele>
        <time>2022-07-07T18:15:19Z</time>
        <name>WPT.801</name>
      </trkpt>
      <trkpt lat="37.027430380" lon="-106.470890440">
        <ele>3109.100</ele>
        <time>2022-07-07T18:15:48Z</time>
        <name>WPT.802</name>
      </trkpt>
      <trkpt lat="37.027399310" lon="-106.470913360">
        <ele>3109.800</ele>
        <time>2022-07-07T18:15:57Z</time>
        <name>WPT.803</name>
      </trkpt>
      <trkpt lat="37.027366560" lon="-106.470948740">
        <ele>3109.900</ele>
        <time>2022-07-07T18:16:03Z</time>
        <name>WPT.804</name>
      </trkpt>
      <trkpt lat="37.027350290" lon="-106.470991730">
        <ele>3109.100</ele>
        <time>2022-07-07T18:16:08Z</time>
        <name>WPT.805</name>
      </trkpt>
      <trkpt lat="37.027321320" lon="-106.471034630">
        <ele>3109.500</ele>
        <time>2022-07-07T18:16:13Z</time>
        <name>WPT.806</name>
      </trkpt>
      <trkpt lat="37.027288600" lon="-106.471065540">
        <ele>3110.000</ele>
        <time>2022-07-07T18:16:17Z</time>
        <name>WPT.807</name>
      </trkpt>
      <trkpt lat="37.027263170" lon="-106.471097610">
        <ele>3109.900</ele>
        <time>2022-07-07T18:16:20Z</time>
        <name>WPT.808</name>
      </trkpt>
      <trkpt lat="37.027224080" lon="-106.471123860">
        <ele>3108.700</ele>
        <time>2022-07-07T18:16:32Z</time>
        <name>WPT.809</name>
      </trkpt>
      <trkpt lat="37.027193050" lon="-106.471161440">
        <ele>3110.500</ele>
        <time>2022-07-07T18:16:37Z</time>
        <name>WPT.810</name>
      </trkpt>
      <trkpt lat="37.027156230" lon="-106.471182000">
        <ele>3112.400</ele>
        <time>2022-07-07T18:16:42Z</time>
        <name>WPT.811</name>
      </trkpt>
      <trkpt lat="37.027114200" lon="-106.471202640">
        <ele>3113.600</ele>
        <time>2022-07-07T18:16:47Z</time>
        <name>WPT.812</name>
      </trkpt>
      <trkpt lat="37.027075060" lon="-106.471226390">
        <ele>3115.400</ele>
        <time>2022-07-07T18:16:53Z</time>
        <name>WPT.813</name>
      </trkpt>
      <trkpt lat="37.027034690" lon="-106.471241340">
        <ele>3116.000</ele>
        <time>2022-07-07T18:16:57Z</time>
        <name>WPT.814</name>
      </trkpt>
      <trkpt lat="37.026995570" lon="-106.471254400">
        <ele>3117.100</ele>
        <time>2022-07-07T18:17:01Z</time>
        <name>WPT.815</name>
      </trkpt>
      <trkpt lat="37.026970800" lon="-106.471289920">
        <ele>3115.600</ele>
        <time>2022-07-07T18:17:04Z</time>
        <name>WPT.816</name>
      </trkpt>
      <trkpt lat="37.026943390" lon="-106.471325760">
        <ele>3116.200</ele>
        <time>2022-07-07T18:17:08Z</time>
        <name>WPT.817</name>
      </trkpt>
      <trkpt lat="37.026906590" lon="-106.471357330">
        <ele>3115.300</ele>
        <time>2022-07-07T18:17:13Z</time>
        <name>WPT.818</name>
      </trkpt>
      <trkpt lat="37.026889740" lon="-106.471406200">
        <ele>3116.300</ele>
        <time>2022-07-07T18:17:18Z</time>
        <name>WPT.819</name>
      </trkpt>
      <trkpt lat="37.026870150" lon="-106.471454180">
        <ele>3116.500</ele>
        <time>2022-07-07T18:17:22Z</time>
        <name>WPT.820</name>
      </trkpt>
      <trkpt lat="37.026834540" lon="-106.471480020">
        <ele>3116.600</ele>
        <time>2022-07-07T18:17:25Z</time>
        <name>WPT.821</name>
      </trkpt>
      <trkpt lat="37.026801980" lon="-106.471512850">
        <ele>3117.000</ele>
        <time>2022-07-07T18:17:28Z</time>
        <name>WPT.822</name>
      </trkpt>
      <trkpt lat="37.026772700" lon="-106.471556030">
        <ele>3117.600</ele>
        <time>2022-07-07T18:17:32Z</time>
        <name>WPT.823</name>
      </trkpt>
      <trkpt lat="37.026750210" lon="-106.471591430">
        <ele>3117.400</ele>
        <time>2022-07-07T18:17:35Z</time>
        <name>WPT.824</name>
      </trkpt>
      <trkpt lat="37.026726120" lon="-106.471627540">
        <ele>3117.700</ele>
        <time>2022-07-07T18:17:38Z</time>
        <name>WPT.825</name>
      </trkpt>
      <trkpt lat="37.026711780" lon="-106.471678380">
        <ele>3116.900</ele>
        <time>2022-07-07T18:17:41Z</time>
        <name>WPT.826</name>
      </trkpt>
      <trkpt lat="37.026695590" lon="-106.471720660">
        <ele>3116.800</ele>
        <time>2022-07-07T18:17:44Z</time>
        <name>WPT.827</name>
      </trkpt>
      <trkpt lat="37.026681860" lon="-106.471773510">
        <ele>3116.000</ele>
        <time>2022-07-07T18:17:48Z</time>
        <name>WPT.828</name>
      </trkpt>
      <trkpt lat="37.026676060" lon="-106.471818960">
        <ele>3115.400</ele>
        <time>2022-07-07T18:17:51Z</time>
        <name>WPT.829</name>
      </trkpt>
      <trkpt lat="37.026670600" lon="-106.471873160">
        <ele>3115.200</ele>
        <time>2022-07-07T18:17:55Z</time>
        <name>WPT.830</name>
      </trkpt>
      <trkpt lat="37.026666240" lon="-106.471924910">
        <ele>3116.800</ele>
        <time>2022-07-07T18:17:59Z</time>
        <name>WPT.831</name>
      </trkpt>
      <trkpt lat="37.026666170" lon="-106.471970970">
        <ele>3117.400</ele>
        <time>2022-07-07T18:18:02Z</time>
        <name>WPT.832</name>
      </trkpt>
      <trkpt lat="37.026659760" lon="-106.472019720">
        <ele>3117.900</ele>
        <time>2022-07-07T18:18:06Z</time>
        <name>WPT.833</name>
      </trkpt>
      <trkpt lat="37.026664510" lon="-106.472072180">
        <ele>3118.400</ele>
        <time>2022-07-07T18:18:10Z</time>
        <name>WPT.834</name>
      </trkpt>
      <trkpt lat="37.026663150" lon="-106.472120500">
        <ele>3118.400</ele>
        <time>2022-07-07T18:18:14Z</time>
        <name>WPT.835</name>
      </trkpt>
      <trkpt lat="37.026656440" lon="-106.472170570">
        <ele>3118.600</ele>
        <time>2022-07-07T18:18:18Z</time>
        <name>WPT.836</name>
      </trkpt>
      <trkpt lat="37.026648900" lon="-106.472220480">
        <ele>3119.000</ele>
        <time>2022-07-07T18:18:22Z</time>
        <name>WPT.837</name>
      </trkpt>
      <trkpt lat="37.026642120" lon="-106.472279010">
        <ele>3119.600</ele>
        <time>2022-07-07T18:18:26Z</time>
        <name>WPT.838</name>
      </trkpt>
      <trkpt lat="37.026641850" lon="-106.472334670">
        <ele>3119.700</ele>
        <time>2022-07-07T18:18:30Z</time>
        <name>WPT.839</name>
      </trkpt>
      <trkpt lat="37.026644850" lon="-106.472382050">
        <ele>3118.700</ele>
        <time>2022-07-07T18:18:33Z</time>
        <name>WPT.840</name>
      </trkpt>
      <trkpt lat="37.026643860" lon="-106.472428700">
        <ele>3118.000</ele>
        <time>2022-07-07T18:18:52Z</time>
        <name>WPT.841</name>
      </trkpt>
      <trkpt lat="37.026673770" lon="-106.472466060">
        <ele>3118.400</ele>
        <time>2022-07-07T18:18:59Z</time>
        <name>WPT.842</name>
      </trkpt>
      <trkpt lat="37.026685430" lon="-106.472517740">
        <ele>3118.500</ele>
        <time>2022-07-07T18:19:05Z</time>
        <name>WPT.843</name>
      </trkpt>
      <trkpt lat="37.026678060" lon="-106.472569320">
        <ele>3120.100</ele>
        <time>2022-07-07T18:19:20Z</time>
        <name>WPT.844</name>
      </trkpt>
      <trkpt lat="37.026665790" lon="-106.472616960">
        <ele>3120.200</ele>
        <time>2022-07-07T18:19:41Z</time>
        <name>WPT.845</name>
      </trkpt>
      <trkpt lat="37.026670080" lon="-106.472667070">
        <ele>3120.100</ele>
        <time>2022-07-07T18:19:46Z</time>
        <name>WPT.846</name>
      </trkpt>
      <trkpt lat="37.026661920" lon="-106.472712780">
        <ele>3117.600</ele>
        <time>2022-07-07T18:19:54Z</time>
        <name>WPT.847</name>
      </trkpt>
      <trkpt lat="37.026632200" lon="-106.472676910">
        <ele>3116.200</ele>
        <time>2022-07-07T18:20:15Z</time>
        <name>WPT.848</name>
      </trkpt>
      <trkpt lat="37.026622120" lon="-106.472628350">
        <ele>3115.400</ele>
        <time>2022-07-07T18:20:23Z</time>
        <name>WPT.849</name>
      </trkpt>
      <trkpt lat="37.026608370" lon="-106.472579220">
        <ele>3117.400</ele>
        <time>2022-07-07T18:20:31Z</time>
        <name>WPT.850</name>
      </trkpt>
      <trkpt lat="37.026590660" lon="-106.472527280">
        <ele>3116.700</ele>
        <time>2022-07-07T18:20:37Z</time>
        <name>WPT.851</name>
      </trkpt>
      <trkpt lat="37.026581820" lon="-106.472482970">
        <ele>3116.000</ele>
        <time>2022-07-07T18:20:41Z</time>
        <name>WPT.852</name>
      </trkpt>
      <trkpt lat="37.026565790" lon="-106.472437790">
        <ele>3116.500</ele>
        <time>2022-07-07T18:20:46Z</time>
        <name>WPT.853</name>
      </trkpt>
      <trkpt lat="37.026541530" lon="-106.472396200">
        <ele>3117.800</ele>
        <time>2022-07-07T18:20:52Z</time>
        <name>WPT.854</name>
      </trkpt>
      <trkpt lat="37.026522390" lon="-106.472349780">
        <ele>3116.100</ele>
        <time>2022-07-07T18:20:57Z</time>
        <name>WPT.855</name>
      </trkpt>
      <trkpt lat="37.026514300" lon="-106.472296790">
        <ele>3115.900</ele>
        <time>2022-07-07T18:21:03Z</time>
        <name>WPT.856</name>
      </trkpt>
      <trkpt lat="37.026496940" lon="-106.472250730">
        <ele>3115.300</ele>
        <time>2022-07-07T18:21:10Z</time>
        <name>WPT.857</name>
      </trkpt>
      <trkpt lat="37.026484610" lon="-106.472207360">
        <ele>3114.100</ele>
        <time>2022-07-07T18:21:15Z</time>
        <name>WPT.858</name>
      </trkpt>
      <trkpt lat="37.026462360" lon="-106.472168570">
        <ele>3112.300</ele>
        <time>2022-07-07T18:21:19Z</time>
        <name>WPT.859</name>
      </trkpt>
      <trkpt lat="37.026446630" lon="-106.472127030">
        <ele>3111.400</ele>
        <time>2022-07-07T18:21:24Z</time>
        <name>WPT.860</name>
      </trkpt>
      <trkpt lat="37.026423770" lon="-106.472086540">
        <ele>3110.600</ele>
        <time>2022-07-07T18:21:29Z</time>
        <name>WPT.861</name>
      </trkpt>
      <trkpt lat="37.026395090" lon="-106.472043680">
        <ele>3111.600</ele>
        <time>2022-07-07T18:21:35Z</time>
        <name>WPT.862</name>
      </trkpt>
      <trkpt lat="37.026366780" lon="-106.472010780">
        <ele>3110.800</ele>
        <time>2022-07-07T18:21:40Z</time>
        <name>WPT.863</name>
      </trkpt>
      <trkpt lat="37.026343610" lon="-106.471973910">
        <ele>3109.800</ele>
        <time>2022-07-07T18:21:46Z</time>
        <name>WPT.864</name>
      </trkpt>
      <trkpt lat="37.026313740" lon="-106.471946890">
        <ele>3109.400</ele>
        <time>2022-07-07T18:21:54Z</time>
        <name>WPT.865</name>
      </trkpt>
      <trkpt lat="37.026280340" lon="-106.471929800">
        <ele>3112.200</ele>
        <time>2022-07-07T18:39:26Z</time>
        <name>WPT.866</name>
      </trkpt>
      <trkpt lat="37.026316380" lon="-106.471948950">
        <ele>3114.100</ele>
        <time>2022-07-07T18:59:35Z</time>
        <name>WPT.867</name>
      </trkpt>
      <trkpt lat="37.026352310" lon="-106.471961780">
        <ele>3113.500</ele>
        <time>2022-07-07T18:59:39Z</time>
        <name>WPT.868</name>
      </trkpt>
      <trkpt lat="37.026390080" lon="-106.471970210">
        <ele>3114.100</ele>
        <time>2022-07-07T18:59:43Z</time>
        <name>WPT.869</name>
      </trkpt>
      <trkpt lat="37.026430290" lon="-106.471974780">
        <ele>3114.300</ele>
        <time>2022-07-07T18:59:48Z</time>
        <name>WPT.870</name>
      </trkpt>
      <trkpt lat="37.026467920" lon="-106.471963730">
        <ele>3112.500</ele>
        <time>2022-07-07T18:59:53Z</time>
        <name>WPT.871</name>
      </trkpt>
      <trkpt lat="37.026504110" lon="-106.471977640">
        <ele>3114.500</ele>
        <time>2022-07-07T18:59:57Z</time>
        <name>WPT.872</name>
      </trkpt>
      <trkpt lat="37.026540730" lon="-106.471985040">
        <ele>3115.300</ele>
        <time>2022-07-07T19:00:01Z</time>
        <name>WPT.873</name>
      </trkpt>
      <trkpt lat="37.026581280" lon="-106.471989340">
        <ele>3114.800</ele>
        <time>2022-07-07T19:00:06Z</time>
        <name>WPT.874</name>
      </trkpt>
      <trkpt lat="37.026622380" lon="-106.471974920">
        <ele>3114.100</ele>
        <time>2022-07-07T19:00:11Z</time>
        <name>WPT.875</name>
      </trkpt>
      <trkpt lat="37.026651770" lon="-106.471938520">
        <ele>3113.700</ele>
        <time>2022-07-07T19:00:15Z</time>
        <name>WPT.876</name>
      </trkpt>
      <trkpt lat="37.026685520" lon="-106.471898460">
        <ele>3113.200</ele>
        <time>2022-07-07T19:00:19Z</time>
        <name>WPT.877</name>
      </trkpt>
      <trkpt lat="37.026696590" lon="-106.471854510">
        <ele>3113.600</ele>
        <time>2022-07-07T19:00:24Z</time>
        <name>WPT.878</name>
      </trkpt>
      <trkpt lat="37.026702230" lon="-106.471802190">
        <ele>3114.000</ele>
        <time>2022-07-07T19:00:28Z</time>
        <name>WPT.879</name>
      </trkpt>
      <trkpt lat="37.026709580" lon="-106.471755210">
        <ele>3114.100</ele>
        <time>2022-07-07T19:00:32Z</time>
        <name>WPT.880</name>
      </trkpt>
      <trkpt lat="37.026728230" lon="-106.471715060">
        <ele>3114.000</ele>
        <time>2022-07-07T19:00:36Z</time>
        <name>WPT.881</name>
      </trkpt>
      <trkpt lat="37.026739960" lon="-106.471672220">
        <ele>3113.300</ele>
        <time>2022-07-07T19:00:44Z</time>
        <name>WPT.882</name>
      </trkpt>
      <trkpt lat="37.026761410" lon="-106.471632340">
        <ele>3113.100</ele>
        <time>2022-07-07T19:00:48Z</time>
        <name>WPT.883</name>
      </trkpt>
      <trkpt lat="37.026783910" lon="-106.471585180">
        <ele>3112.400</ele>
        <time>2022-07-07T19:00:52Z</time>
        <name>WPT.884</name>
      </trkpt>
      <trkpt lat="37.026813160" lon="-106.471545620">
        <ele>3111.600</ele>
        <time>2022-07-07T19:00:57Z</time>
        <name>WPT.885</name>
      </trkpt>
      <trkpt lat="37.026845410" lon="-106.471509410">
        <ele>3110.800</ele>
        <time>2022-07-07T19:01:01Z</time>
        <name>WPT.886</name>
      </trkpt>
      <trkpt lat="37.026875360" lon="-106.471477930">
        <ele>3110.200</ele>
        <time>2022-07-07T19:01:05Z</time>
        <name>WPT.887</name>
      </trkpt>
      <trkpt lat="37.026907710" lon="-106.471446790">
        <ele>3109.100</ele>
        <time>2022-07-07T19:01:09Z</time>
        <name>WPT.888</name>
      </trkpt>
      <trkpt lat="37.026940850" lon="-106.471412050">
        <ele>3107.800</ele>
        <time>2022-07-07T19:01:13Z</time>
        <name>WPT.889</name>
      </trkpt>
      <trkpt lat="37.026979800" lon="-106.471386070">
        <ele>3106.300</ele>
        <time>2022-07-07T19:01:17Z</time>
        <name>WPT.890</name>
      </trkpt>
      <trkpt lat="37.027021220" lon="-106.471358650">
        <ele>3106.100</ele>
        <time>2022-07-07T19:01:21Z</time>
        <name>WPT.891</name>
      </trkpt>
      <trkpt lat="37.027055640" lon="-106.471321680">
        <ele>3104.400</ele>
        <time>2022-07-07T19:01:25Z</time>
        <name>WPT.892</name>
      </trkpt>
      <trkpt lat="37.027089880" lon="-106.471294520">
        <ele>3104.200</ele>
        <time>2022-07-07T19:01:29Z</time>
        <name>WPT.893</name>
      </trkpt>
      <trkpt lat="37.027128350" lon="-106.471279730">
        <ele>3104.800</ele>
        <time>2022-07-07T19:01:33Z</time>
        <name>WPT.894</name>
      </trkpt>
      <trkpt lat="37.027161200" lon="-106.471255300">
        <ele>3104.500</ele>
        <time>2022-07-07T19:01:37Z</time>
        <name>WPT.895</name>
      </trkpt>
      <trkpt lat="37.027197040" lon="-106.471231730">
        <ele>3104.500</ele>
        <time>2022-07-07T19:01:41Z</time>
        <name>WPT.896</name>
      </trkpt>
      <trkpt lat="37.027224010" lon="-106.471197210">
        <ele>3104.600</ele>
        <time>2022-07-07T19:01:44Z</time>
        <name>WPT.897</name>
      </trkpt>
      <trkpt lat="37.027258140" lon="-106.471160630">
        <ele>3104.000</ele>
        <time>2022-07-07T19:01:48Z</time>
        <name>WPT.898</name>
      </trkpt>
      <trkpt lat="37.027300830" lon="-106.471133480">
        <ele>3106.000</ele>
        <time>2022-07-07T19:01:52Z</time>
        <name>WPT.899</name>
      </trkpt>
      <trkpt lat="37.027325040" lon="-106.471099110">
        <ele>3106.900</ele>
        <time>2022-07-07T19:01:55Z</time>
        <name>WPT.900</name>
      </trkpt>
      <trkpt lat="37.027340790" lon="-106.471057040">
        <ele>3108.000</ele>
        <time>2022-07-07T19:01:58Z</time>
        <name>WPT.901</name>
      </trkpt>
      <trkpt lat="37.027351730" lon="-106.471003750">
        <ele>3109.700</ele>
        <time>2022-07-07T19:02:02Z</time>
        <name>WPT.902</name>
      </trkpt>
      <trkpt lat="37.027364260" lon="-106.470955370">
        <ele>3110.000</ele>
        <time>2022-07-07T19:02:06Z</time>
        <name>WPT.903</name>
      </trkpt>
      <trkpt lat="37.027389320" lon="-106.470917650">
        <ele>3109.800</ele>
        <time>2022-07-07T19:02:10Z</time>
        <name>WPT.904</name>
      </trkpt>
      <trkpt lat="37.027425770" lon="-106.470882630">
        <ele>3109.300</ele>
        <time>2022-07-07T19:02:14Z</time>
        <name>WPT.905</name>
      </trkpt>
      <trkpt lat="37.027461720" lon="-106.470861960">
        <ele>3108.600</ele>
        <time>2022-07-07T19:02:18Z</time>
        <name>WPT.906</name>
      </trkpt>
      <trkpt lat="37.027502430" lon="-106.470882350">
        <ele>3108.900</ele>
        <time>2022-07-07T19:02:22Z</time>
        <name>WPT.907</name>
      </trkpt>
      <trkpt lat="37.027543920" lon="-106.470899170">
        <ele>3111.000</ele>
        <time>2022-07-07T19:02:28Z</time>
        <name>WPT.908</name>
      </trkpt>
      <trkpt lat="37.027580950" lon="-106.470928660">
        <ele>3111.300</ele>
        <time>2022-07-07T19:02:33Z</time>
        <name>WPT.909</name>
      </trkpt>
      <trkpt lat="37.027611270" lon="-106.470964380">
        <ele>3113.700</ele>
        <time>2022-07-07T19:02:38Z</time>
        <name>WPT.910</name>
      </trkpt>
      <trkpt lat="37.027647460" lon="-106.470995560">
        <ele>3114.600</ele>
        <time>2022-07-07T19:02:43Z</time>
        <name>WPT.911</name>
      </trkpt>
      <trkpt lat="37.027688120" lon="-106.471016840">
        <ele>3114.200</ele>
        <time>2022-07-07T19:02:47Z</time>
        <name>WPT.912</name>
      </trkpt>
      <trkpt lat="37.027720420" lon="-106.471044450">
        <ele>3114.400</ele>
        <time>2022-07-07T19:02:51Z</time>
        <name>WPT.913</name>
      </trkpt>
      <trkpt lat="37.027751290" lon="-106.471072090">
        <ele>3113.500</ele>
        <time>2022-07-07T19:02:56Z</time>
        <name>WPT.914</name>
      </trkpt>
      <trkpt lat="37.027781320" lon="-106.471102110">
        <ele>3114.500</ele>
        <time>2022-07-07T19:03:01Z</time>
        <name>WPT.915</name>
      </trkpt>
      <trkpt lat="37.027811820" lon="-106.471144320">
        <ele>3111.900</ele>
        <time>2022-07-07T19:03:05Z</time>
        <name>WPT.916</name>
      </trkpt>
      <trkpt lat="37.027841960" lon="-106.471176870">
        <ele>3111.800</ele>
        <time>2022-07-07T19:03:09Z</time>
        <name>WPT.917</name>
      </trkpt>
      <trkpt lat="37.027872020" lon="-106.471210210">
        <ele>3110.800</ele>
        <time>2022-07-07T19:03:13Z</time>
        <name>WPT.918</name>
      </trkpt>
      <trkpt lat="37.027912040" lon="-106.471215380">
        <ele>3110.600</ele>
        <time>2022-07-07T19:03:17Z</time>
        <name>WPT.919</name>
      </trkpt>
      <trkpt lat="37.027959580" lon="-106.471215600">
        <ele>3109.600</ele>
        <time>2022-07-07T19:03:21Z</time>
        <name>WPT.920</name>
      </trkpt>
      <trkpt lat="37.027999560" lon="-106.471215540">
        <ele>3108.400</ele>
        <time>2022-07-07T19:03:25Z</time>
        <name>WPT.921</name>
      </trkpt>
      <trkpt lat="37.028040070" lon="-106.471203160">
        <ele>3107.600</ele>
        <time>2022-07-07T19:03:30Z</time>
        <name>WPT.922</name>
      </trkpt>
      <trkpt lat="37.028076380" lon="-106.471198860">
        <ele>3107.600</ele>
        <time>2022-07-07T19:03:35Z</time>
        <name>WPT.923</name>
      </trkpt>
      <trkpt lat="37.028111910" lon="-106.471187920">
        <ele>3105.500</ele>
        <time>2022-07-07T19:03:40Z</time>
        <name>WPT.924</name>
      </trkpt>
      <trkpt lat="37.028076080" lon="-106.471155250">
        <ele>3102.400</ele>
        <time>2022-07-07T19:03:45Z</time>
        <name>WPT.925</name>
      </trkpt>
      <trkpt lat="37.028043670" lon="-106.471126320">
        <ele>3100.900</ele>
        <time>2022-07-07T19:03:51Z</time>
        <name>WPT.926</name>
      </trkpt>
      <trkpt lat="37.028010730" lon="-106.471105810">
        <ele>3101.000</ele>
        <time>2022-07-07T19:03:57Z</time>
        <name>WPT.927</name>
      </trkpt>
      <trkpt lat="37.028047190" lon="-106.471100280">
        <ele>3099.900</ele>
        <time>2022-07-07T19:04:05Z</time>
        <name>WPT.928</name>
      </trkpt>
      <trkpt lat="37.028082610" lon="-106.471110690">
        <ele>3100.900</ele>
        <time>2022-07-07T19:04:11Z</time>
        <name>WPT.929</name>
      </trkpt>
      <trkpt lat="37.028125010" lon="-106.471101570">
        <ele>3101.900</ele>
        <time>2022-07-07T19:04:17Z</time>
        <name>WPT.930</name>
      </trkpt>
      <trkpt lat="37.028162640" lon="-106.471083590">
        <ele>3101.500</ele>
        <time>2022-07-07T19:04:22Z</time>
        <name>WPT.931</name>
      </trkpt>
      <trkpt lat="37.028199660" lon="-106.471060210">
        <ele>3101.700</ele>
        <time>2022-07-07T19:04:28Z</time>
        <name>WPT.932</name>
      </trkpt>
      <trkpt lat="37.028236390" lon="-106.471064470">
        <ele>3102.000</ele>
        <time>2022-07-07T19:04:32Z</time>
        <name>WPT.933</name>
      </trkpt>
      <trkpt lat="37.028272800" lon="-106.471056350">
        <ele>3098.900</ele>
        <time>2022-07-07T19:04:35Z</time>
        <name>WPT.934</name>
      </trkpt>
      <trkpt lat="37.028304090" lon="-106.471024400">
        <ele>3098.100</ele>
        <time>2022-07-07T19:04:46Z</time>
        <name>WPT.935</name>
      </trkpt>
      <trkpt lat="37.028340660" lon="-106.471017940">
        <ele>3097.000</ele>
        <time>2022-07-07T19:04:50Z</time>
        <name>WPT.936</name>
      </trkpt>
      <trkpt lat="37.028376690" lon="-106.471000890">
        <ele>3098.500</ele>
        <time>2022-07-07T19:04:55Z</time>
        <name>WPT.937</name>
      </trkpt>
      <trkpt lat="37.028420800" lon="-106.471002350">
        <ele>3097.900</ele>
        <time>2022-07-07T19:05:00Z</time>
        <name>WPT.938</name>
      </trkpt>
      <trkpt lat="37.028458010" lon="-106.471020140">
        <ele>3098.400</ele>
        <time>2022-07-07T19:05:05Z</time>
        <name>WPT.939</name>
      </trkpt>
      <trkpt lat="37.028488870" lon="-106.471045800">
        <ele>3098.900</ele>
        <time>2022-07-07T19:05:10Z</time>
        <name>WPT.940</name>
      </trkpt>
      <trkpt lat="37.028530710" lon="-106.471050720">
        <ele>3100.600</ele>
        <time>2022-07-07T19:05:16Z</time>
        <name>WPT.941</name>
      </trkpt>
      <trkpt lat="37.028568200" lon="-106.471043480">
        <ele>3101.700</ele>
        <time>2022-07-07T19:05:20Z</time>
        <name>WPT.942</name>
      </trkpt>
      <trkpt lat="37.028605380" lon="-106.471057550">
        <ele>3100.400</ele>
        <time>2022-07-07T19:05:24Z</time>
        <name>WPT.943</name>
      </trkpt>
      <trkpt lat="37.028643440" lon="-106.471066440">
        <ele>3101.700</ele>
        <time>2022-07-07T19:05:40Z</time>
        <name>WPT.944</name>
      </trkpt>
      <trkpt lat="37.028684090" lon="-106.471088020">
        <ele>3101.200</ele>
        <time>2022-07-07T19:05:44Z</time>
        <name>WPT.945</name>
      </trkpt>
      <trkpt lat="37.028724600" lon="-106.471102980">
        <ele>3102.500</ele>
        <time>2022-07-07T19:05:49Z</time>
        <name>WPT.946</name>
      </trkpt>
      <trkpt lat="37.028766470" lon="-106.471107810">
        <ele>3101.900</ele>
        <time>2022-07-07T19:05:54Z</time>
        <name>WPT.947</name>
      </trkpt>
      <trkpt lat="37.028807920" lon="-106.471093680">
        <ele>3102.300</ele>
        <time>2022-07-07T19:06:00Z</time>
        <name>WPT.948</name>
      </trkpt>
      <trkpt lat="37.028788270" lon="-106.471054560">
        <ele>3099.000</ele>
        <time>2022-07-07T19:06:06Z</time>
        <name>WPT.949</name>
      </trkpt>
      <trkpt lat="37.028752110" lon="-106.471025530">
        <ele>3093.500</ele>
        <time>2022-07-07T19:06:12Z</time>
        <name>WPT.950</name>
      </trkpt>
      <trkpt lat="37.028729290" lon="-106.470977720">
        <ele>3092.600</ele>
        <time>2022-07-07T19:06:18Z</time>
        <name>WPT.951</name>
      </trkpt>
      <trkpt lat="37.028702500" lon="-106.470939190">
        <ele>3091.200</ele>
        <time>2022-07-07T19:06:23Z</time>
        <name>WPT.952</name>
      </trkpt>
      <trkpt lat="37.028674170" lon="-106.470901880">
        <ele>3090.300</ele>
        <time>2022-07-07T19:06:28Z</time>
        <name>WPT.953</name>
      </trkpt>
      <trkpt lat="37.028647620" lon="-106.470867030">
        <ele>3090.100</ele>
        <time>2022-07-07T19:06:33Z</time>
        <name>WPT.954</name>
      </trkpt>
      <trkpt lat="37.028615220" lon="-106.470843180">
        <ele>3089.100</ele>
        <time>2022-07-07T19:06:38Z</time>
        <name>WPT.955</name>
      </trkpt>
      <trkpt lat="37.028583210" lon="-106.470816380">
        <ele>3090.800</ele>
        <time>2022-07-07T19:06:47Z</time>
        <name>WPT.956</name>
      </trkpt>
      <trkpt lat="37.028547910" lon="-106.470804610">
        <ele>3090.700</ele>
        <time>2022-07-07T19:06:58Z</time>
        <name>WPT.957</name>
      </trkpt>
      <trkpt lat="37.028513630" lon="-106.470787480">
        <ele>3091.500</ele>
        <time>2022-07-07T19:07:02Z</time>
        <name>WPT.958</name>
      </trkpt>
      <trkpt lat="37.028487920" lon="-106.470746930">
        <ele>3091.500</ele>
        <time>2022-07-07T19:07:06Z</time>
        <name>WPT.959</name>
      </trkpt>
      <trkpt lat="37.028456070" lon="-106.470724730">
        <ele>3090.500</ele>
        <time>2022-07-07T19:07:09Z</time>
        <name>WPT.960</name>
      </trkpt>
      <trkpt lat="37.028422730" lon="-106.470744890">
        <ele>3088.500</ele>
        <time>2022-07-07T19:07:15Z</time>
        <name>WPT.961</name>
      </trkpt>
      <trkpt lat="37.028390920" lon="-106.470719480">
        <ele>3089.900</ele>
        <time>2022-07-07T19:07:27Z</time>
        <name>WPT.962</name>
      </trkpt>
      <trkpt lat="37.028354250" lon="-106.470697760">
        <ele>3089.600</ele>
        <time>2022-07-07T19:07:31Z</time>
        <name>WPT.963</name>
      </trkpt>
      <trkpt lat="37.028322430" lon="-106.470671190">
        <ele>3091.200</ele>
        <time>2022-07-07T19:07:43Z</time>
        <name>WPT.964</name>
      </trkpt>
      <trkpt lat="37.028286100" lon="-106.470647680">
        <ele>3091.700</ele>
        <time>2022-07-07T19:07:49Z</time>
        <name>WPT.965</name>
      </trkpt>
      <trkpt lat="37.028286510" lon="-106.470602660">
        <ele>3091.800</ele>
        <time>2022-07-07T19:08:04Z</time>
        <name>WPT.966</name>
      </trkpt>
      <trkpt lat="37.028272980" lon="-106.470559650">
        <ele>3090.000</ele>
        <time>2022-07-07T19:08:15Z</time>
        <name>WPT.967</name>
      </trkpt>
      <trkpt lat="37.028259210" lon="-106.470512930">
        <ele>3088.700</ele>
        <time>2022-07-07T19:08:20Z</time>
        <name>WPT.968</name>
      </trkpt>
      <trkpt lat="37.028226330" lon="-106.470483500">
        <ele>3086.900</ele>
        <time>2022-07-07T19:08:24Z</time>
        <name>WPT.969</name>
      </trkpt>
      <trkpt lat="37.028189860" lon="-106.470442760">
        <ele>3086.200</ele>
        <time>2022-07-07T19:08:28Z</time>
        <name>WPT.970</name>
      </trkpt>
      <trkpt lat="37.028162060" lon="-106.470412330">
        <ele>3086.800</ele>
        <time>2022-07-07T19:08:31Z</time>
        <name>WPT.971</name>
      </trkpt>
      <trkpt lat="37.028126110" lon="-106.470385430">
        <ele>3087.100</ele>
        <time>2022-07-07T19:08:35Z</time>
        <name>WPT.972</name>
      </trkpt>
      <trkpt lat="37.028092020" lon="-106.470362440">
        <ele>3086.400</ele>
        <time>2022-07-07T19:08:39Z</time>
        <name>WPT.973</name>
      </trkpt>
      <trkpt lat="37.028057050" lon="-106.470325510">
        <ele>3085.900</ele>
        <time>2022-07-07T19:08:43Z</time>
        <name>WPT.974</name>
      </trkpt>
      <trkpt lat="37.028035110" lon="-106.470287640">
        <ele>3086.200</ele>
        <time>2022-07-07T19:08:47Z</time>
        <name>WPT.975</name>
      </trkpt>
      <trkpt lat="37.028024350" lon="-106.470237250">
        <ele>3088.300</ele>
        <time>2022-07-07T19:08:52Z</time>
        <name>WPT.976</name>
      </trkpt>
      <trkpt lat="37.028012050" lon="-106.470194640">
        <ele>3088.900</ele>
        <time>2022-07-07T19:08:56Z</time>
        <name>WPT.977</name>
      </trkpt>
      <trkpt lat="37.027984670" lon="-106.470154040">
        <ele>3092.300</ele>
        <time>2022-07-07T19:09:20Z</time>
        <name>WPT.978</name>
      </trkpt>
      <trkpt lat="37.027959130" lon="-106.470120590">
        <ele>3092.900</ele>
        <time>2022-07-07T19:09:24Z</time>
        <name>WPT.979</name>
      </trkpt>
      <trkpt lat="37.027938250" lon="-106.470077960">
        <ele>3092.200</ele>
        <time>2022-07-07T19:09:29Z</time>
        <name>WPT.980</name>
      </trkpt>
      <trkpt lat="37.027920720" lon="-106.470037300">
        <ele>3093.300</ele>
        <time>2022-07-07T19:09:35Z</time>
        <name>WPT.981</name>
      </trkpt>
      <trkpt lat="37.027894990" lon="-106.469996580">
        <ele>3094.800</ele>
        <time>2022-07-07T19:09:40Z</time>
        <name>WPT.982</name>
      </trkpt>
      <trkpt lat="37.027880460" lon="-106.469949020">
        <ele>3096.100</ele>
        <time>2022-07-07T19:09:49Z</time>
        <name>WPT.983</name>
      </trkpt>
      <trkpt lat="37.027853030" lon="-106.469910420">
        <ele>3096.300</ele>
        <time>2022-07-07T19:09:55Z</time>
        <name>WPT.984</name>
      </trkpt>
      <trkpt lat="37.027832070" lon="-106.469869030">
        <ele>3095.900</ele>
        <time>2022-07-07T19:10:01Z</time>
        <name>WPT.985</name>
      </trkpt>
      <trkpt lat="37.027869000" lon="-106.469847760">
        <ele>3096.200</ele>
        <time>2022-07-07T19:10:42Z</time>
        <name>WPT.986</name>
      </trkpt>
      <trkpt lat="37.027903930" lon="-106.469870100">
        <ele>3097.500</ele>
        <time>2022-07-07T19:10:47Z</time>
        <name>WPT.987</name>
      </trkpt>
      <trkpt lat="37.027939900" lon="-106.469898020">
        <ele>3098.700</ele>
        <time>2022-07-07T19:10:51Z</time>
        <name>WPT.988</name>
      </trkpt>
      <trkpt lat="37.027981510" lon="-106.469904410">
        <ele>3098.800</ele>
        <time>2022-07-07T19:10:55Z</time>
        <name>WPT.989</name>
      </trkpt>
      <trkpt lat="37.028026330" lon="-106.469890220">
        <ele>3099.500</ele>
        <time>2022-07-07T19:10:59Z</time>
        <name>WPT.990</name>
      </trkpt>
      <trkpt lat="37.028059500" lon="-106.469872020">
        <ele>3101.100</ele>
        <time>2022-07-07T19:11:03Z</time>
        <name>WPT.991</name>
      </trkpt>
      <trkpt lat="37.028086110" lon="-106.469840190">
        <ele>3100.900</ele>
        <time>2022-07-07T19:11:07Z</time>
        <name>WPT.992</name>
      </trkpt>
      <trkpt lat="37.028109920" lon="-106.469799160">
        <ele>3101.300</ele>
        <time>2022-07-07T19:11:11Z</time>
        <name>WPT.993</name>
      </trkpt>
      <trkpt lat="37.028135930" lon="-106.469766210">
        <ele>3100.900</ele>
        <time>2022-07-07T19:11:15Z</time>
        <name>WPT.994</name>
      </trkpt>
      <trkpt lat="37.028153180" lon="-106.469717160">
        <ele>3100.600</ele>
        <time>2022-07-07T19:11:20Z</time>
        <name>WPT.995</name>
      </trkpt>
      <trkpt lat="37.028165240" lon="-106.469672220">
        <ele>3101.900</ele>
        <time>2022-07-07T19:11:25Z</time>
        <name>WPT.996</name>
      </trkpt>
      <trkpt lat="37.028154240" lon="-106.469624460">
        <ele>3103.400</ele>
        <time>2022-07-07T19:11:30Z</time>
        <name>WPT.997</name>
      </trkpt>
      <trkpt lat="37.028138190" lon="-106.469583990">
        <ele>3103.100</ele>
        <time>2022-07-07T19:11:34Z</time>
        <name>WPT.998</name>
      </trkpt>
      <trkpt lat="37.028126570" lon="-106.469534030">
        <ele>3104.200</ele>
        <time>2022-07-07T19:11:39Z</time>
        <name>WPT.999</name>
      </trkpt>
      <trkpt lat="37.028106230" lon="-106.469487160">
        <ele>3103.700</ele>
        <time>2022-07-07T19:11:44Z</time>
        <name>WPT.1000</name>
      </trkpt>
      <trkpt lat="37.028074510" lon="-106.469464510">
        <ele>3102.500</ele>
        <time>2022-07-07T19:11:48Z</time>
        <name>WPT.1001</name>
      </trkpt>
      <trkpt lat="37.028039720" lon="-106.469435860">
        <ele>3102.000</ele>
        <time>2022-07-07T19:11:54Z</time>
        <name>WPT.1002</name>
      </trkpt>
      <trkpt lat="37.027996830" lon="-106.469412700">
        <ele>3101.000</ele>
        <time>2022-07-07T19:11:59Z</time>
        <name>WPT.1003</name>
      </trkpt>
      <trkpt lat="37.027965940" lon="-106.469377320">
        <ele>3101.400</ele>
        <time>2022-07-07T19:12:03Z</time>
        <name>WPT.1004</name>
      </trkpt>
      <trkpt lat="37.027939640" lon="-106.469336320">
        <ele>3099.600</ele>
        <time>2022-07-07T19:12:06Z</time>
        <name>WPT.1005</name>
      </trkpt>
      <trkpt lat="37.027930140" lon="-106.469287410">
        <ele>3099.400</ele>
        <time>2022-07-07T19:12:11Z</time>
        <name>WPT.1006</name>
      </trkpt>
      <trkpt lat="37.027937420" lon="-106.469232230">
        <ele>3100.500</ele>
        <time>2022-07-07T19:12:16Z</time>
        <name>WPT.1007</name>
      </trkpt>
      <trkpt lat="37.027964150" lon="-106.469190660">
        <ele>3102.800</ele>
        <time>2022-07-07T19:12:22Z</time>
        <name>WPT.1008</name>
      </trkpt>
      <trkpt lat="37.027991670" lon="-106.469160790">
        <ele>3104.700</ele>
        <time>2022-07-07T19:12:27Z</time>
        <name>WPT.1009</name>
      </trkpt>
      <trkpt lat="37.028010990" lon="-106.469111600">
        <ele>3102.900</ele>
        <time>2022-07-07T19:12:32Z</time>
        <name>WPT.1010</name>
      </trkpt>
      <trkpt lat="37.028033530" lon="-106.469074040">
        <ele>3103.400</ele>
        <time>2022-07-07T19:12:36Z</time>
        <name>WPT.1011</name>
      </trkpt>
      <trkpt lat="37.028066070" lon="-106.469051170">
        <ele>3102.800</ele>
        <time>2022-07-07T19:12:40Z</time>
        <name>WPT.1012</name>
      </trkpt>
      <trkpt lat="37.028081110" lon="-106.469008730">
        <ele>3103.900</ele>
        <time>2022-07-07T19:12:44Z</time>
        <name>WPT.1013</name>
      </trkpt>
      <trkpt lat="37.028106470" lon="-106.468973940">
        <ele>3104.000</ele>
        <time>2022-07-07T19:12:51Z</time>
        <name>WPT.1014</name>
      </trkpt>
      <trkpt lat="37.028106370" lon="-106.468926340">
        <ele>3103.900</ele>
        <time>2022-07-07T19:12:56Z</time>
        <name>WPT.1015</name>
      </trkpt>
      <trkpt lat="37.028083040" lon="-106.468883410">
        <ele>3105.400</ele>
        <time>2022-07-07T19:13:01Z</time>
        <name>WPT.1016</name>
      </trkpt>
      <trkpt lat="37.028060630" lon="-106.468842460">
        <ele>3106.000</ele>
        <time>2022-07-07T19:13:05Z</time>
        <name>WPT.1017</name>
      </trkpt>
      <trkpt lat="37.028036960" lon="-106.468796330">
        <ele>3106.500</ele>
        <time>2022-07-07T19:13:09Z</time>
        <name>WPT.1018</name>
      </trkpt>
      <trkpt lat="37.027998580" lon="-106.468771370">
        <ele>3106.000</ele>
        <time>2022-07-07T19:13:16Z</time>
        <name>WPT.1019</name>
      </trkpt>
      <trkpt lat="37.027965730" lon="-106.468739400">
        <ele>3106.900</ele>
        <time>2022-07-07T19:13:20Z</time>
        <name>WPT.1020</name>
      </trkpt>
      <trkpt lat="37.027943140" lon="-106.468696780">
        <ele>3106.600</ele>
        <time>2022-07-07T19:13:23Z</time>
        <name>WPT.1021</name>
      </trkpt>
      <trkpt lat="37.027916030" lon="-106.468666280">
        <ele>3106.300</ele>
        <time>2022-07-07T19:13:27Z</time>
        <name>WPT.1022</name>
      </trkpt>
      <trkpt lat="37.027881770" lon="-106.468641710">
        <ele>3105.800</ele>
        <time>2022-07-07T19:13:32Z</time>
        <name>WPT.1023</name>
      </trkpt>
      <trkpt lat="37.027842180" lon="-106.468616350">
        <ele>3104.400</ele>
        <time>2022-07-07T19:13:38Z</time>
        <name>WPT.1024</name>
      </trkpt>
      <trkpt lat="37.027814580" lon="-106.468583950">
        <ele>3105.100</ele>
        <time>2022-07-07T19:13:42Z</time>
        <name>WPT.1025</name>
      </trkpt>
      <trkpt lat="37.027784600" lon="-106.468544390">
        <ele>3104.900</ele>
        <time>2022-07-07T19:13:46Z</time>
        <name>WPT.1026</name>
      </trkpt>
      <trkpt lat="37.027758760" lon="-106.468505890">
        <ele>3104.700</ele>
        <time>2022-07-07T19:13:50Z</time>
        <name>WPT.1027</name>
      </trkpt>
      <trkpt lat="37.027747530" lon="-106.468459660">
        <ele>3103.300</ele>
        <time>2022-07-07T19:13:54Z</time>
        <name>WPT.1028</name>
      </trkpt>
      <trkpt lat="37.027736020" lon="-106.468410560">
        <ele>3103.400</ele>
        <time>2022-07-07T19:13:58Z</time>
        <name>WPT.1029</name>
      </trkpt>
      <trkpt lat="37.027729600" lon="-106.468366010">
        <ele>3104.400</ele>
        <time>2022-07-07T19:14:02Z</time>
        <name>WPT.1030</name>
      </trkpt>
      <trkpt lat="37.027720680" lon="-106.468319710">
        <ele>3106.500</ele>
        <time>2022-07-07T19:14:07Z</time>
        <name>WPT.1031</name>
      </trkpt>
      <trkpt lat="37.027699860" lon="-106.468276830">
        <ele>3109.000</ele>
        <time>2022-07-07T19:14:13Z</time>
        <name>WPT.1032</name>
      </trkpt>
      <trkpt lat="37.027682160" lon="-106.468232160">
        <ele>3110.900</ele>
        <time>2022-07-07T19:14:18Z</time>
        <name>WPT.1033</name>
      </trkpt>
      <trkpt lat="37.027675300" lon="-106.468183470">
        <ele>3107.000</ele>
        <time>2022-07-07T19:14:25Z</time>
        <name>WPT.1034</name>
      </trkpt>
      <trkpt lat="37.027650250" lon="-106.468145210">
        <ele>3108.300</ele>
        <time>2022-07-07T19:14:30Z</time>
        <name>WPT.1035</name>
      </trkpt>
      <trkpt lat="37.027633020" lon="-106.468102120">
        <ele>3107.600</ele>
        <time>2022-07-07T19:14:34Z</time>
        <name>WPT.1036</name>
      </trkpt>
      <trkpt lat="37.027631110" lon="-106.468051680">
        <ele>3110.200</ele>
        <time>2022-07-07T19:14:40Z</time>
        <name>WPT.1037</name>
      </trkpt>
      <trkpt lat="37.027623750" lon="-106.467997340">
        <ele>3112.200</ele>
        <time>2022-07-07T19:14:45Z</time>
        <name>WPT.1038</name>
      </trkpt>
      <trkpt lat="37.027616730" lon="-106.467950230">
        <ele>3112.000</ele>
        <time>2022-07-07T19:14:49Z</time>
        <name>WPT.1039</name>
      </trkpt>
      <trkpt lat="37.027580320" lon="-106.467938470">
        <ele>3111.300</ele>
        <time>2022-07-07T19:15:17Z</time>
        <name>WPT.1040</name>
      </trkpt>
      <trkpt lat="37.027567940" lon="-106.467893170">
        <ele>3108.400</ele>
        <time>2022-07-07T19:15:35Z</time>
        <name>WPT.1041</name>
      </trkpt>
      <trkpt lat="37.027563050" lon="-106.467837710">
        <ele>3107.900</ele>
        <time>2022-07-07T19:15:39Z</time>
        <name>WPT.1042</name>
      </trkpt>
      <trkpt lat="37.027567290" lon="-106.467780460">
        <ele>3107.300</ele>
        <time>2022-07-07T19:15:43Z</time>
        <name>WPT.1043</name>
      </trkpt>
      <trkpt lat="37.027575390" lon="-106.467736560">
        <ele>3106.700</ele>
        <time>2022-07-07T19:15:47Z</time>
        <name>WPT.1044</name>
      </trkpt>
      <trkpt lat="37.027565180" lon="-106.467678370">
        <ele>3107.400</ele>
        <time>2022-07-07T19:15:52Z</time>
        <name>WPT.1045</name>
      </trkpt>
      <trkpt lat="37.027540190" lon="-106.467638530">
        <ele>3106.000</ele>
        <time>2022-07-07T19:15:56Z</time>
        <name>WPT.1046</name>
      </trkpt>
      <trkpt lat="37.027521640" lon="-106.467597910">
        <ele>3105.400</ele>
        <time>2022-07-07T19:16:00Z</time>
        <name>WPT.1047</name>
      </trkpt>
      <trkpt lat="37.027521400" lon="-106.467550340">
        <ele>3105.600</ele>
        <time>2022-07-07T19:16:04Z</time>
        <name>WPT.1048</name>
      </trkpt>
      <trkpt lat="37.027532860" lon="-106.467504250">
        <ele>3106.400</ele>
        <time>2022-07-07T19:16:08Z</time>
        <name>WPT.1049</name>
      </trkpt>
      <trkpt lat="37.027541920" lon="-106.467456530">
        <ele>3106.600</ele>
        <time>2022-07-07T19:16:12Z</time>
        <name>WPT.1050</name>
      </trkpt>
      <trkpt lat="37.027551660" lon="-106.467410910">
        <ele>3106.500</ele>
        <time>2022-07-07T19:16:16Z</time>
        <name>WPT.1051</name>
      </trkpt>
      <trkpt lat="37.027565050" lon="-106.467357690">
        <ele>3106.500</ele>
        <time>2022-07-07T19:16:21Z</time>
        <name>WPT.1052</name>
      </trkpt>
      <trkpt lat="37.027575800" lon="-106.467309220">
        <ele>3108.000</ele>
        <time>2022-07-07T19:16:25Z</time>
        <name>WPT.1053</name>
      </trkpt>
      <trkpt lat="37.027581010" lon="-106.467258370">
        <ele>3109.800</ele>
        <time>2022-07-07T19:16:29Z</time>
        <name>WPT.1054</name>
      </trkpt>
      <trkpt lat="37.027583680" lon="-106.467205140">
        <ele>3109.600</ele>
        <time>2022-07-07T19:16:33Z</time>
        <name>WPT.1055</name>
      </trkpt>
      <trkpt lat="37.027575100" lon="-106.467156700">
        <ele>3108.500</ele>
        <time>2022-07-07T19:16:37Z</time>
        <name>WPT.1056</name>
      </trkpt>
      <trkpt lat="37.027572000" lon="-106.467100250">
        <ele>3108.300</ele>
        <time>2022-07-07T19:16:41Z</time>
        <name>WPT.1057</name>
      </trkpt>
      <trkpt lat="37.027560720" lon="-106.467048230">
        <ele>3108.000</ele>
        <time>2022-07-07T19:16:45Z</time>
        <name>WPT.1058</name>
      </trkpt>
      <trkpt lat="37.027545120" lon="-106.466999910">
        <ele>3106.800</ele>
        <time>2022-07-07T19:16:49Z</time>
        <name>WPT.1059</name>
      </trkpt>
      <trkpt lat="37.027535130" lon="-106.466955180">
        <ele>3107.100</ele>
        <time>2022-07-07T19:16:58Z</time>
        <name>WPT.1060</name>
      </trkpt>
      <trkpt lat="37.027536310" lon="-106.466906240">
        <ele>3107.100</ele>
        <time>2022-07-07T19:17:02Z</time>
        <name>WPT.1061</name>
      </trkpt>
      <trkpt lat="37.027544570" lon="-106.466856210">
        <ele>3109.300</ele>
        <time>2022-07-07T19:17:06Z</time>
        <name>WPT.1062</name>
      </trkpt>
      <trkpt lat="37.027554000" lon="-106.466810660">
        <ele>3109.600</ele>
        <time>2022-07-07T19:17:10Z</time>
        <name>WPT.1063</name>
      </trkpt>
      <trkpt lat="37.027566040" lon="-106.466766160">
        <ele>3110.300</ele>
        <time>2022-07-07T19:17:16Z</time>
        <name>WPT.1064</name>
      </trkpt>
      <trkpt lat="37.027571590" lon="-106.466713040">
        <ele>3109.800</ele>
        <time>2022-07-07T19:17:33Z</time>
        <name>WPT.1065</name>
      </trkpt>
      <trkpt lat="37.027583860" lon="-106.466661090">
        <ele>3110.800</ele>
        <time>2022-07-07T19:17:37Z</time>
        <name>WPT.1066</name>
      </trkpt>
      <trkpt lat="37.027586980" lon="-106.466606620">
        <ele>3109.600</ele>
        <time>2022-07-07T19:17:41Z</time>
        <name>WPT.1067</name>
      </trkpt>
      <trkpt lat="37.027579880" lon="-106.466555590">
        <ele>3107.900</ele>
        <time>2022-07-07T19:17:45Z</time>
        <name>WPT.1068</name>
      </trkpt>
      <trkpt lat="37.027569240" lon="-106.466509200">
        <ele>3105.800</ele>
        <time>2022-07-07T19:17:49Z</time>
        <name>WPT.1069</name>
      </trkpt>
      <trkpt lat="37.027550940" lon="-106.466455650">
        <ele>3105.700</ele>
        <time>2022-07-07T19:17:53Z</time>
        <name>WPT.1070</name>
      </trkpt>
      <trkpt lat="37.027527580" lon="-106.466414170">
        <ele>3105.100</ele>
        <time>2022-07-07T19:17:57Z</time>
        <name>WPT.1071</name>
      </trkpt>
      <trkpt lat="37.027502640" lon="-106.466370910">
        <ele>3106.400</ele>
        <time>2022-07-07T19:18:01Z</time>
        <name>WPT.1072</name>
      </trkpt>
      <trkpt lat="37.027463230" lon="-106.466344320">
        <ele>3107.400</ele>
        <time>2022-07-07T19:18:05Z</time>
        <name>WPT.1073</name>
      </trkpt>
      <trkpt lat="37.027425910" lon="-106.466316350">
        <ele>3108.200</ele>
        <time>2022-07-07T19:18:10Z</time>
        <name>WPT.1074</name>
      </trkpt>
      <trkpt lat="37.027397010" lon="-106.466280800">
        <ele>3108.000</ele>
        <time>2022-07-07T19:18:13Z</time>
        <name>WPT.1075</name>
      </trkpt>
      <trkpt lat="37.027371400" lon="-106.466233130">
        <ele>3109.200</ele>
        <time>2022-07-07T19:18:17Z</time>
        <name>WPT.1076</name>
      </trkpt>
      <trkpt lat="37.027362730" lon="-106.466178500">
        <ele>3110.100</ele>
        <time>2022-07-07T19:18:22Z</time>
        <name>WPT.1077</name>
      </trkpt>
      <trkpt lat="37.027364150" lon="-106.466121370">
        <ele>3111.600</ele>
        <time>2022-07-07T19:18:27Z</time>
        <name>WPT.1078</name>
      </trkpt>
      <trkpt lat="37.027380390" lon="-106.466080150">
        <ele>3111.800</ele>
        <time>2022-07-07T19:18:31Z</time>
        <name>WPT.1079</name>
      </trkpt>
      <trkpt lat="37.027399120" lon="-106.466030680">
        <ele>3111.900</ele>
        <time>2022-07-07T19:18:36Z</time>
        <name>WPT.1080</name>
      </trkpt>
      <trkpt lat="37.027401510" lon="-106.465983530">
        <ele>3112.200</ele>
        <time>2022-07-07T19:18:40Z</time>
        <name>WPT.1081</name>
      </trkpt>
      <trkpt lat="37.027408510" lon="-106.465934430">
        <ele>3112.600</ele>
        <time>2022-07-07T19:18:45Z</time>
        <name>WPT.1082</name>
      </trkpt>
      <trkpt lat="37.027439410" lon="-106.465908920">
        <ele>3112.700</ele>
        <time>2022-07-07T19:18:49Z</time>
        <name>WPT.1083</name>
      </trkpt>
      <trkpt lat="37.027454490" lon="-106.465857060">
        <ele>3111.400</ele>
        <time>2022-07-07T19:18:53Z</time>
        <name>WPT.1084</name>
      </trkpt>
      <trkpt lat="37.027451260" lon="-106.465805750">
        <ele>3110.200</ele>
        <time>2022-07-07T19:19:32Z</time>
        <name>WPT.1085</name>
      </trkpt>
      <trkpt lat="37.027428630" lon="-106.465762300">
        <ele>3109.800</ele>
        <time>2022-07-07T19:19:37Z</time>
        <name>WPT.1086</name>
      </trkpt>
      <trkpt lat="37.027420210" lon="-106.465718090">
        <ele>3111.300</ele>
        <time>2022-07-07T19:19:41Z</time>
        <name>WPT.1087</name>
      </trkpt>
      <trkpt lat="37.027412620" lon="-106.465669610">
        <ele>3111.900</ele>
        <time>2022-07-07T19:19:45Z</time>
        <name>WPT.1088</name>
      </trkpt>
      <trkpt lat="37.027395760" lon="-106.465627410">
        <ele>3112.300</ele>
        <time>2022-07-07T19:19:48Z</time>
        <name>WPT.1089</name>
      </trkpt>
      <trkpt lat="37.027374610" lon="-106.465588050">
        <ele>3113.500</ele>
        <time>2022-07-07T19:19:52Z</time>
        <name>WPT.1090</name>
      </trkpt>
      <trkpt lat="37.027358240" lon="-106.465540970">
        <ele>3114.900</ele>
        <time>2022-07-07T19:19:56Z</time>
        <name>WPT.1091</name>
      </trkpt>
      <trkpt lat="37.027331640" lon="-106.465505930">
        <ele>3113.500</ele>
        <time>2022-07-07T19:20:00Z</time>
        <name>WPT.1092</name>
      </trkpt>
      <trkpt lat="37.027309090" lon="-106.465468570">
        <ele>3115.300</ele>
        <time>2022-07-07T19:20:03Z</time>
        <name>WPT.1093</name>
      </trkpt>
      <trkpt lat="37.027280260" lon="-106.465422100">
        <ele>3114.300</ele>
        <time>2022-07-07T19:20:07Z</time>
        <name>WPT.1094</name>
      </trkpt>
      <trkpt lat="37.027264280" lon="-106.465377520">
        <ele>3112.500</ele>
        <time>2022-07-07T19:20:11Z</time>
        <name>WPT.1095</name>
      </trkpt>
      <trkpt lat="37.027234980" lon="-106.465332080">
        <ele>3112.400</ele>
        <time>2022-07-07T19:20:16Z</time>
        <name>WPT.1096</name>
      </trkpt>
      <trkpt lat="37.027201450" lon="-106.465305450">
        <ele>3111.600</ele>
        <time>2022-07-07T19:20:20Z</time>
        <name>WPT.1097</name>
      </trkpt>
      <trkpt lat="37.027163540" lon="-106.465292340">
        <ele>3111.100</ele>
        <time>2022-07-07T19:20:25Z</time>
        <name>WPT.1098</name>
      </trkpt>
      <trkpt lat="37.027143000" lon="-106.465254010">
        <ele>3112.500</ele>
        <time>2022-07-07T19:20:32Z</time>
        <name>WPT.1099</name>
      </trkpt>
      <trkpt lat="37.027125590" lon="-106.465206020">
        <ele>3110.200</ele>
        <time>2022-07-07T19:20:39Z</time>
        <name>WPT.1100</name>
      </trkpt>
      <trkpt lat="37.027098570" lon="-106.465174590">
        <ele>3110.100</ele>
        <time>2022-07-07T19:20:43Z</time>
        <name>WPT.1101</name>
      </trkpt>
      <trkpt lat="37.027077360" lon="-106.465127090">
        <ele>3111.600</ele>
        <time>2022-07-07T19:20:48Z</time>
        <name>WPT.1102</name>
      </trkpt>
      <trkpt lat="37.027062590" lon="-106.465079090">
        <ele>3111.400</ele>
        <time>2022-07-07T19:20:52Z</time>
        <name>WPT.1103</name>
      </trkpt>
      <trkpt lat="37.027046230" lon="-106.465028930">
        <ele>3111.900</ele>
        <time>2022-07-07T19:20:56Z</time>
        <name>WPT.1104</name>
      </trkpt>
      <trkpt lat="37.027036280" lon="-106.464975830">
        <ele>3112.200</ele>
        <time>2022-07-07T19:21:01Z</time>
        <name>WPT.1105</name>
      </trkpt>
      <trkpt lat="37.027015760" lon="-106.464936280">
        <ele>3114.000</ele>
        <time>2022-07-07T19:21:05Z</time>
        <name>WPT.1106</name>
      </trkpt>
      <trkpt lat="37.027000930" lon="-106.464885030">
        <ele>3115.200</ele>
        <time>2022-07-07T19:21:10Z</time>
        <name>WPT.1107</name>
      </trkpt>
      <trkpt lat="37.026993940" lon="-106.464829610">
        <ele>3115.100</ele>
        <time>2022-07-07T19:21:15Z</time>
        <name>WPT.1108</name>
      </trkpt>
      <trkpt lat="37.026998930" lon="-106.464780630">
        <ele>3115.800</ele>
        <time>2022-07-07T19:21:21Z</time>
        <name>WPT.1109</name>
      </trkpt>
      <trkpt lat="37.027014610" lon="-106.464731020">
        <ele>3115.900</ele>
        <time>2022-07-07T19:21:26Z</time>
        <name>WPT.1110</name>
      </trkpt>
      <trkpt lat="37.027015710" lon="-106.464684590">
        <ele>3115.600</ele>
        <time>2022-07-07T19:21:30Z</time>
        <name>WPT.1111</name>
      </trkpt>
      <trkpt lat="37.027025770" lon="-106.464640660">
        <ele>3114.600</ele>
        <time>2022-07-07T19:21:34Z</time>
        <name>WPT.1112</name>
      </trkpt>
      <trkpt lat="37.027024780" lon="-106.464593530">
        <ele>3114.500</ele>
        <time>2022-07-07T19:21:38Z</time>
        <name>WPT.1113</name>
      </trkpt>
      <trkpt lat="37.027021670" lon="-106.464539200">
        <ele>3115.600</ele>
        <time>2022-07-07T19:21:43Z</time>
        <name>WPT.1114</name>
      </trkpt>
      <trkpt lat="37.027024360" lon="-106.464483470">
        <ele>3116.900</ele>
        <time>2022-07-07T19:21:47Z</time>
        <name>WPT.1115</name>
      </trkpt>
      <trkpt lat="37.027034630" lon="-106.464429690">
        <ele>3117.100</ele>
        <time>2022-07-07T19:21:51Z</time>
        <name>WPT.1116</name>
      </trkpt>
      <trkpt lat="37.027042580" lon="-106.464381040">
        <ele>3117.300</ele>
        <time>2022-07-07T19:21:55Z</time>
        <name>WPT.1117</name>
      </trkpt>
      <trkpt lat="37.027053920" lon="-106.464333330">
        <ele>3117.200</ele>
        <time>2022-07-07T19:21:59Z</time>
        <name>WPT.1118</name>
      </trkpt>
      <trkpt lat="37.027062090" lon="-106.464288820">
        <ele>3116.700</ele>
        <time>2022-07-07T19:22:03Z</time>
        <name>WPT.1119</name>
      </trkpt>
      <trkpt lat="37.027077520" lon="-106.464237240">
        <ele>3116.400</ele>
        <time>2022-07-07T19:22:07Z</time>
        <name>WPT.1120</name>
      </trkpt>
      <trkpt lat="37.027090820" lon="-106.464182060">
        <ele>3117.900</ele>
        <time>2022-07-07T19:22:12Z</time>
        <name>WPT.1121</name>
      </trkpt>
      <trkpt lat="37.027106950" lon="-106.464130480">
        <ele>3117.600</ele>
        <time>2022-07-07T19:22:16Z</time>
        <name>WPT.1122</name>
      </trkpt>
      <trkpt lat="37.027120790" lon="-106.464086450">
        <ele>3118.200</ele>
        <time>2022-07-07T19:22:20Z</time>
        <name>WPT.1123</name>
      </trkpt>
      <trkpt lat="37.027134750" lon="-106.464039300">
        <ele>3118.100</ele>
        <time>2022-07-07T19:22:24Z</time>
        <name>WPT.1124</name>
      </trkpt>
      <trkpt lat="37.027146780" lon="-106.463996300">
        <ele>3118.900</ele>
        <time>2022-07-07T19:22:28Z</time>
        <name>WPT.1125</name>
      </trkpt>
      <trkpt lat="37.027154140" lon="-106.463951490">
        <ele>3119.000</ele>
        <time>2022-07-07T19:22:32Z</time>
        <name>WPT.1126</name>
      </trkpt>
      <trkpt lat="37.027158600" lon="-106.463903340">
        <ele>3119.600</ele>
        <time>2022-07-07T19:22:36Z</time>
        <name>WPT.1127</name>
      </trkpt>
      <trkpt lat="37.027170940" lon="-106.463854970">
        <ele>3119.300</ele>
        <time>2022-07-07T19:22:41Z</time>
        <name>WPT.1128</name>
      </trkpt>
      <trkpt lat="37.027192740" lon="-106.463817920">
        <ele>3118.400</ele>
        <time>2022-07-07T19:23:49Z</time>
        <name>WPT.1129</name>
      </trkpt>
      <trkpt lat="37.027209940" lon="-106.463767740">
        <ele>3118.000</ele>
        <time>2022-07-07T19:23:55Z</time>
        <name>WPT.1130</name>
      </trkpt>
      <trkpt lat="37.027237300" lon="-106.463725180">
        <ele>3118.000</ele>
        <time>2022-07-07T19:24:00Z</time>
        <name>WPT.1131</name>
      </trkpt>
      <trkpt lat="37.027275360" lon="-106.463712580">
        <ele>3117.800</ele>
        <time>2022-07-07T19:24:04Z</time>
        <name>WPT.1132</name>
      </trkpt>
      <trkpt lat="37.027318680" lon="-106.463695830">
        <ele>3118.500</ele>
        <time>2022-07-07T19:24:09Z</time>
        <name>WPT.1133</name>
      </trkpt>
      <trkpt lat="37.027361580" lon="-106.463684070">
        <ele>3120.200</ele>
        <time>2022-07-07T19:24:14Z</time>
        <name>WPT.1134</name>
      </trkpt>
      <trkpt lat="37.027395380" lon="-106.463665670">
        <ele>3120.600</ele>
        <time>2022-07-07T19:24:18Z</time>
        <name>WPT.1135</name>
      </trkpt>
      <trkpt lat="37.027432220" lon="-106.463648990">
        <ele>3120.800</ele>
        <time>2022-07-07T19:24:22Z</time>
        <name>WPT.1136</name>
      </trkpt>
      <trkpt lat="37.027466570" lon="-106.463620100">
        <ele>3120.700</ele>
        <time>2022-07-07T19:24:26Z</time>
        <name>WPT.1137</name>
      </trkpt>
      <trkpt lat="37.027505020" lon="-106.463598870">
        <ele>3120.500</ele>
        <time>2022-07-07T19:24:30Z</time>
        <name>WPT.1138</name>
      </trkpt>
      <trkpt lat="37.027535820" lon="-106.463565120">
        <ele>3120.400</ele>
        <time>2022-07-07T19:24:34Z</time>
        <name>WPT.1139</name>
      </trkpt>
      <trkpt lat="37.027562930" lon="-106.463527450">
        <ele>3120.400</ele>
        <time>2022-07-07T19:24:38Z</time>
        <name>WPT.1140</name>
      </trkpt>
      <trkpt lat="37.027585860" lon="-106.463483090">
        <ele>3120.700</ele>
        <time>2022-07-07T19:24:42Z</time>
        <name>WPT.1141</name>
      </trkpt>
      <trkpt lat="37.027589940" lon="-106.463434880">
        <ele>3120.000</ele>
        <time>2022-07-07T19:24:46Z</time>
        <name>WPT.1142</name>
      </trkpt>
      <trkpt lat="37.027598450" lon="-106.463389230">
        <ele>3120.300</ele>
        <time>2022-07-07T19:24:50Z</time>
        <name>WPT.1143</name>
      </trkpt>
      <trkpt lat="37.027610580" lon="-106.463346620">
        <ele>3120.200</ele>
        <time>2022-07-07T19:24:54Z</time>
        <name>WPT.1144</name>
      </trkpt>
      <trkpt lat="37.027609420" lon="-106.463299110">
        <ele>3121.300</ele>
        <time>2022-07-07T19:24:58Z</time>
        <name>WPT.1145</name>
      </trkpt>
      <trkpt lat="37.027623250" lon="-106.463253530">
        <ele>3121.200</ele>
        <time>2022-07-07T19:25:02Z</time>
        <name>WPT.1146</name>
      </trkpt>
      <trkpt lat="37.027632790" lon="-106.463207790">
        <ele>3121.500</ele>
        <time>2022-07-07T19:25:06Z</time>
        <name>WPT.1147</name>
      </trkpt>
      <trkpt lat="37.027640480" lon="-106.463158740">
        <ele>3122.000</ele>
        <time>2022-07-07T19:25:10Z</time>
        <name>WPT.1148</name>
      </trkpt>
      <trkpt lat="37.027658210" lon="-106.463112050">
        <ele>3120.900</ele>
        <time>2022-07-07T19:25:15Z</time>
        <name>WPT.1149</name>
      </trkpt>
      <trkpt lat="37.027670990" lon="-106.463064420">
        <ele>3119.600</ele>
        <time>2022-07-07T19:25:49Z</time>
        <name>WPT.1150</name>
      </trkpt>
      <trkpt lat="37.027681580" lon="-106.463017770">
        <ele>3120.700</ele>
        <time>2022-07-07T19:25:54Z</time>
        <name>WPT.1151</name>
      </trkpt>
      <trkpt lat="37.027701290" lon="-106.462979060">
        <ele>3120.200</ele>
        <time>2022-07-07T19:25:58Z</time>
        <name>WPT.1152</name>
      </trkpt>
      <trkpt lat="37.027714640" lon="-106.462935360">
        <ele>3120.100</ele>
        <time>2022-07-07T19:26:02Z</time>
        <name>WPT.1153</name>
      </trkpt>
      <trkpt lat="37.027744290" lon="-106.462905200">
        <ele>3119.300</ele>
        <time>2022-07-07T19:26:06Z</time>
        <name>WPT.1154</name>
      </trkpt>
      <trkpt lat="37.027773480" lon="-106.462873490">
        <ele>3118.900</ele>
        <time>2022-07-07T19:26:10Z</time>
        <name>WPT.1155</name>
      </trkpt>
      <trkpt lat="37.027794450" lon="-106.462835720">
        <ele>3118.800</ele>
        <time>2022-07-07T19:26:14Z</time>
        <name>WPT.1156</name>
      </trkpt>
      <trkpt lat="37.027807400" lon="-106.462784450">
        <ele>3118.600</ele>
        <time>2022-07-07T19:26:19Z</time>
        <name>WPT.1157</name>
      </trkpt>
      <trkpt lat="37.027816190" lon="-106.462735690">
        <ele>3118.800</ele>
        <time>2022-07-07T19:26:23Z</time>
        <name>WPT.1158</name>
      </trkpt>
      <trkpt lat="37.027826790" lon="-106.462682010">
        <ele>3119.500</ele>
        <time>2022-07-07T19:26:27Z</time>
        <name>WPT.1159</name>
      </trkpt>
      <trkpt lat="37.027842920" lon="-106.462628810">
        <ele>3119.000</ele>
        <time>2022-07-07T19:26:31Z</time>
        <name>WPT.1160</name>
      </trkpt>
      <trkpt lat="37.027865970" lon="-106.462583430">
        <ele>3119.000</ele>
        <time>2022-07-07T19:26:35Z</time>
        <name>WPT.1161</name>
      </trkpt>
      <trkpt lat="37.027887060" lon="-106.462539120">
        <ele>3120.100</ele>
        <time>2022-07-07T19:26:39Z</time>
        <name>WPT.1162</name>
      </trkpt>
      <trkpt lat="37.027905540" lon="-106.462494480">
        <ele>3118.800</ele>
        <time>2022-07-07T19:26:43Z</time>
        <name>WPT.1163</name>
      </trkpt>
      <trkpt lat="37.027929900" lon="-106.462450460">
        <ele>3118.100</ele>
        <time>2022-07-07T19:26:47Z</time>
        <name>WPT.1164</name>
      </trkpt>
      <trkpt lat="37.027950310" lon="-106.462411430">
        <ele>3117.100</ele>
        <time>2022-07-07T19:26:51Z</time>
        <name>WPT.1165</name>
      </trkpt>
      <trkpt lat="37.027972570" lon="-106.462370750">
        <ele>3116.700</ele>
        <time>2022-07-07T19:26:55Z</time>
        <name>WPT.1166</name>
      </trkpt>
      <trkpt lat="37.027995730" lon="-106.462326500">
        <ele>3116.700</ele>
        <time>2022-07-07T19:26:59Z</time>
        <name>WPT.1167</name>
      </trkpt>
      <trkpt lat="37.028021210" lon="-106.462282530">
        <ele>3115.500</ele>
        <time>2022-07-07T19:27:03Z</time>
        <name>WPT.1168</name>
      </trkpt>
      <trkpt lat="37.028037760" lon="-106.462240350">
        <ele>3116.000</ele>
        <time>2022-07-07T19:27:07Z</time>
        <name>WPT.1169</name>
      </trkpt>
      <trkpt lat="37.028052610" lon="-106.462188120">
        <ele>3115.400</ele>
        <time>2022-07-07T19:27:12Z</time>
        <name>WPT.1170</name>
      </trkpt>
      <trkpt lat="37.028054860" lon="-106.462143060">
        <ele>3114.700</ele>
        <time>2022-07-07T19:27:16Z</time>
        <name>WPT.1171</name>
      </trkpt>
      <trkpt lat="37.028050840" lon="-106.462090710">
        <ele>3115.300</ele>
        <time>2022-07-07T19:27:20Z</time>
        <name>WPT.1172</name>
      </trkpt>
      <trkpt lat="37.028047200" lon="-106.462039120">
        <ele>3115.300</ele>
        <time>2022-07-07T19:27:24Z</time>
        <name>WPT.1173</name>
      </trkpt>
      <trkpt lat="37.028059610" lon="-106.461990120">
        <ele>3115.100</ele>
        <time>2022-07-07T19:27:28Z</time>
        <name>WPT.1174</name>
      </trkpt>
      <trkpt lat="37.028075220" lon="-106.461944720">
        <ele>3114.600</ele>
        <time>2022-07-07T19:27:32Z</time>
        <name>WPT.1175</name>
      </trkpt>
      <trkpt lat="37.028080600" lon="-106.461891700">
        <ele>3116.500</ele>
        <time>2022-07-07T19:27:36Z</time>
        <name>WPT.1176</name>
      </trkpt>
      <trkpt lat="37.028096790" lon="-106.461844020">
        <ele>3116.800</ele>
        <time>2022-07-07T19:27:40Z</time>
        <name>WPT.1177</name>
      </trkpt>
      <trkpt lat="37.028112840" lon="-106.461799440">
        <ele>3117.800</ele>
        <time>2022-07-07T19:27:44Z</time>
        <name>WPT.1178</name>
      </trkpt>
      <trkpt lat="37.028143000" lon="-106.461762430">
        <ele>3118.500</ele>
        <time>2022-07-07T19:27:48Z</time>
        <name>WPT.1179</name>
      </trkpt>
      <trkpt lat="37.028169770" lon="-106.461719240">
        <ele>3120.900</ele>
        <time>2022-07-07T19:27:53Z</time>
        <name>WPT.1180</name>
      </trkpt>
      <trkpt lat="37.028177650" lon="-106.461672650">
        <ele>3120.100</ele>
        <time>2022-07-07T19:27:57Z</time>
        <name>WPT.1181</name>
      </trkpt>
      <trkpt lat="37.028173250" lon="-106.461623610">
        <ele>3119.000</ele>
        <time>2022-07-07T19:28:01Z</time>
        <name>WPT.1182</name>
      </trkpt>
      <trkpt lat="37.028177910" lon="-106.461570850">
        <ele>3116.200</ele>
        <time>2022-07-07T19:28:06Z</time>
        <name>WPT.1183</name>
      </trkpt>
      <trkpt lat="37.028181090" lon="-106.461513630">
        <ele>3115.700</ele>
        <time>2022-07-07T19:28:10Z</time>
        <name>WPT.1184</name>
      </trkpt>
      <trkpt lat="37.028186610" lon="-106.461458330">
        <ele>3117.600</ele>
        <time>2022-07-07T19:28:14Z</time>
        <name>WPT.1185</name>
      </trkpt>
      <trkpt lat="37.028199850" lon="-106.461412040">
        <ele>3116.400</ele>
        <time>2022-07-07T19:28:18Z</time>
        <name>WPT.1186</name>
      </trkpt>
      <trkpt lat="37.028203750" lon="-106.461366710">
        <ele>3116.400</ele>
        <time>2022-07-07T19:28:22Z</time>
        <name>WPT.1187</name>
      </trkpt>
      <trkpt lat="37.028216540" lon="-106.461320850">
        <ele>3116.800</ele>
        <time>2022-07-07T19:28:27Z</time>
        <name>WPT.1188</name>
      </trkpt>
      <trkpt lat="37.028214180" lon="-106.461271120">
        <ele>3116.400</ele>
        <time>2022-07-07T19:29:20Z</time>
        <name>WPT.1189</name>
      </trkpt>
      <trkpt lat="37.028213420" lon="-106.461214180">
        <ele>3114.900</ele>
        <time>2022-07-07T19:29:25Z</time>
        <name>WPT.1190</name>
      </trkpt>
      <trkpt lat="37.028192470" lon="-106.461171860">
        <ele>3114.100</ele>
        <time>2022-07-07T19:29:28Z</time>
        <name>WPT.1191</name>
      </trkpt>
      <trkpt lat="37.028167140" lon="-106.461125790">
        <ele>3114.100</ele>
        <time>2022-07-07T19:29:31Z</time>
        <name>WPT.1192</name>
      </trkpt>
      <trkpt lat="37.028150190" lon="-106.461072630">
        <ele>3114.700</ele>
        <time>2022-07-07T19:29:35Z</time>
        <name>WPT.1193</name>
      </trkpt>
      <trkpt lat="37.028141550" lon="-106.461027260">
        <ele>3116.900</ele>
        <time>2022-07-07T19:29:39Z</time>
        <name>WPT.1194</name>
      </trkpt>
      <trkpt lat="37.028138420" lon="-106.460974330">
        <ele>3117.000</ele>
        <time>2022-07-07T19:29:44Z</time>
        <name>WPT.1195</name>
      </trkpt>
      <trkpt lat="37.028145520" lon="-106.460929550">
        <ele>3117.500</ele>
        <time>2022-07-07T19:29:48Z</time>
        <name>WPT.1196</name>
      </trkpt>
      <trkpt lat="37.028176090" lon="-106.460900130">
        <ele>3117.100</ele>
        <time>2022-07-07T19:29:52Z</time>
        <name>WPT.1197</name>
      </trkpt>
      <trkpt lat="37.028204250" lon="-106.460870900">
        <ele>3116.800</ele>
        <time>2022-07-07T19:29:56Z</time>
        <name>WPT.1198</name>
      </trkpt>
      <trkpt lat="37.028241470" lon="-106.460855170">
        <ele>3116.400</ele>
        <time>2022-07-07T19:30:01Z</time>
        <name>WPT.1199</name>
      </trkpt>
      <trkpt lat="37.028278810" lon="-106.460835530">
        <ele>3117.200</ele>
        <time>2022-07-07T19:30:06Z</time>
        <name>WPT.1200</name>
      </trkpt>
      <trkpt lat="37.028311920" lon="-106.460815530">
        <ele>3118.000</ele>
        <time>2022-07-07T19:30:10Z</time>
        <name>WPT.1201</name>
      </trkpt>
      <trkpt lat="37.028352560" lon="-106.460801000">
        <ele>3118.600</ele>
        <time>2022-07-07T19:30:14Z</time>
        <name>WPT.1202</name>
      </trkpt>
      <trkpt lat="37.028390400" lon="-106.460796730">
        <ele>3118.300</ele>
        <time>2022-07-07T19:30:19Z</time>
        <name>WPT.1203</name>
      </trkpt>
      <trkpt lat="37.028434220" lon="-106.460780960">
        <ele>3117.700</ele>
        <time>2022-07-07T19:30:23Z</time>
        <name>WPT.1204</name>
      </trkpt>
      <trkpt lat="37.028455800" lon="-106.460743610">
        <ele>3116.600</ele>
        <time>2022-07-07T19:30:26Z</time>
        <name>WPT.1205</name>
      </trkpt>
      <trkpt lat="37.028472730" lon="-106.460696770">
        <ele>3115.400</ele>
        <time>2022-07-07T19:30:30Z</time>
        <name>WPT.1206</name>
      </trkpt>
      <trkpt lat="37.028489870" lon="-106.460649360">
        <ele>3114.700</ele>
        <time>2022-07-07T19:30:35Z</time>
        <name>WPT.1207</name>
      </trkpt>
      <trkpt lat="37.028525560" lon="-106.460622390">
        <ele>3114.200</ele>
        <time>2022-07-07T19:30:39Z</time>
        <name>WPT.1208</name>
      </trkpt>
      <trkpt lat="37.028569020" lon="-106.460616560">
        <ele>3114.700</ele>
        <time>2022-07-07T19:30:43Z</time>
        <name>WPT.1209</name>
      </trkpt>
      <trkpt lat="37.028613860" lon="-106.460596760">
        <ele>3114.800</ele>
        <time>2022-07-07T19:30:47Z</time>
        <name>WPT.1210</name>
      </trkpt>
      <trkpt lat="37.028644270" lon="-106.460551280">
        <ele>3114.500</ele>
        <time>2022-07-07T19:30:51Z</time>
        <name>WPT.1211</name>
      </trkpt>
      <trkpt lat="37.028660600" lon="-106.460503130">
        <ele>3114.200</ele>
        <time>2022-07-07T19:30:55Z</time>
        <name>WPT.1212</name>
      </trkpt>
      <trkpt lat="37.028671930" lon="-106.460455340">
        <ele>3114.100</ele>
        <time>2022-07-07T19:30:59Z</time>
        <name>WPT.1213</name>
      </trkpt>
      <trkpt lat="37.028687580" lon="-106.460402570">
        <ele>3113.300</ele>
        <time>2022-07-07T19:31:03Z</time>
        <name>WPT.1214</name>
      </trkpt>
      <trkpt lat="37.028696470" lon="-106.460348430">
        <ele>3112.500</ele>
        <time>2022-07-07T19:31:07Z</time>
        <name>WPT.1215</name>
      </trkpt>
      <trkpt lat="37.028703300" lon="-106.460295330">
        <ele>3111.700</ele>
        <time>2022-07-07T19:31:27Z</time>
        <name>WPT.1216</name>
      </trkpt>
      <trkpt lat="37.028705260" lon="-106.460249220">
        <ele>3110.400</ele>
        <time>2022-07-07T19:31:32Z</time>
        <name>WPT.1217</name>
      </trkpt>
      <trkpt lat="37.028710530" lon="-106.460198160">
        <ele>3111.300</ele>
        <time>2022-07-07T19:31:37Z</time>
        <name>WPT.1218</name>
      </trkpt>
      <trkpt lat="37.028698930" lon="-106.460152210">
        <ele>3111.000</ele>
        <time>2022-07-07T19:31:41Z</time>
        <name>WPT.1219</name>
      </trkpt>
      <trkpt lat="37.028679410" lon="-106.460103830">
        <ele>3110.900</ele>
        <time>2022-07-07T19:31:45Z</time>
        <name>WPT.1220</name>
      </trkpt>
      <trkpt lat="37.028674440" lon="-106.460052900">
        <ele>3109.300</ele>
        <time>2022-07-07T19:31:49Z</time>
        <name>WPT.1221</name>
      </trkpt>
      <trkpt lat="37.028675860" lon="-106.459999170">
        <ele>3110.300</ele>
        <time>2022-07-07T19:31:54Z</time>
        <name>WPT.1222</name>
      </trkpt>
      <trkpt lat="37.028681380" lon="-106.459954560">
        <ele>3109.600</ele>
        <time>2022-07-07T19:31:58Z</time>
        <name>WPT.1223</name>
      </trkpt>
      <trkpt lat="37.028698710" lon="-106.459905950">
        <ele>3109.100</ele>
        <time>2022-07-07T19:32:04Z</time>
        <name>WPT.1224</name>
      </trkpt>
      <trkpt lat="37.028728820" lon="-106.459871970">
        <ele>3109.500</ele>
        <time>2022-07-07T19:32:09Z</time>
        <name>WPT.1225</name>
      </trkpt>
      <trkpt lat="37.028755600" lon="-106.459831520">
        <ele>3109.700</ele>
        <time>2022-07-07T19:32:14Z</time>
        <name>WPT.1226</name>
      </trkpt>
      <trkpt lat="37.028783720" lon="-106.459797540">
        <ele>3109.600</ele>
        <time>2022-07-07T19:32:18Z</time>
        <name>WPT.1227</name>
      </trkpt>
      <trkpt lat="37.028804030" lon="-106.459755720">
        <ele>3109.100</ele>
        <time>2022-07-07T19:32:22Z</time>
        <name>WPT.1228</name>
      </trkpt>
      <trkpt lat="37.028827690" lon="-106.459716840">
        <ele>3109.700</ele>
        <time>2022-07-07T19:32:27Z</time>
        <name>WPT.1229</name>
      </trkpt>
      <trkpt lat="37.028851370" lon="-106.459667940">
        <ele>3109.700</ele>
        <time>2022-07-07T19:32:32Z</time>
        <name>WPT.1230</name>
      </trkpt>
      <trkpt lat="37.028885390" lon="-106.459634570">
        <ele>3109.000</ele>
        <time>2022-07-07T19:32:37Z</time>
        <name>WPT.1231</name>
      </trkpt>
      <trkpt lat="37.028926360" lon="-106.459617530">
        <ele>3108.900</ele>
        <time>2022-07-07T19:32:42Z</time>
        <name>WPT.1232</name>
      </trkpt>
      <trkpt lat="37.028965680" lon="-106.459629220">
        <ele>3108.600</ele>
        <time>2022-07-07T19:32:46Z</time>
        <name>WPT.1233</name>
      </trkpt>
      <trkpt lat="37.029008880" lon="-106.459634080">
        <ele>3107.800</ele>
        <time>2022-07-07T19:32:51Z</time>
        <name>WPT.1234</name>
      </trkpt>
      <trkpt lat="37.029048420" lon="-106.459642150">
        <ele>3108.100</ele>
        <time>2022-07-07T19:32:56Z</time>
        <name>WPT.1235</name>
      </trkpt>
      <trkpt lat="37.029085070" lon="-106.459651000">
        <ele>3107.600</ele>
        <time>2022-07-07T19:33:03Z</time>
        <name>WPT.1236</name>
      </trkpt>
      <trkpt lat="37.029121290" lon="-106.459660750">
        <ele>3103.400</ele>
        <time>2022-07-07T19:33:10Z</time>
        <name>WPT.1237</name>
      </trkpt>
      <trkpt lat="37.029152050" lon="-106.459634360">
        <ele>3105.200</ele>
        <time>2022-07-07T19:33:22Z</time>
        <name>WPT.1238</name>
      </trkpt>
      <trkpt lat="37.029155000" lon="-106.459583850">
        <ele>3104.900</ele>
        <time>2022-07-07T19:33:28Z</time>
        <name>WPT.1239</name>
      </trkpt>
      <trkpt lat="37.029155520" lon="-106.459534950">
        <ele>3103.800</ele>
        <time>2022-07-07T19:33:32Z</time>
        <name>WPT.1240</name>
      </trkpt>
      <trkpt lat="37.029128210" lon="-106.459499250">
        <ele>3103.900</ele>
        <time>2022-07-07T19:33:36Z</time>
        <name>WPT.1241</name>
      </trkpt>
      <trkpt lat="37.029105780" lon="-106.459452270">
        <ele>3103.600</ele>
        <time>2022-07-07T19:33:39Z</time>
        <name>WPT.1242</name>
      </trkpt>
      <trkpt lat="37.029077810" lon="-106.459409210">
        <ele>3103.700</ele>
        <time>2022-07-07T19:33:43Z</time>
        <name>WPT.1243</name>
      </trkpt>
      <trkpt lat="37.029058800" lon="-106.459365010">
        <ele>3104.000</ele>
        <time>2022-07-07T19:33:48Z</time>
        <name>WPT.1244</name>
      </trkpt>
      <trkpt lat="37.029040060" lon="-106.459317340">
        <ele>3104.800</ele>
        <time>2022-07-07T19:33:53Z</time>
        <name>WPT.1245</name>
      </trkpt>
      <trkpt lat="37.029015370" lon="-106.459275470">
        <ele>3104.000</ele>
        <time>2022-07-07T19:33:58Z</time>
        <name>WPT.1246</name>
      </trkpt>
      <trkpt lat="37.028998270" lon="-106.459235100">
        <ele>3103.200</ele>
        <time>2022-07-07T19:34:02Z</time>
        <name>WPT.1247</name>
      </trkpt>
      <trkpt lat="37.028970890" lon="-106.459203070">
        <ele>3104.900</ele>
        <time>2022-07-07T19:34:51Z</time>
        <name>WPT.1248</name>
      </trkpt>
      <trkpt lat="37.028945930" lon="-106.459162750">
        <ele>3104.000</ele>
        <time>2022-07-07T19:34:56Z</time>
        <name>WPT.1249</name>
      </trkpt>
      <trkpt lat="37.028907090" lon="-106.459145120">
        <ele>3104.100</ele>
        <time>2022-07-07T19:35:01Z</time>
        <name>WPT.1250</name>
      </trkpt>
      <trkpt lat="37.028861780" lon="-106.459137520">
        <ele>3106.100</ele>
        <time>2022-07-07T19:35:05Z</time>
        <name>WPT.1251</name>
      </trkpt>
      <trkpt lat="37.028818470" lon="-106.459137530">
        <ele>3106.500</ele>
        <time>2022-07-07T19:35:08Z</time>
        <name>WPT.1252</name>
      </trkpt>
      <trkpt lat="37.028782240" lon="-106.459142100">
        <ele>3107.900</ele>
        <time>2022-07-07T19:35:11Z</time>
        <name>WPT.1253</name>
      </trkpt>
      <trkpt lat="37.028736360" lon="-106.459154140">
        <ele>3107.500</ele>
        <time>2022-07-07T19:35:15Z</time>
        <name>WPT.1254</name>
      </trkpt>
      <trkpt lat="37.028698910" lon="-106.459166780">
        <ele>3108.100</ele>
        <time>2022-07-07T19:35:18Z</time>
        <name>WPT.1255</name>
      </trkpt>
      <trkpt lat="37.028657360" lon="-106.459166230">
        <ele>3108.200</ele>
        <time>2022-07-07T19:35:21Z</time>
        <name>WPT.1256</name>
      </trkpt>
      <trkpt lat="37.028620740" lon="-106.459161990">
        <ele>3110.000</ele>
        <time>2022-07-07T19:35:24Z</time>
        <name>WPT.1257</name>
      </trkpt>
      <trkpt lat="37.028580790" lon="-106.459174920">
        <ele>3109.600</ele>
        <time>2022-07-07T19:35:28Z</time>
        <name>WPT.1258</name>
      </trkpt>
      <trkpt lat="37.028545390" lon="-106.459192590">
        <ele>3108.700</ele>
        <time>2022-07-07T19:35:32Z</time>
        <name>WPT.1259</name>
      </trkpt>
      <trkpt lat="37.028513710" lon="-106.459220490">
        <ele>3108.700</ele>
        <time>2022-07-07T19:35:36Z</time>
        <name>WPT.1260</name>
      </trkpt>
      <trkpt lat="37.028470610" lon="-106.459232890">
        <ele>3108.700</ele>
        <time>2022-07-07T19:35:40Z</time>
        <name>WPT.1261</name>
      </trkpt>
      <trkpt lat="37.028431920" lon="-106.459223840">
        <ele>3108.900</ele>
        <time>2022-07-07T19:35:44Z</time>
        <name>WPT.1262</name>
      </trkpt>
      <trkpt lat="37.028398900" lon="-106.459199590">
        <ele>3108.500</ele>
        <time>2022-07-07T19:35:48Z</time>
        <name>WPT.1263</name>
      </trkpt>
      <trkpt lat="37.028357220" lon="-106.459173530">
        <ele>3110.000</ele>
        <time>2022-07-07T19:35:53Z</time>
        <name>WPT.1264</name>
      </trkpt>
      <trkpt lat="37.028318110" lon="-106.459154750">
        <ele>3110.500</ele>
        <time>2022-07-07T19:35:57Z</time>
        <name>WPT.1265</name>
      </trkpt>
      <trkpt lat="37.028280480" lon="-106.459136660">
        <ele>3111.200</ele>
        <time>2022-07-07T19:36:01Z</time>
        <name>WPT.1266</name>
      </trkpt>
      <trkpt lat="37.028242360" lon="-106.459125390">
        <ele>3111.400</ele>
        <time>2022-07-07T19:36:05Z</time>
        <name>WPT.1267</name>
      </trkpt>
      <trkpt lat="37.028214840" lon="-106.459091440">
        <ele>3110.000</ele>
        <time>2022-07-07T19:36:18Z</time>
        <name>WPT.1268</name>
      </trkpt>
      <trkpt lat="37.028186080" lon="-106.459053890">
        <ele>3108.900</ele>
        <time>2022-07-07T19:36:24Z</time>
        <name>WPT.1269</name>
      </trkpt>
      <trkpt lat="37.028172050" lon="-106.459007910">
        <ele>3108.300</ele>
        <time>2022-07-07T19:36:29Z</time>
        <name>WPT.1270</name>
      </trkpt>
      <trkpt lat="37.028152310" lon="-106.458967210">
        <ele>3106.200</ele>
        <time>2022-07-07T19:36:34Z</time>
        <name>WPT.1271</name>
      </trkpt>
      <trkpt lat="37.028130400" lon="-106.458926860">
        <ele>3105.600</ele>
        <time>2022-07-07T19:36:39Z</time>
        <name>WPT.1272</name>
      </trkpt>
      <trkpt lat="37.028101300" lon="-106.458897030">
        <ele>3107.600</ele>
        <time>2022-07-07T19:36:45Z</time>
        <name>WPT.1273</name>
      </trkpt>
      <trkpt lat="37.028100250" lon="-106.458851180">
        <ele>3109.100</ele>
        <time>2022-07-07T19:37:25Z</time>
        <name>WPT.1274</name>
      </trkpt>
      <trkpt lat="37.028102790" lon="-106.458805550">
        <ele>3109.000</ele>
        <time>2022-07-07T19:37:30Z</time>
        <name>WPT.1275</name>
      </trkpt>
      <trkpt lat="37.028066900" lon="-106.458811630">
        <ele>3108.400</ele>
        <time>2022-07-07T19:37:36Z</time>
        <name>WPT.1276</name>
      </trkpt>
      <trkpt lat="37.028041750" lon="-106.458845790">
        <ele>3108.700</ele>
        <time>2022-07-07T19:37:40Z</time>
        <name>WPT.1277</name>
      </trkpt>
      <trkpt lat="37.028007710" lon="-106.458880650">
        <ele>3109.300</ele>
        <time>2022-07-07T19:37:44Z</time>
        <name>WPT.1278</name>
      </trkpt>
      <trkpt lat="37.027996840" lon="-106.458934560">
        <ele>3107.800</ele>
        <time>2022-07-07T19:37:48Z</time>
        <name>WPT.1279</name>
      </trkpt>
      <trkpt lat="37.027999630" lon="-106.458990560">
        <ele>3106.800</ele>
        <time>2022-07-07T19:37:52Z</time>
        <name>WPT.1280</name>
      </trkpt>
      <trkpt lat="37.028012370" lon="-106.459045510">
        <ele>3106.600</ele>
        <time>2022-07-07T19:37:56Z</time>
        <name>WPT.1281</name>
      </trkpt>
      <trkpt lat="37.028000930" lon="-106.459098810">
        <ele>3104.900</ele>
        <time>2022-07-07T19:38:00Z</time>
        <name>WPT.1282</name>
      </trkpt>
      <trkpt lat="37.027979640" lon="-106.459143080">
        <ele>3105.500</ele>
        <time>2022-07-07T19:38:04Z</time>
        <name>WPT.1283</name>
      </trkpt>
      <trkpt lat="37.027942620" lon="-106.459135000">
        <ele>3104.300</ele>
        <time>2022-07-07T19:38:10Z</time>
        <name>WPT.1284</name>
      </trkpt>
      <trkpt lat="37.027942510" lon="-106.459086500">
        <ele>3103.200</ele>
        <time>2022-07-07T19:38:15Z</time>
        <name>WPT.1285</name>
      </trkpt>
      <trkpt lat="37.027926000" lon="-106.459033350">
        <ele>3103.200</ele>
        <time>2022-07-07T19:38:20Z</time>
        <name>WPT.1286</name>
      </trkpt>
      <trkpt lat="37.027906080" lon="-106.458984010">
        <ele>3102.500</ele>
        <time>2022-07-07T19:38:24Z</time>
        <name>WPT.1287</name>
      </trkpt>
      <trkpt lat="37.027892540" lon="-106.458931940">
        <ele>3102.900</ele>
        <time>2022-07-07T19:38:28Z</time>
        <name>WPT.1288</name>
      </trkpt>
      <trkpt lat="37.027884240" lon="-106.458886330">
        <ele>3104.100</ele>
        <time>2022-07-07T19:38:31Z</time>
        <name>WPT.1289</name>
      </trkpt>
      <trkpt lat="37.027872170" lon="-106.458842240">
        <ele>3104.800</ele>
        <time>2022-07-07T19:38:34Z</time>
        <name>WPT.1290</name>
      </trkpt>
      <trkpt lat="37.027862530" lon="-106.458795650">
        <ele>3103.700</ele>
        <time>2022-07-07T19:38:38Z</time>
        <name>WPT.1291</name>
      </trkpt>
      <trkpt lat="37.027834730" lon="-106.458766480">
        <ele>3103.000</ele>
        <time>2022-07-07T19:38:43Z</time>
        <name>WPT.1292</name>
      </trkpt>
      <trkpt lat="37.027816500" lon="-106.458818820">
        <ele>3102.600</ele>
        <time>2022-07-07T19:38:57Z</time>
        <name>WPT.1293</name>
      </trkpt>
      <trkpt lat="37.027802340" lon="-106.458860910">
        <ele>3101.400</ele>
        <time>2022-07-07T19:39:01Z</time>
        <name>WPT.1294</name>
      </trkpt>
      <trkpt lat="37.027794080" lon="-106.458910780">
        <ele>3101.600</ele>
        <time>2022-07-07T19:39:06Z</time>
        <name>WPT.1295</name>
      </trkpt>
      <trkpt lat="37.027793280" lon="-106.458967170">
        <ele>3100.700</ele>
        <time>2022-07-07T19:39:11Z</time>
        <name>WPT.1296</name>
      </trkpt>
      <trkpt lat="37.027798550" lon="-106.459017650">
        <ele>3099.500</ele>
        <time>2022-07-07T19:39:15Z</time>
        <name>WPT.1297</name>
      </trkpt>
      <trkpt lat="37.027795170" lon="-106.459063650">
        <ele>3099.800</ele>
        <time>2022-07-07T19:39:19Z</time>
        <name>WPT.1298</name>
      </trkpt>
      <trkpt lat="37.027774470" lon="-106.459104090">
        <ele>3100.000</ele>
        <time>2022-07-07T19:39:23Z</time>
        <name>WPT.1299</name>
      </trkpt>
      <trkpt lat="37.027753080" lon="-106.459142110">
        <ele>3100.100</ele>
        <time>2022-07-07T19:39:28Z</time>
        <name>WPT.1300</name>
      </trkpt>
      <trkpt lat="37.027746350" lon="-106.459094690">
        <ele>3097.600</ele>
        <time>2022-07-07T19:39:46Z</time>
        <name>WPT.1301</name>
      </trkpt>
      <trkpt lat="37.027743240" lon="-106.459039240">
        <ele>3095.400</ele>
        <time>2022-07-07T19:39:52Z</time>
        <name>WPT.1302</name>
      </trkpt>
      <trkpt lat="37.027719120" lon="-106.458996450">
        <ele>3093.500</ele>
        <time>2022-07-07T19:39:57Z</time>
        <name>WPT.1303</name>
      </trkpt>
      <trkpt lat="37.027695580" lon="-106.458958960">
        <ele>3093.500</ele>
        <time>2022-07-07T19:40:02Z</time>
        <name>WPT.1304</name>
      </trkpt>
      <trkpt lat="37.027669230" lon="-106.458922980">
        <ele>3093.800</ele>
        <time>2022-07-07T19:40:06Z</time>
        <name>WPT.1305</name>
      </trkpt>
      <trkpt lat="37.027639520" lon="-106.458881730">
        <ele>3092.900</ele>
        <time>2022-07-07T19:40:12Z</time>
        <name>WPT.1306</name>
      </trkpt>
      <trkpt lat="37.027607530" lon="-106.458856690">
        <ele>3092.700</ele>
        <time>2022-07-07T19:40:41Z</time>
        <name>WPT.1307</name>
      </trkpt>
      <trkpt lat="37.027612250" lon="-106.458907330">
        <ele>3090.200</ele>
        <time>2022-07-07T19:40:49Z</time>
        <name>WPT.1308</name>
      </trkpt>
      <trkpt lat="37.027611550" lon="-106.458954220">
        <ele>3090.000</ele>
        <time>2022-07-07T19:40:55Z</time>
        <name>WPT.1309</name>
      </trkpt>
      <trkpt lat="37.027583580" lon="-106.458983730">
        <ele>3091.100</ele>
        <time>2022-07-07T19:41:22Z</time>
        <name>WPT.1310</name>
      </trkpt>
      <trkpt lat="37.027547550" lon="-106.458954450">
        <ele>3090.800</ele>
        <time>2022-07-07T19:41:26Z</time>
        <name>WPT.1311</name>
      </trkpt>
      <trkpt lat="37.027513300" lon="-106.458924650">
        <ele>3090.600</ele>
        <time>2022-07-07T19:41:30Z</time>
        <name>WPT.1312</name>
      </trkpt>
      <trkpt lat="37.027480360" lon="-106.458899140">
        <ele>3090.000</ele>
        <time>2022-07-07T19:41:38Z</time>
        <name>WPT.1313</name>
      </trkpt>
      <trkpt lat="37.027448460" lon="-106.458856770">
        <ele>3089.800</ele>
        <time>2022-07-07T19:41:43Z</time>
        <name>WPT.1314</name>
      </trkpt>
      <trkpt lat="37.027416350" lon="-106.458821890">
        <ele>3089.600</ele>
        <time>2022-07-07T19:41:47Z</time>
        <name>WPT.1315</name>
      </trkpt>
      <trkpt lat="37.027384990" lon="-106.458848530">
        <ele>3089.300</ele>
        <time>2022-07-07T19:41:55Z</time>
        <name>WPT.1316</name>
      </trkpt>
      <trkpt lat="37.027397290" lon="-106.458897250">
        <ele>3090.800</ele>
        <time>2022-07-07T19:42:00Z</time>
        <name>WPT.1317</name>
      </trkpt>
      <trkpt lat="37.027399560" lon="-106.458956040">
        <ele>3091.500</ele>
        <time>2022-07-07T19:42:04Z</time>
        <name>WPT.1318</name>
      </trkpt>
      <trkpt lat="37.027394230" lon="-106.459009420">
        <ele>3092.200</ele>
        <time>2022-07-07T19:42:08Z</time>
        <name>WPT.1319</name>
      </trkpt>
      <trkpt lat="37.027350550" lon="-106.459001010">
        <ele>3088.100</ele>
        <time>2022-07-07T19:42:15Z</time>
        <name>WPT.1320</name>
      </trkpt>
      <trkpt lat="37.027313690" lon="-106.458993290">
        <ele>3087.200</ele>
        <time>2022-07-07T19:42:19Z</time>
        <name>WPT.1321</name>
      </trkpt>
      <trkpt lat="37.027273110" lon="-106.459000120">
        <ele>3085.700</ele>
        <time>2022-07-07T19:42:23Z</time>
        <name>WPT.1322</name>
      </trkpt>
      <trkpt lat="37.027234460" lon="-106.459002760">
        <ele>3084.200</ele>
        <time>2022-07-07T19:42:27Z</time>
        <name>WPT.1323</name>
      </trkpt>
      <trkpt lat="37.027189370" lon="-106.459007270">
        <ele>3084.700</ele>
        <time>2022-07-07T19:42:32Z</time>
        <name>WPT.1324</name>
      </trkpt>
      <trkpt lat="37.027146000" lon="-106.459001200">
        <ele>3084.100</ele>
        <time>2022-07-07T19:42:36Z</time>
        <name>WPT.1325</name>
      </trkpt>
      <trkpt lat="37.027105160" lon="-106.459004640">
        <ele>3083.300</ele>
        <time>2022-07-07T19:42:40Z</time>
        <name>WPT.1326</name>
      </trkpt>
      <trkpt lat="37.027062020" lon="-106.459010600">
        <ele>3083.000</ele>
        <time>2022-07-07T19:42:44Z</time>
        <name>WPT.1327</name>
      </trkpt>
      <trkpt lat="37.027019930" lon="-106.458997390">
        <ele>3083.600</ele>
        <time>2022-07-07T19:42:48Z</time>
        <name>WPT.1328</name>
      </trkpt>
      <trkpt lat="37.026979090" lon="-106.458980070">
        <ele>3083.000</ele>
        <time>2022-07-07T19:42:52Z</time>
        <name>WPT.1329</name>
      </trkpt>
      <trkpt lat="37.026945390" lon="-106.458963220">
        <ele>3082.600</ele>
        <time>2022-07-07T19:42:56Z</time>
        <name>WPT.1330</name>
      </trkpt>
      <trkpt lat="37.026906430" lon="-106.458948190">
        <ele>3081.900</ele>
        <time>2022-07-07T19:43:01Z</time>
        <name>WPT.1331</name>
      </trkpt>
      <trkpt lat="37.026867800" lon="-106.458930100">
        <ele>3081.000</ele>
        <time>2022-07-07T19:43:05Z</time>
        <name>WPT.1332</name>
      </trkpt>
      <trkpt lat="37.026835230" lon="-106.458902880">
        <ele>3081.700</ele>
        <time>2022-07-07T19:43:11Z</time>
        <name>WPT.1333</name>
      </trkpt>
      <trkpt lat="37.026802510" lon="-106.458869000">
        <ele>3081.700</ele>
        <time>2022-07-07T19:43:21Z</time>
        <name>WPT.1334</name>
      </trkpt>
      <trkpt lat="37.026763980" lon="-106.458873540">
        <ele>3081.300</ele>
        <time>2022-07-07T19:43:26Z</time>
        <name>WPT.1335</name>
      </trkpt>
      <trkpt lat="37.026720190" lon="-106.458871930">
        <ele>3080.600</ele>
        <time>2022-07-07T19:43:37Z</time>
        <name>WPT.1336</name>
      </trkpt>
      <trkpt lat="37.026684340" lon="-106.458864660">
        <ele>3081.500</ele>
        <time>2022-07-07T19:43:41Z</time>
        <name>WPT.1337</name>
      </trkpt>
      <trkpt lat="37.026648250" lon="-106.458867230">
        <ele>3081.000</ele>
        <time>2022-07-07T19:43:45Z</time>
        <name>WPT.1338</name>
      </trkpt>
      <trkpt lat="37.026626770" lon="-106.458911990">
        <ele>3079.600</ele>
        <time>2022-07-07T19:43:50Z</time>
        <name>WPT.1339</name>
      </trkpt>
      <trkpt lat="37.026623730" lon="-106.458960040">
        <ele>3078.700</ele>
        <time>2022-07-07T19:43:54Z</time>
        <name>WPT.1340</name>
      </trkpt>
      <trkpt lat="37.026590800" lon="-106.458986420">
        <ele>3080.400</ele>
        <time>2022-07-07T19:43:59Z</time>
        <name>WPT.1341</name>
      </trkpt>
      <trkpt lat="37.026555640" lon="-106.459003970">
        <ele>3082.600</ele>
        <time>2022-07-07T19:44:04Z</time>
        <name>WPT.1342</name>
      </trkpt>
      <trkpt lat="37.026512920" lon="-106.459008900">
        <ele>3083.200</ele>
        <time>2022-07-07T19:44:14Z</time>
        <name>WPT.1343</name>
      </trkpt>
      <trkpt lat="37.026468650" lon="-106.459017960">
        <ele>3083.000</ele>
        <time>2022-07-07T19:44:19Z</time>
        <name>WPT.1344</name>
      </trkpt>
      <trkpt lat="37.026431050" lon="-106.459038610">
        <ele>3083.700</ele>
        <time>2022-07-07T19:44:23Z</time>
        <name>WPT.1345</name>
      </trkpt>
      <trkpt lat="37.026393100" lon="-106.459031030">
        <ele>3084.100</ele>
        <time>2022-07-07T19:44:27Z</time>
        <name>WPT.1346</name>
      </trkpt>
      <trkpt lat="37.026353630" lon="-106.459031170">
        <ele>3083.900</ele>
        <time>2022-07-07T19:44:32Z</time>
        <name>WPT.1347</name>
      </trkpt>
      <trkpt lat="37.026321460" lon="-106.459009970">
        <ele>3084.800</ele>
        <time>2022-07-07T19:44:36Z</time>
        <name>WPT.1348</name>
      </trkpt>
      <trkpt lat="37.026277490" lon="-106.459000560">
        <ele>3084.800</ele>
        <time>2022-07-07T19:44:41Z</time>
        <name>WPT.1349</name>
      </trkpt>
      <trkpt lat="37.026235280" lon="-106.459026330">
        <ele>3083.600</ele>
        <time>2022-07-07T19:44:45Z</time>
        <name>WPT.1350</name>
      </trkpt>
      <trkpt lat="37.026198830" lon="-106.459062370">
        <ele>3083.400</ele>
        <time>2022-07-07T19:44:49Z</time>
        <name>WPT.1351</name>
      </trkpt>
      <trkpt lat="37.026163830" lon="-106.459088710">
        <ele>3083.800</ele>
        <time>2022-07-07T19:44:53Z</time>
        <name>WPT.1352</name>
      </trkpt>
      <trkpt lat="37.026143030" lon="-106.459137520">
        <ele>3084.100</ele>
        <time>2022-07-07T19:44:57Z</time>
        <name>WPT.1353</name>
      </trkpt>
      <trkpt lat="37.026129950" lon="-106.459186280">
        <ele>3084.200</ele>
        <time>2022-07-07T19:45:01Z</time>
        <name>WPT.1354</name>
      </trkpt>
      <trkpt lat="37.026116260" lon="-106.459230150">
        <ele>3084.000</ele>
        <time>2022-07-07T19:45:21Z</time>
        <name>WPT.1355</name>
      </trkpt>
      <trkpt lat="37.026086600" lon="-106.459268610">
        <ele>3083.600</ele>
        <time>2022-07-07T19:45:27Z</time>
        <name>WPT.1356</name>
      </trkpt>
      <trkpt lat="37.026048210" lon="-106.459290280">
        <ele>3083.300</ele>
        <time>2022-07-07T19:45:31Z</time>
        <name>WPT.1357</name>
      </trkpt>
      <trkpt lat="37.026023700" lon="-106.459330040">
        <ele>3083.500</ele>
        <time>2022-07-07T19:45:35Z</time>
        <name>WPT.1358</name>
      </trkpt>
      <trkpt lat="37.025996540" lon="-106.459372270">
        <ele>3085.300</ele>
        <time>2022-07-07T19:45:40Z</time>
        <name>WPT.1359</name>
      </trkpt>
      <trkpt lat="37.025957830" lon="-106.459394370">
        <ele>3085.400</ele>
        <time>2022-07-07T19:45:44Z</time>
        <name>WPT.1360</name>
      </trkpt>
      <trkpt lat="37.025921170" lon="-106.459413600">
        <ele>3086.400</ele>
        <time>2022-07-07T19:45:48Z</time>
        <name>WPT.1361</name>
      </trkpt>
      <trkpt lat="37.025891560" lon="-106.459445000">
        <ele>3085.200</ele>
        <time>2022-07-07T19:45:52Z</time>
        <name>WPT.1362</name>
      </trkpt>
      <trkpt lat="37.025864490" lon="-106.459475270">
        <ele>3085.300</ele>
        <time>2022-07-07T19:45:56Z</time>
        <name>WPT.1363</name>
      </trkpt>
      <trkpt lat="37.025837510" lon="-106.459507420">
        <ele>3086.100</ele>
        <time>2022-07-07T19:46:00Z</time>
        <name>WPT.1364</name>
      </trkpt>
      <trkpt lat="37.025800860" lon="-106.459532960">
        <ele>3086.000</ele>
        <time>2022-07-07T19:46:04Z</time>
        <name>WPT.1365</name>
      </trkpt>
      <trkpt lat="37.025768030" lon="-106.459553440">
        <ele>3085.600</ele>
        <time>2022-07-07T19:46:08Z</time>
        <name>WPT.1366</name>
      </trkpt>
      <trkpt lat="37.025731940" lon="-106.459576270">
        <ele>3085.200</ele>
        <time>2022-07-07T19:46:13Z</time>
        <name>WPT.1367</name>
      </trkpt>
      <trkpt lat="37.025690680" lon="-106.459591960">
        <ele>3087.400</ele>
        <time>2022-07-07T19:46:17Z</time>
        <name>WPT.1368</name>
      </trkpt>
      <trkpt lat="37.025647900" lon="-106.459604940">
        <ele>3087.300</ele>
        <time>2022-07-07T19:46:22Z</time>
        <name>WPT.1369</name>
      </trkpt>
      <trkpt lat="37.025612370" lon="-106.459623260">
        <ele>3087.300</ele>
        <time>2022-07-07T19:46:27Z</time>
        <name>WPT.1370</name>
      </trkpt>
      <trkpt lat="37.025566890" lon="-106.459624680">
        <ele>3088.700</ele>
        <time>2022-07-07T19:46:32Z</time>
        <name>WPT.1371</name>
      </trkpt>
      <trkpt lat="37.025523290" lon="-106.459621180">
        <ele>3087.700</ele>
        <time>2022-07-07T19:46:36Z</time>
        <name>WPT.1372</name>
      </trkpt>
      <trkpt lat="37.025481560" lon="-106.459626810">
        <ele>3088.200</ele>
        <time>2022-07-07T19:46:41Z</time>
        <name>WPT.1373</name>
      </trkpt>
      <trkpt lat="37.025441980" lon="-106.459606420">
        <ele>3088.600</ele>
        <time>2022-07-07T19:46:47Z</time>
        <name>WPT.1374</name>
      </trkpt>
      <trkpt lat="37.025418900" lon="-106.459560490">
        <ele>3087.200</ele>
        <time>2022-07-07T19:46:52Z</time>
        <name>WPT.1375</name>
      </trkpt>
      <trkpt lat="37.025389030" lon="-106.459526160">
        <ele>3086.500</ele>
        <time>2022-07-07T19:46:57Z</time>
        <name>WPT.1376</name>
      </trkpt>
      <trkpt lat="37.025350740" lon="-106.459505000">
        <ele>3087.000</ele>
        <time>2022-07-07T19:47:01Z</time>
        <name>WPT.1377</name>
      </trkpt>
      <trkpt lat="37.025318250" lon="-106.459484980">
        <ele>3086.700</ele>
        <time>2022-07-07T19:47:05Z</time>
        <name>WPT.1378</name>
      </trkpt>
      <trkpt lat="37.025277810" lon="-106.459482170">
        <ele>3086.500</ele>
        <time>2022-07-07T19:47:09Z</time>
        <name>WPT.1379</name>
      </trkpt>
      <trkpt lat="37.025238990" lon="-106.459480260">
        <ele>3085.800</ele>
        <time>2022-07-07T19:47:14Z</time>
        <name>WPT.1380</name>
      </trkpt>
      <trkpt lat="37.025200270" lon="-106.459490540">
        <ele>3085.100</ele>
        <time>2022-07-07T19:47:19Z</time>
        <name>WPT.1381</name>
      </trkpt>
      <trkpt lat="37.025162600" lon="-106.459499810">
        <ele>3085.800</ele>
        <time>2022-07-07T19:47:23Z</time>
        <name>WPT.1382</name>
      </trkpt>
      <trkpt lat="37.025127300" lon="-106.459471560">
        <ele>3086.200</ele>
        <time>2022-07-07T19:47:27Z</time>
        <name>WPT.1383</name>
      </trkpt>
      <trkpt lat="37.025101040" lon="-106.459437130">
        <ele>3086.400</ele>
        <time>2022-07-07T19:47:31Z</time>
        <name>WPT.1384</name>
      </trkpt>
      <trkpt lat="37.025069010" lon="-106.459409370">
        <ele>3085.000</ele>
        <time>2022-07-07T19:47:35Z</time>
        <name>WPT.1385</name>
      </trkpt>
      <trkpt lat="37.025033050" lon="-106.459381060">
        <ele>3086.100</ele>
        <time>2022-07-07T19:47:41Z</time>
        <name>WPT.1386</name>
      </trkpt>
      <trkpt lat="37.025012380" lon="-106.459341340">
        <ele>3084.300</ele>
        <time>2022-07-07T19:47:46Z</time>
        <name>WPT.1387</name>
      </trkpt>
      <trkpt lat="37.024983740" lon="-106.459303690">
        <ele>3082.900</ele>
        <time>2022-07-07T19:47:51Z</time>
        <name>WPT.1388</name>
      </trkpt>
      <trkpt lat="37.024960640" lon="-106.459261710">
        <ele>3082.100</ele>
        <time>2022-07-07T19:47:56Z</time>
        <name>WPT.1389</name>
      </trkpt>
      <trkpt lat="37.024942400" lon="-106.459218980">
        <ele>3080.500</ele>
        <time>2022-07-07T19:48:01Z</time>
        <name>WPT.1390</name>
      </trkpt>
      <trkpt lat="37.024922510" lon="-106.459181120">
        <ele>3081.500</ele>
        <time>2022-07-07T19:48:12Z</time>
        <name>WPT.1391</name>
      </trkpt>
      <trkpt lat="37.024904320" lon="-106.459132270">
        <ele>3082.400</ele>
        <time>2022-07-07T19:48:17Z</time>
        <name>WPT.1392</name>
      </trkpt>
      <trkpt lat="37.024885960" lon="-106.459083500">
        <ele>3083.700</ele>
        <time>2022-07-07T19:48:21Z</time>
        <name>WPT.1393</name>
      </trkpt>
      <trkpt lat="37.024851450" lon="-106.459047160">
        <ele>3081.300</ele>
        <time>2022-07-07T19:48:26Z</time>
        <name>WPT.1394</name>
      </trkpt>
      <trkpt lat="37.024824680" lon="-106.459015920">
        <ele>3080.100</ele>
        <time>2022-07-07T19:48:30Z</time>
        <name>WPT.1395</name>
      </trkpt>
      <trkpt lat="37.024793460" lon="-106.458981590">
        <ele>3080.600</ele>
        <time>2022-07-07T19:48:35Z</time>
        <name>WPT.1396</name>
      </trkpt>
      <trkpt lat="37.024759530" lon="-106.458952570">
        <ele>3078.600</ele>
        <time>2022-07-07T19:48:40Z</time>
        <name>WPT.1397</name>
      </trkpt>
      <trkpt lat="37.024736250" lon="-106.458913710">
        <ele>3077.900</ele>
        <time>2022-07-07T19:48:46Z</time>
        <name>WPT.1398</name>
      </trkpt>
      <trkpt lat="37.024704670" lon="-106.458879390">
        <ele>3076.700</ele>
        <time>2022-07-07T19:48:51Z</time>
        <name>WPT.1399</name>
      </trkpt>
      <trkpt lat="37.024672240" lon="-106.458852160">
        <ele>3076.100</ele>
        <time>2022-07-07T19:48:55Z</time>
        <name>WPT.1400</name>
      </trkpt>
      <trkpt lat="37.024635020" lon="-106.458820910">
        <ele>3076.100</ele>
        <time>2022-07-07T19:48:59Z</time>
        <name>WPT.1401</name>
      </trkpt>
      <trkpt lat="37.024610460" lon="-106.458787090">
        <ele>3076.000</ele>
        <time>2022-07-07T19:49:46Z</time>
        <name>WPT.1402</name>
      </trkpt>
      <trkpt lat="37.024571040" lon="-106.458759690">
        <ele>3075.700</ele>
        <time>2022-07-07T19:49:52Z</time>
        <name>WPT.1403</name>
      </trkpt>
      <trkpt lat="37.024545760" lon="-106.458726640">
        <ele>3075.400</ele>
        <time>2022-07-07T19:49:55Z</time>
        <name>WPT.1404</name>
      </trkpt>
      <trkpt lat="37.024539600" lon="-106.458674670">
        <ele>3075.000</ele>
        <time>2022-07-07T19:50:00Z</time>
        <name>WPT.1405</name>
      </trkpt>
      <trkpt lat="37.024565430" lon="-106.458628530">
        <ele>3075.800</ele>
        <time>2022-07-07T19:50:05Z</time>
        <name>WPT.1406</name>
      </trkpt>
      <trkpt lat="37.024585270" lon="-106.458583700">
        <ele>3075.700</ele>
        <time>2022-07-07T19:50:09Z</time>
        <name>WPT.1407</name>
      </trkpt>
      <trkpt lat="37.024570850" lon="-106.458541550">
        <ele>3076.100</ele>
        <time>2022-07-07T19:50:12Z</time>
        <name>WPT.1408</name>
      </trkpt>
      <trkpt lat="37.024538930" lon="-106.458508290">
        <ele>3074.700</ele>
        <time>2022-07-07T19:50:16Z</time>
        <name>WPT.1409</name>
      </trkpt>
      <trkpt lat="37.024506450" lon="-106.458467380">
        <ele>3075.100</ele>
        <time>2022-07-07T19:50:20Z</time>
        <name>WPT.1410</name>
      </trkpt>
      <trkpt lat="37.024476610" lon="-106.458427830">
        <ele>3075.700</ele>
        <time>2022-07-07T19:50:24Z</time>
        <name>WPT.1411</name>
      </trkpt>
      <trkpt lat="37.024451180" lon="-106.458388200">
        <ele>3076.200</ele>
        <time>2022-07-07T19:50:28Z</time>
        <name>WPT.1412</name>
      </trkpt>
      <trkpt lat="37.024431890" lon="-106.458341520">
        <ele>3075.500</ele>
        <time>2022-07-07T19:50:57Z</time>
        <name>WPT.1413</name>
      </trkpt>
      <trkpt lat="37.024409120" lon="-106.458301740">
        <ele>3074.500</ele>
        <time>2022-07-07T19:51:01Z</time>
        <name>WPT.1414</name>
      </trkpt>
      <trkpt lat="37.024379580" lon="-106.458259770">
        <ele>3073.500</ele>
        <time>2022-07-07T19:51:06Z</time>
        <name>WPT.1415</name>
      </trkpt>
      <trkpt lat="37.024346030" lon="-106.458221600">
        <ele>3072.900</ele>
        <time>2022-07-07T19:51:11Z</time>
        <name>WPT.1416</name>
      </trkpt>
      <trkpt lat="37.024317710" lon="-106.458182180">
        <ele>3073.100</ele>
        <time>2022-07-07T19:51:15Z</time>
        <name>WPT.1417</name>
      </trkpt>
      <trkpt lat="37.024291960" lon="-106.458140220">
        <ele>3072.900</ele>
        <time>2022-07-07T19:51:19Z</time>
        <name>WPT.1418</name>
      </trkpt>
      <trkpt lat="37.024260680" lon="-106.458104880">
        <ele>3073.200</ele>
        <time>2022-07-07T19:51:23Z</time>
        <name>WPT.1419</name>
      </trkpt>
      <trkpt lat="37.024233710" lon="-106.458070200">
        <ele>3073.100</ele>
        <time>2022-07-07T19:51:27Z</time>
        <name>WPT.1420</name>
      </trkpt>
      <trkpt lat="37.024205580" lon="-106.458030860">
        <ele>3073.200</ele>
        <time>2022-07-07T19:51:32Z</time>
        <name>WPT.1421</name>
      </trkpt>
      <trkpt lat="37.024173990" lon="-106.457998390">
        <ele>3073.100</ele>
        <time>2022-07-07T19:51:36Z</time>
        <name>WPT.1422</name>
      </trkpt>
      <trkpt lat="37.024147910" lon="-106.457967090">
        <ele>3074.800</ele>
        <time>2022-07-07T19:51:57Z</time>
        <name>WPT.1423</name>
      </trkpt>
      <trkpt lat="37.024117100" lon="-106.457926200">
        <ele>3075.300</ele>
        <time>2022-07-07T19:52:02Z</time>
        <name>WPT.1424</name>
      </trkpt>
      <trkpt lat="37.024094950" lon="-106.457890010">
        <ele>3075.400</ele>
        <time>2022-07-07T19:52:05Z</time>
        <name>WPT.1425</name>
      </trkpt>
      <trkpt lat="37.024065710" lon="-106.457845450">
        <ele>3076.100</ele>
        <time>2022-07-07T19:52:09Z</time>
        <name>WPT.1426</name>
      </trkpt>
      <trkpt lat="37.024036200" lon="-106.457811990">
        <ele>3075.800</ele>
        <time>2022-07-07T19:52:13Z</time>
        <name>WPT.1427</name>
      </trkpt>
      <trkpt lat="37.024011880" lon="-106.457777270">
        <ele>3075.500</ele>
        <time>2022-07-07T19:52:17Z</time>
        <name>WPT.1428</name>
      </trkpt>
      <trkpt lat="37.023982010" lon="-106.457746020">
        <ele>3074.800</ele>
        <time>2022-07-07T19:52:21Z</time>
        <name>WPT.1429</name>
      </trkpt>
      <trkpt lat="37.023942600" lon="-106.457720840">
        <ele>3074.900</ele>
        <time>2022-07-07T19:52:25Z</time>
        <name>WPT.1430</name>
      </trkpt>
      <trkpt lat="37.023903360" lon="-106.457694550">
        <ele>3074.300</ele>
        <time>2022-07-07T19:52:29Z</time>
        <name>WPT.1431</name>
      </trkpt>
      <trkpt lat="37.023866120" lon="-106.457665610">
        <ele>3074.100</ele>
        <time>2022-07-07T19:52:34Z</time>
        <name>WPT.1432</name>
      </trkpt>
      <trkpt lat="37.023829110" lon="-106.457633240">
        <ele>3074.200</ele>
        <time>2022-07-07T19:52:39Z</time>
        <name>WPT.1433</name>
      </trkpt>
      <trkpt lat="37.023804290" lon="-106.457598500">
        <ele>3074.300</ele>
        <time>2022-07-07T19:52:43Z</time>
        <name>WPT.1434</name>
      </trkpt>
      <trkpt lat="37.023774920" lon="-106.457555550">
        <ele>3074.700</ele>
        <time>2022-07-07T19:52:48Z</time>
        <name>WPT.1435</name>
      </trkpt>
      <trkpt lat="37.023744950" lon="-106.457523650">
        <ele>3075.100</ele>
        <time>2022-07-07T19:52:52Z</time>
        <name>WPT.1436</name>
      </trkpt>
      <trkpt lat="37.023715840" lon="-106.457492740">
        <ele>3075.400</ele>
        <time>2022-07-07T19:52:56Z</time>
        <name>WPT.1437</name>
      </trkpt>
      <trkpt lat="37.023684060" lon="-106.457467080">
        <ele>3075.200</ele>
        <time>2022-07-07T19:53:00Z</time>
        <name>WPT.1438</name>
      </trkpt>
      <trkpt lat="37.023647650" lon="-106.457463190">
        <ele>3075.300</ele>
        <time>2022-07-07T19:53:13Z</time>
        <name>WPT.1439</name>
      </trkpt>
      <trkpt lat="37.023604740" lon="-106.457460720">
        <ele>3075.200</ele>
        <time>2022-07-07T19:53:17Z</time>
        <name>WPT.1440</name>
      </trkpt>
      <trkpt lat="37.023568110" lon="-106.457461230">
        <ele>3075.400</ele>
        <time>2022-07-07T19:53:20Z</time>
        <name>WPT.1441</name>
      </trkpt>
      <trkpt lat="37.023530060" lon="-106.457461740">
        <ele>3075.800</ele>
        <time>2022-07-07T19:53:23Z</time>
        <name>WPT.1442</name>
      </trkpt>
      <trkpt lat="37.023488560" lon="-106.457443620">
        <ele>3076.800</ele>
        <time>2022-07-07T19:53:28Z</time>
        <name>WPT.1443</name>
      </trkpt>
      <trkpt lat="37.023466430" lon="-106.457402900">
        <ele>3077.200</ele>
        <time>2022-07-07T19:53:32Z</time>
        <name>WPT.1444</name>
      </trkpt>
      <trkpt lat="37.023446020" lon="-106.457356390">
        <ele>3077.600</ele>
        <time>2022-07-07T19:53:36Z</time>
        <name>WPT.1445</name>
      </trkpt>
      <trkpt lat="37.023427310" lon="-106.457314270">
        <ele>3078.400</ele>
        <time>2022-07-07T19:53:40Z</time>
        <name>WPT.1446</name>
      </trkpt>
      <trkpt lat="37.023394490" lon="-106.457277590">
        <ele>3078.300</ele>
        <time>2022-07-07T19:53:44Z</time>
        <name>WPT.1447</name>
      </trkpt>
      <trkpt lat="37.023362720" lon="-106.457255290">
        <ele>3078.500</ele>
        <time>2022-07-07T19:53:47Z</time>
        <name>WPT.1448</name>
      </trkpt>
      <trkpt lat="37.023327860" lon="-106.457228730">
        <ele>3079.400</ele>
        <time>2022-07-07T19:53:51Z</time>
        <name>WPT.1449</name>
      </trkpt>
      <trkpt lat="37.023287030" lon="-106.457218300">
        <ele>3079.800</ele>
        <time>2022-07-07T19:53:55Z</time>
        <name>WPT.1450</name>
      </trkpt>
      <trkpt lat="37.023246960" lon="-106.457210610">
        <ele>3079.500</ele>
        <time>2022-07-07T19:53:59Z</time>
        <name>WPT.1451</name>
      </trkpt>
      <trkpt lat="37.023205350" lon="-106.457203040">
        <ele>3078.900</ele>
        <time>2022-07-07T19:54:17Z</time>
        <name>WPT.1452</name>
      </trkpt>
      <trkpt lat="37.023173060" lon="-106.457179910">
        <ele>3078.700</ele>
        <time>2022-07-07T19:54:21Z</time>
        <name>WPT.1453</name>
      </trkpt>
      <trkpt lat="37.023145070" lon="-106.457150380">
        <ele>3078.900</ele>
        <time>2022-07-07T19:54:27Z</time>
        <name>WPT.1454</name>
      </trkpt>
      <trkpt lat="37.023116130" lon="-106.457122930">
        <ele>3078.600</ele>
        <time>2022-07-07T19:54:31Z</time>
        <name>WPT.1455</name>
      </trkpt>
      <trkpt lat="37.023082280" lon="-106.457099790">
        <ele>3077.800</ele>
        <time>2022-07-07T19:54:35Z</time>
        <name>WPT.1456</name>
      </trkpt>
      <trkpt lat="37.023047770" lon="-106.457079160">
        <ele>3077.000</ele>
        <time>2022-07-07T19:54:40Z</time>
        <name>WPT.1457</name>
      </trkpt>
      <trkpt lat="37.023013490" lon="-106.457053030">
        <ele>3076.900</ele>
        <time>2022-07-07T19:54:44Z</time>
        <name>WPT.1458</name>
      </trkpt>
      <trkpt lat="37.022978440" lon="-106.457024010">
        <ele>3077.100</ele>
        <time>2022-07-07T19:54:48Z</time>
        <name>WPT.1459</name>
      </trkpt>
      <trkpt lat="37.022945320" lon="-106.457002750">
        <ele>3077.300</ele>
        <time>2022-07-07T19:54:52Z</time>
        <name>WPT.1460</name>
      </trkpt>
      <trkpt lat="37.022907480" lon="-106.456980540">
        <ele>3077.400</ele>
        <time>2022-07-07T19:54:56Z</time>
        <name>WPT.1461</name>
      </trkpt>
      <trkpt lat="37.022862510" lon="-106.456968520">
        <ele>3077.400</ele>
        <time>2022-07-07T19:55:01Z</time>
        <name>WPT.1462</name>
      </trkpt>
      <trkpt lat="37.022824810" lon="-106.456964500">
        <ele>3077.400</ele>
        <time>2022-07-07T19:55:05Z</time>
        <name>WPT.1463</name>
      </trkpt>
      <trkpt lat="37.022788340" lon="-106.456949440">
        <ele>3077.200</ele>
        <time>2022-07-07T19:55:09Z</time>
        <name>WPT.1464</name>
      </trkpt>
      <trkpt lat="37.022751750" lon="-106.456937100">
        <ele>3076.000</ele>
        <time>2022-07-07T19:55:13Z</time>
        <name>WPT.1465</name>
      </trkpt>
      <trkpt lat="37.022716300" lon="-106.456914660">
        <ele>3075.700</ele>
        <time>2022-07-07T19:55:17Z</time>
        <name>WPT.1466</name>
      </trkpt>
      <trkpt lat="37.022684750" lon="-106.456890720">
        <ele>3076.400</ele>
        <time>2022-07-07T19:55:25Z</time>
        <name>WPT.1467</name>
      </trkpt>
      <trkpt lat="37.022649320" lon="-106.456856570">
        <ele>3075.900</ele>
        <time>2022-07-07T19:55:29Z</time>
        <name>WPT.1468</name>
      </trkpt>
      <trkpt lat="37.022623020" lon="-106.456813790">
        <ele>3075.800</ele>
        <time>2022-07-07T19:55:33Z</time>
        <name>WPT.1469</name>
      </trkpt>
      <trkpt lat="37.022618070" lon="-106.456762030">
        <ele>3074.700</ele>
        <time>2022-07-07T19:55:37Z</time>
        <name>WPT.1470</name>
      </trkpt>
      <trkpt lat="37.022620320" lon="-106.456710290">
        <ele>3074.000</ele>
        <time>2022-07-07T19:55:41Z</time>
        <name>WPT.1471</name>
      </trkpt>
      <trkpt lat="37.022628270" lon="-106.456660280">
        <ele>3073.000</ele>
        <time>2022-07-07T19:55:45Z</time>
        <name>WPT.1472</name>
      </trkpt>
      <trkpt lat="37.022647190" lon="-106.456615370">
        <ele>3073.400</ele>
        <time>2022-07-07T19:55:49Z</time>
        <name>WPT.1473</name>
      </trkpt>
      <trkpt lat="37.022678390" lon="-106.456577530">
        <ele>3072.900</ele>
        <time>2022-07-07T19:55:53Z</time>
        <name>WPT.1474</name>
      </trkpt>
      <trkpt lat="37.022689210" lon="-106.456532630">
        <ele>3073.300</ele>
        <time>2022-07-07T19:55:56Z</time>
        <name>WPT.1475</name>
      </trkpt>
      <trkpt lat="37.022673920" lon="-106.456483280">
        <ele>3073.400</ele>
        <time>2022-07-07T19:56:00Z</time>
        <name>WPT.1476</name>
      </trkpt>
      <trkpt lat="37.022645620" lon="-106.456454070">
        <ele>3073.200</ele>
        <time>2022-07-07T19:56:03Z</time>
        <name>WPT.1477</name>
      </trkpt>
      <trkpt lat="37.022614830" lon="-106.456420120">
        <ele>3072.500</ele>
        <time>2022-07-07T19:56:07Z</time>
        <name>WPT.1478</name>
      </trkpt>
      <trkpt lat="37.022582890" lon="-106.456390350">
        <ele>3072.200</ele>
        <time>2022-07-07T19:56:11Z</time>
        <name>WPT.1479</name>
      </trkpt>
      <trkpt lat="37.022548350" lon="-106.456361960">
        <ele>3072.100</ele>
        <time>2022-07-07T19:56:15Z</time>
        <name>WPT.1480</name>
      </trkpt>
      <trkpt lat="37.022509370" lon="-106.456339860">
        <ele>3071.500</ele>
        <time>2022-07-07T19:56:19Z</time>
        <name>WPT.1481</name>
      </trkpt>
      <trkpt lat="37.022469130" lon="-106.456323790">
        <ele>3071.400</ele>
        <time>2022-07-07T19:56:23Z</time>
        <name>WPT.1482</name>
      </trkpt>
      <trkpt lat="37.022426520" lon="-106.456311740">
        <ele>3071.700</ele>
        <time>2022-07-07T19:56:27Z</time>
        <name>WPT.1483</name>
      </trkpt>
      <trkpt lat="37.022388250" lon="-106.456309010">
        <ele>3071.600</ele>
        <time>2022-07-07T19:56:30Z</time>
        <name>WPT.1484</name>
      </trkpt>
      <trkpt lat="37.022347790" lon="-106.456294010">
        <ele>3073.300</ele>
        <time>2022-07-07T19:56:35Z</time>
        <name>WPT.1485</name>
      </trkpt>
      <trkpt lat="37.022308910" lon="-106.456290460">
        <ele>3075.500</ele>
        <time>2022-07-07T19:58:09Z</time>
        <name>WPT.1486</name>
      </trkpt>
      <trkpt lat="37.022274580" lon="-106.456305730">
        <ele>3075.900</ele>
        <time>2022-07-07T19:58:13Z</time>
        <name>WPT.1487</name>
      </trkpt>
      <trkpt lat="37.022239030" lon="-106.456329650">
        <ele>3075.700</ele>
        <time>2022-07-07T19:58:17Z</time>
        <name>WPT.1488</name>
      </trkpt>
      <trkpt lat="37.022202260" lon="-106.456362150">
        <ele>3076.100</ele>
        <time>2022-07-07T19:58:22Z</time>
        <name>WPT.1489</name>
      </trkpt>
      <trkpt lat="37.022170830" lon="-106.456389320">
        <ele>3076.200</ele>
        <time>2022-07-07T19:58:26Z</time>
        <name>WPT.1490</name>
      </trkpt>
      <trkpt lat="37.022131970" lon="-106.456421800">
        <ele>3076.100</ele>
        <time>2022-07-07T19:58:30Z</time>
        <name>WPT.1491</name>
      </trkpt>
      <trkpt lat="37.022095380" lon="-106.456461710">
        <ele>3074.900</ele>
        <time>2022-07-07T19:58:34Z</time>
        <name>WPT.1492</name>
      </trkpt>
      <trkpt lat="37.022063270" lon="-106.456482650">
        <ele>3074.900</ele>
        <time>2022-07-07T19:58:37Z</time>
        <name>WPT.1493</name>
      </trkpt>
      <trkpt lat="37.022025570" lon="-106.456517980">
        <ele>3074.300</ele>
        <time>2022-07-07T19:58:41Z</time>
        <name>WPT.1494</name>
      </trkpt>
      <trkpt lat="37.021995700" lon="-106.456546170">
        <ele>3074.600</ele>
        <time>2022-07-07T19:58:44Z</time>
        <name>WPT.1495</name>
      </trkpt>
      <trkpt lat="37.021970090" lon="-106.456588980">
        <ele>3074.400</ele>
        <time>2022-07-07T19:58:48Z</time>
        <name>WPT.1496</name>
      </trkpt>
      <trkpt lat="37.021937100" lon="-106.456613710">
        <ele>3073.900</ele>
        <time>2022-07-07T19:58:51Z</time>
        <name>WPT.1497</name>
      </trkpt>
      <trkpt lat="37.021904300" lon="-106.456632560">
        <ele>3074.000</ele>
        <time>2022-07-07T19:58:54Z</time>
        <name>WPT.1498</name>
      </trkpt>
      <trkpt lat="37.021872970" lon="-106.456667710">
        <ele>3073.600</ele>
        <time>2022-07-07T19:58:58Z</time>
        <name>WPT.1499</name>
      </trkpt>
      <trkpt lat="37.021845320" lon="-106.456696580">
        <ele>3073.400</ele>
        <time>2022-07-07T19:59:01Z</time>
        <name>WPT.1500</name>
      </trkpt>
      <trkpt lat="37.021806580" lon="-106.456723670">
        <ele>3073.900</ele>
        <time>2022-07-07T19:59:05Z</time>
        <name>WPT.1501</name>
      </trkpt>
      <trkpt lat="37.021765630" lon="-106.456740730">
        <ele>3073.600</ele>
        <time>2022-07-07T19:59:09Z</time>
        <name>WPT.1502</name>
      </trkpt>
      <trkpt lat="37.021722710" lon="-106.456751930">
        <ele>3073.400</ele>
        <time>2022-07-07T19:59:13Z</time>
        <name>WPT.1503</name>
      </trkpt>
      <trkpt lat="37.021680880" lon="-106.456754210">
        <ele>3073.600</ele>
        <time>2022-07-07T19:59:17Z</time>
        <name>WPT.1504</name>
      </trkpt>
      <trkpt lat="37.021643310" lon="-106.456757230">
        <ele>3073.100</ele>
        <time>2022-07-07T19:59:21Z</time>
        <name>WPT.1505</name>
      </trkpt>
      <trkpt lat="37.021605740" lon="-106.456756240">
        <ele>3073.500</ele>
        <time>2022-07-07T19:59:24Z</time>
        <name>WPT.1506</name>
      </trkpt>
      <trkpt lat="37.021559400" lon="-106.456757930">
        <ele>3072.700</ele>
        <time>2022-07-07T19:59:28Z</time>
        <name>WPT.1507</name>
      </trkpt>
      <trkpt lat="37.021521780" lon="-106.456767740">
        <ele>3072.000</ele>
        <time>2022-07-07T19:59:31Z</time>
        <name>WPT.1508</name>
      </trkpt>
      <trkpt lat="37.021483080" lon="-106.456775290">
        <ele>3071.700</ele>
        <time>2022-07-07T19:59:34Z</time>
        <name>WPT.1509</name>
      </trkpt>
      <trkpt lat="37.021441040" lon="-106.456800270">
        <ele>3072.400</ele>
        <time>2022-07-07T19:59:38Z</time>
        <name>WPT.1510</name>
      </trkpt>
      <trkpt lat="37.021401330" lon="-106.456811810">
        <ele>3072.000</ele>
        <time>2022-07-07T19:59:42Z</time>
        <name>WPT.1511</name>
      </trkpt>
      <trkpt lat="37.021356160" lon="-106.456827940">
        <ele>3072.900</ele>
        <time>2022-07-07T19:59:46Z</time>
        <name>WPT.1512</name>
      </trkpt>
      <trkpt lat="37.021313710" lon="-106.456847840">
        <ele>3072.400</ele>
        <time>2022-07-07T19:59:50Z</time>
        <name>WPT.1513</name>
      </trkpt>
      <trkpt lat="37.021276310" lon="-106.456862300">
        <ele>3072.000</ele>
        <time>2022-07-07T19:59:54Z</time>
        <name>WPT.1514</name>
      </trkpt>
      <trkpt lat="37.021229610" lon="-106.456871470">
        <ele>3071.800</ele>
        <time>2022-07-07T19:59:58Z</time>
        <name>WPT.1515</name>
      </trkpt>
      <trkpt lat="37.021184570" lon="-106.456871770">
        <ele>3071.500</ele>
        <time>2022-07-07T20:00:02Z</time>
        <name>WPT.1516</name>
      </trkpt>
      <trkpt lat="37.021138670" lon="-106.456885990">
        <ele>3070.900</ele>
        <time>2022-07-07T20:00:06Z</time>
        <name>WPT.1517</name>
      </trkpt>
      <trkpt lat="37.021101300" lon="-106.456905010">
        <ele>3070.600</ele>
        <time>2022-07-07T20:00:09Z</time>
        <name>WPT.1518</name>
      </trkpt>
      <trkpt lat="37.021058360" lon="-106.456930880">
        <ele>3071.000</ele>
        <time>2022-07-07T20:00:13Z</time>
        <name>WPT.1519</name>
      </trkpt>
      <trkpt lat="37.021016640" lon="-106.456946580">
        <ele>3071.200</ele>
        <time>2022-07-07T20:00:17Z</time>
        <name>WPT.1520</name>
      </trkpt>
      <trkpt lat="37.020975160" lon="-106.456941150">
        <ele>3070.700</ele>
        <time>2022-07-07T20:00:21Z</time>
        <name>WPT.1521</name>
      </trkpt>
      <trkpt lat="37.020935920" lon="-106.456938330">
        <ele>3070.000</ele>
        <time>2022-07-07T20:00:25Z</time>
        <name>WPT.1522</name>
      </trkpt>
      <trkpt lat="37.020896780" lon="-106.456930770">
        <ele>3069.200</ele>
        <time>2022-07-07T20:00:29Z</time>
        <name>WPT.1523</name>
      </trkpt>
      <trkpt lat="37.020853110" lon="-106.456912960">
        <ele>3068.900</ele>
        <time>2022-07-07T20:00:33Z</time>
        <name>WPT.1524</name>
      </trkpt>
      <trkpt lat="37.020818870" lon="-106.456878830">
        <ele>3068.200</ele>
        <time>2022-07-07T20:00:37Z</time>
        <name>WPT.1525</name>
      </trkpt>
      <trkpt lat="37.020795270" lon="-106.456844170">
        <ele>3067.300</ele>
        <time>2022-07-07T20:00:41Z</time>
        <name>WPT.1526</name>
      </trkpt>
      <trkpt lat="37.020767380" lon="-106.456810970">
        <ele>3066.600</ele>
        <time>2022-07-07T20:00:45Z</time>
        <name>WPT.1527</name>
      </trkpt>
      <trkpt lat="37.020748100" lon="-106.456762630">
        <ele>3065.400</ele>
        <time>2022-07-07T20:00:50Z</time>
        <name>WPT.1528</name>
      </trkpt>
      <trkpt lat="37.020742870" lon="-106.456708370">
        <ele>3064.300</ele>
        <time>2022-07-07T20:00:54Z</time>
        <name>WPT.1529</name>
      </trkpt>
      <trkpt lat="37.020743430" lon="-106.456658460">
        <ele>3063.600</ele>
        <time>2022-07-07T20:00:58Z</time>
        <name>WPT.1530</name>
      </trkpt>
      <trkpt lat="37.020746520" lon="-106.456612710">
        <ele>3063.300</ele>
        <time>2022-07-07T20:01:02Z</time>
        <name>WPT.1531</name>
      </trkpt>
      <trkpt lat="37.020756830" lon="-106.456565640">
        <ele>3062.500</ele>
        <time>2022-07-07T20:01:20Z</time>
        <name>WPT.1532</name>
      </trkpt>
      <trkpt lat="37.020767710" lon="-106.456509730">
        <ele>3062.800</ele>
        <time>2022-07-07T20:01:24Z</time>
        <name>WPT.1533</name>
      </trkpt>
      <trkpt lat="37.020773650" lon="-106.456455940">
        <ele>3062.800</ele>
        <time>2022-07-07T20:01:28Z</time>
        <name>WPT.1534</name>
      </trkpt>
      <trkpt lat="37.020782300" lon="-106.456405610">
        <ele>3062.400</ele>
        <time>2022-07-07T20:01:32Z</time>
        <name>WPT.1535</name>
      </trkpt>
      <trkpt lat="37.020789450" lon="-106.456354370">
        <ele>3062.800</ele>
        <time>2022-07-07T20:01:36Z</time>
        <name>WPT.1536</name>
      </trkpt>
      <trkpt lat="37.020784960" lon="-106.456305470">
        <ele>3062.600</ele>
        <time>2022-07-07T20:01:40Z</time>
        <name>WPT.1537</name>
      </trkpt>
      <trkpt lat="37.020784410" lon="-106.456254390">
        <ele>3062.600</ele>
        <time>2022-07-07T20:01:44Z</time>
        <name>WPT.1538</name>
      </trkpt>
      <trkpt lat="37.020786760" lon="-106.456203680">
        <ele>3062.300</ele>
        <time>2022-07-07T20:01:48Z</time>
        <name>WPT.1539</name>
      </trkpt>
      <trkpt lat="37.020785700" lon="-106.456151810">
        <ele>3061.400</ele>
        <time>2022-07-07T20:01:52Z</time>
        <name>WPT.1540</name>
      </trkpt>
      <trkpt lat="37.020778920" lon="-106.456107530">
        <ele>3059.900</ele>
        <time>2022-07-07T20:01:56Z</time>
        <name>WPT.1541</name>
      </trkpt>
      <trkpt lat="37.020765420" lon="-106.456065380">
        <ele>3060.100</ele>
        <time>2022-07-07T20:02:00Z</time>
        <name>WPT.1542</name>
      </trkpt>
      <trkpt lat="37.020754770" lon="-106.456020740">
        <ele>3059.300</ele>
        <time>2022-07-07T20:02:05Z</time>
        <name>WPT.1543</name>
      </trkpt>
      <trkpt lat="37.020743430" lon="-106.455971420">
        <ele>3058.700</ele>
        <time>2022-07-07T20:02:09Z</time>
        <name>WPT.1544</name>
      </trkpt>
      <trkpt lat="37.020731400" lon="-106.455919990">
        <ele>3057.600</ele>
        <time>2022-07-07T20:02:13Z</time>
        <name>WPT.1545</name>
      </trkpt>
      <trkpt lat="37.020723840" lon="-106.455875950">
        <ele>3056.700</ele>
        <time>2022-07-07T20:02:17Z</time>
        <name>WPT.1546</name>
      </trkpt>
      <trkpt lat="37.020712650" lon="-106.455832510">
        <ele>3056.000</ele>
        <time>2022-07-07T20:02:21Z</time>
        <name>WPT.1547</name>
      </trkpt>
      <trkpt lat="37.020703540" lon="-106.455780960">
        <ele>3055.300</ele>
        <time>2022-07-07T20:02:26Z</time>
        <name>WPT.1548</name>
      </trkpt>
      <trkpt lat="37.020704740" lon="-106.455730930">
        <ele>3054.700</ele>
        <time>2022-07-07T20:02:31Z</time>
        <name>WPT.1549</name>
      </trkpt>
      <trkpt lat="37.020711280" lon="-106.455678840">
        <ele>3054.400</ele>
        <time>2022-07-07T20:02:36Z</time>
        <name>WPT.1550</name>
      </trkpt>
      <trkpt lat="37.020709170" lon="-106.455631090">
        <ele>3053.900</ele>
        <time>2022-07-07T20:02:40Z</time>
        <name>WPT.1551</name>
      </trkpt>
      <trkpt lat="37.020705400" lon="-106.455580490">
        <ele>3053.700</ele>
        <time>2022-07-07T20:02:44Z</time>
        <name>WPT.1552</name>
      </trkpt>
      <trkpt lat="37.020712250" lon="-106.455533920">
        <ele>3054.200</ele>
        <time>2022-07-07T20:02:48Z</time>
        <name>WPT.1553</name>
      </trkpt>
      <trkpt lat="37.020721280" lon="-106.455481330">
        <ele>3053.900</ele>
        <time>2022-07-07T20:02:53Z</time>
        <name>WPT.1554</name>
      </trkpt>
      <trkpt lat="37.020733680" lon="-106.455436960">
        <ele>3053.200</ele>
        <time>2022-07-07T20:03:09Z</time>
        <name>WPT.1555</name>
      </trkpt>
      <trkpt lat="37.020743500" lon="-106.455392020">
        <ele>3052.900</ele>
        <time>2022-07-07T20:03:15Z</time>
        <name>WPT.1556</name>
      </trkpt>
      <trkpt lat="37.020756890" lon="-106.455349960">
        <ele>3052.700</ele>
        <time>2022-07-07T20:03:19Z</time>
        <name>WPT.1557</name>
      </trkpt>
      <trkpt lat="37.020764690" lon="-106.455304170">
        <ele>3052.900</ele>
        <time>2022-07-07T20:03:25Z</time>
        <name>WPT.1558</name>
      </trkpt>
      <trkpt lat="37.020768130" lon="-106.455256410">
        <ele>3052.000</ele>
        <time>2022-07-07T20:03:34Z</time>
        <name>WPT.1559</name>
      </trkpt>
      <trkpt lat="37.020764950" lon="-106.455209150">
        <ele>3050.900</ele>
        <time>2022-07-07T20:04:00Z</time>
        <name>WPT.1560</name>
      </trkpt>
      <trkpt lat="37.020767680" lon="-106.455153010">
        <ele>3050.800</ele>
        <time>2022-07-07T20:04:05Z</time>
        <name>WPT.1561</name>
      </trkpt>
      <trkpt lat="37.020770090" lon="-106.455103520">
        <ele>3051.400</ele>
        <time>2022-07-07T20:04:09Z</time>
        <name>WPT.1562</name>
      </trkpt>
      <trkpt lat="37.020779250" lon="-106.455050460">
        <ele>3051.300</ele>
        <time>2022-07-07T20:04:13Z</time>
        <name>WPT.1563</name>
      </trkpt>
      <trkpt lat="37.020785950" lon="-106.455002070">
        <ele>3050.000</ele>
        <time>2022-07-07T20:04:17Z</time>
        <name>WPT.1564</name>
      </trkpt>
      <trkpt lat="37.020795140" lon="-106.454951830">
        <ele>3049.400</ele>
        <time>2022-07-07T20:04:21Z</time>
        <name>WPT.1565</name>
      </trkpt>
      <trkpt lat="37.020802690" lon="-106.454904410">
        <ele>3049.200</ele>
        <time>2022-07-07T20:04:25Z</time>
        <name>WPT.1566</name>
      </trkpt>
      <trkpt lat="37.020813330" lon="-106.454852590">
        <ele>3049.500</ele>
        <time>2022-07-07T20:04:29Z</time>
        <name>WPT.1567</name>
      </trkpt>
      <trkpt lat="37.020830260" lon="-106.454806970">
        <ele>3049.200</ele>
        <time>2022-07-07T20:04:32Z</time>
        <name>WPT.1568</name>
      </trkpt>
      <trkpt lat="37.020838700" lon="-106.454752720">
        <ele>3048.400</ele>
        <time>2022-07-07T20:04:37Z</time>
        <name>WPT.1569</name>
      </trkpt>
      <trkpt lat="37.020840170" lon="-106.454706820">
        <ele>3047.700</ele>
        <time>2022-07-07T20:04:41Z</time>
        <name>WPT.1570</name>
      </trkpt>
      <trkpt lat="37.020845160" lon="-106.454661960">
        <ele>3047.500</ele>
        <time>2022-07-07T20:04:45Z</time>
        <name>WPT.1571</name>
      </trkpt>
      <trkpt lat="37.020851550" lon="-106.454615310">
        <ele>3046.900</ele>
        <time>2022-07-07T20:04:49Z</time>
        <name>WPT.1572</name>
      </trkpt>
      <trkpt lat="37.020867810" lon="-106.454568370">
        <ele>3047.800</ele>
        <time>2022-07-07T20:04:53Z</time>
        <name>WPT.1573</name>
      </trkpt>
      <trkpt lat="37.020877210" lon="-106.454512600">
        <ele>3048.200</ele>
        <time>2022-07-07T20:04:57Z</time>
        <name>WPT.1574</name>
      </trkpt>
      <trkpt lat="37.020881390" lon="-106.454461500">
        <ele>3047.300</ele>
        <time>2022-07-07T20:05:01Z</time>
        <name>WPT.1575</name>
      </trkpt>
      <trkpt lat="37.020882120" lon="-106.454405920">
        <ele>3047.100</ele>
        <time>2022-07-07T20:05:05Z</time>
        <name>WPT.1576</name>
      </trkpt>
      <trkpt lat="37.020874230" lon="-106.454355550">
        <ele>3047.200</ele>
        <time>2022-07-07T20:05:09Z</time>
        <name>WPT.1577</name>
      </trkpt>
      <trkpt lat="37.020867070" lon="-106.454304660">
        <ele>3046.000</ele>
        <time>2022-07-07T20:05:13Z</time>
        <name>WPT.1578</name>
      </trkpt>
      <trkpt lat="37.020856530" lon="-106.454258630">
        <ele>3045.300</ele>
        <time>2022-07-07T20:05:17Z</time>
        <name>WPT.1579</name>
      </trkpt>
      <trkpt lat="37.020851350" lon="-106.454211130">
        <ele>3044.500</ele>
        <time>2022-07-07T20:05:21Z</time>
        <name>WPT.1580</name>
      </trkpt>
      <trkpt lat="37.020852780" lon="-106.454161060">
        <ele>3044.300</ele>
        <time>2022-07-07T20:05:26Z</time>
        <name>WPT.1581</name>
      </trkpt>
      <trkpt lat="37.020851100" lon="-106.454107250">
        <ele>3044.000</ele>
        <time>2022-07-07T20:05:31Z</time>
        <name>WPT.1582</name>
      </trkpt>
      <trkpt lat="37.020850740" lon="-106.454053580">
        <ele>3042.700</ele>
        <time>2022-07-07T20:05:36Z</time>
        <name>WPT.1583</name>
      </trkpt>
      <trkpt lat="37.020847160" lon="-106.454006140">
        <ele>3042.100</ele>
        <time>2022-07-07T20:05:40Z</time>
        <name>WPT.1584</name>
      </trkpt>
      <trkpt lat="37.020846310" lon="-106.453957720">
        <ele>3042.800</ele>
        <time>2022-07-07T20:05:44Z</time>
        <name>WPT.1585</name>
      </trkpt>
      <trkpt lat="37.020847030" lon="-106.453909880">
        <ele>3042.200</ele>
        <time>2022-07-07T20:05:48Z</time>
        <name>WPT.1586</name>
      </trkpt>
      <trkpt lat="37.020850790" lon="-106.453857000">
        <ele>3041.200</ele>
        <time>2022-07-07T20:05:52Z</time>
        <name>WPT.1587</name>
      </trkpt>
      <trkpt lat="37.020845430" lon="-106.453809790">
        <ele>3040.700</ele>
        <time>2022-07-07T20:05:56Z</time>
        <name>WPT.1588</name>
      </trkpt>
      <trkpt lat="37.020847480" lon="-106.453762840">
        <ele>3041.200</ele>
        <time>2022-07-07T20:06:00Z</time>
        <name>WPT.1589</name>
      </trkpt>
      <trkpt lat="37.020838410" lon="-106.453705780">
        <ele>3041.900</ele>
        <time>2022-07-07T20:06:05Z</time>
        <name>WPT.1590</name>
      </trkpt>
      <trkpt lat="37.020833760" lon="-106.453659900">
        <ele>3040.400</ele>
        <time>2022-07-07T20:06:09Z</time>
        <name>WPT.1591</name>
      </trkpt>
      <trkpt lat="37.020827430" lon="-106.453612890">
        <ele>3039.400</ele>
        <time>2022-07-07T20:06:13Z</time>
        <name>WPT.1592</name>
      </trkpt>
      <trkpt lat="37.020808760" lon="-106.453570910">
        <ele>3038.200</ele>
        <time>2022-07-07T20:06:17Z</time>
        <name>WPT.1593</name>
      </trkpt>
      <trkpt lat="37.020792640" lon="-106.453522990">
        <ele>3037.700</ele>
        <time>2022-07-07T20:06:22Z</time>
        <name>WPT.1594</name>
      </trkpt>
      <trkpt lat="37.020777520" lon="-106.453464580">
        <ele>3040.100</ele>
        <time>2022-07-07T20:06:27Z</time>
        <name>WPT.1595</name>
      </trkpt>
      <trkpt lat="37.020765220" lon="-106.453413020">
        <ele>3040.400</ele>
        <time>2022-07-07T20:06:32Z</time>
        <name>WPT.1596</name>
      </trkpt>
      <trkpt lat="37.020743680" lon="-106.453367040">
        <ele>3040.000</ele>
        <time>2022-07-07T20:06:36Z</time>
        <name>WPT.1597</name>
      </trkpt>
      <trkpt lat="37.020727920" lon="-106.453317950">
        <ele>3040.200</ele>
        <time>2022-07-07T20:06:40Z</time>
        <name>WPT.1598</name>
      </trkpt>
      <trkpt lat="37.020707010" lon="-106.453275040">
        <ele>3039.400</ele>
        <time>2022-07-07T20:06:44Z</time>
        <name>WPT.1599</name>
      </trkpt>
      <trkpt lat="37.020683350" lon="-106.453227030">
        <ele>3039.300</ele>
        <time>2022-07-07T20:06:48Z</time>
        <name>WPT.1600</name>
      </trkpt>
      <trkpt lat="37.020652220" lon="-106.453193170">
        <ele>3038.500</ele>
        <time>2022-07-07T20:06:52Z</time>
        <name>WPT.1601</name>
      </trkpt>
      <trkpt lat="37.020616960" lon="-106.453178990">
        <ele>3038.700</ele>
        <time>2022-07-07T20:06:57Z</time>
        <name>WPT.1602</name>
      </trkpt>
      <trkpt lat="37.020573340" lon="-106.453165110">
        <ele>3038.000</ele>
        <time>2022-07-07T20:07:02Z</time>
        <name>WPT.1603</name>
      </trkpt>
      <trkpt lat="37.020530180" lon="-106.453156380">
        <ele>3036.800</ele>
        <time>2022-07-07T20:07:06Z</time>
        <name>WPT.1604</name>
      </trkpt>
      <trkpt lat="37.020486770" lon="-106.453149190">
        <ele>3036.800</ele>
        <time>2022-07-07T20:07:10Z</time>
        <name>WPT.1605</name>
      </trkpt>
      <trkpt lat="37.020448810" lon="-106.453140980">
        <ele>3037.000</ele>
        <time>2022-07-07T20:07:13Z</time>
        <name>WPT.1606</name>
      </trkpt>
      <trkpt lat="37.020408300" lon="-106.453130930">
        <ele>3037.700</ele>
        <time>2022-07-07T20:07:17Z</time>
        <name>WPT.1607</name>
      </trkpt>
      <trkpt lat="37.020365840" lon="-106.453125440">
        <ele>3037.400</ele>
        <time>2022-07-07T20:07:22Z</time>
        <name>WPT.1608</name>
      </trkpt>
      <trkpt lat="37.020322340" lon="-106.453124520">
        <ele>3037.800</ele>
        <time>2022-07-07T20:07:27Z</time>
        <name>WPT.1609</name>
      </trkpt>
      <trkpt lat="37.020283240" lon="-106.453110210">
        <ele>3038.500</ele>
        <time>2022-07-07T20:07:31Z</time>
        <name>WPT.1610</name>
      </trkpt>
      <trkpt lat="37.020238030" lon="-106.453098810">
        <ele>3038.700</ele>
        <time>2022-07-07T20:07:35Z</time>
        <name>WPT.1611</name>
      </trkpt>
      <trkpt lat="37.020200200" lon="-106.453090100">
        <ele>3039.600</ele>
        <time>2022-07-07T20:07:39Z</time>
        <name>WPT.1612</name>
      </trkpt>
      <trkpt lat="37.020158350" lon="-106.453073650">
        <ele>3039.600</ele>
        <time>2022-07-07T20:07:43Z</time>
        <name>WPT.1613</name>
      </trkpt>
      <trkpt lat="37.020125040" lon="-106.453048810">
        <ele>3039.900</ele>
        <time>2022-07-07T20:07:47Z</time>
        <name>WPT.1614</name>
      </trkpt>
      <trkpt lat="37.020092110" lon="-106.453012480">
        <ele>3040.400</ele>
        <time>2022-07-07T20:07:52Z</time>
        <name>WPT.1615</name>
      </trkpt>
      <trkpt lat="37.020065480" lon="-106.452975180">
        <ele>3040.600</ele>
        <time>2022-07-07T20:07:56Z</time>
        <name>WPT.1616</name>
      </trkpt>
      <trkpt lat="37.020029320" lon="-106.452946550">
        <ele>3040.400</ele>
        <time>2022-07-07T20:08:00Z</time>
        <name>WPT.1617</name>
      </trkpt>
      <trkpt lat="37.019997920" lon="-106.452920440">
        <ele>3041.700</ele>
        <time>2022-07-07T20:08:04Z</time>
        <name>WPT.1618</name>
      </trkpt>
      <trkpt lat="37.019975330" lon="-106.452877740">
        <ele>3041.800</ele>
        <time>2022-07-07T20:08:08Z</time>
        <name>WPT.1619</name>
      </trkpt>
      <trkpt lat="37.019951840" lon="-106.452842990">
        <ele>3039.400</ele>
        <time>2022-07-07T20:08:12Z</time>
        <name>WPT.1620</name>
      </trkpt>
      <trkpt lat="37.019924930" lon="-106.452799780">
        <ele>3038.800</ele>
        <time>2022-07-07T20:08:16Z</time>
        <name>WPT.1621</name>
      </trkpt>
      <trkpt lat="37.019903980" lon="-106.452755050">
        <ele>3038.700</ele>
        <time>2022-07-07T20:08:55Z</time>
        <name>WPT.1622</name>
      </trkpt>
      <trkpt lat="37.019873810" lon="-106.452715600">
        <ele>3039.900</ele>
        <time>2022-07-07T20:09:00Z</time>
        <name>WPT.1623</name>
      </trkpt>
      <trkpt lat="37.019847040" lon="-106.452682250">
        <ele>3037.900</ele>
        <time>2022-07-07T20:09:05Z</time>
        <name>WPT.1624</name>
      </trkpt>
      <trkpt lat="37.019813950" lon="-106.452647180">
        <ele>3039.600</ele>
        <time>2022-07-07T20:09:10Z</time>
        <name>WPT.1625</name>
      </trkpt>
      <trkpt lat="37.019776670" lon="-106.452620510">
        <ele>3041.400</ele>
        <time>2022-07-07T20:09:15Z</time>
        <name>WPT.1626</name>
      </trkpt>
      <trkpt lat="37.019740960" lon="-106.452597060">
        <ele>3040.500</ele>
        <time>2022-07-07T20:09:20Z</time>
        <name>WPT.1627</name>
      </trkpt>
      <trkpt lat="37.019700270" lon="-106.452581280">
        <ele>3041.100</ele>
        <time>2022-07-07T20:09:25Z</time>
        <name>WPT.1628</name>
      </trkpt>
      <trkpt lat="37.019662500" lon="-106.452592660">
        <ele>3040.000</ele>
        <time>2022-07-07T20:09:30Z</time>
        <name>WPT.1629</name>
      </trkpt>
      <trkpt lat="37.019630750" lon="-106.452619240">
        <ele>3039.200</ele>
        <time>2022-07-07T20:09:34Z</time>
        <name>WPT.1630</name>
      </trkpt>
      <trkpt lat="37.019634590" lon="-106.452666460">
        <ele>3038.500</ele>
        <time>2022-07-07T20:09:38Z</time>
        <name>WPT.1631</name>
      </trkpt>
      <trkpt lat="37.019645850" lon="-106.452716370">
        <ele>3038.000</ele>
        <time>2022-07-07T20:09:43Z</time>
        <name>WPT.1632</name>
      </trkpt>
      <trkpt lat="37.019637050" lon="-106.452766890">
        <ele>3038.200</ele>
        <time>2022-07-07T20:09:49Z</time>
        <name>WPT.1633</name>
      </trkpt>
      <trkpt lat="37.019620160" lon="-106.452812130">
        <ele>3037.100</ele>
        <time>2022-07-07T20:09:55Z</time>
        <name>WPT.1634</name>
      </trkpt>
      <trkpt lat="37.019608700" lon="-106.452856840">
        <ele>3035.300</ele>
        <time>2022-07-07T20:09:59Z</time>
        <name>WPT.1635</name>
      </trkpt>
      <trkpt lat="37.019594410" lon="-106.452912050">
        <ele>3034.700</ele>
        <time>2022-07-07T20:10:03Z</time>
        <name>WPT.1636</name>
      </trkpt>
      <trkpt lat="37.019567530" lon="-106.452954040">
        <ele>3035.400</ele>
        <time>2022-07-07T20:10:07Z</time>
        <name>WPT.1637</name>
      </trkpt>
      <trkpt lat="37.019536260" lon="-106.452982810">
        <ele>3035.500</ele>
        <time>2022-07-07T20:10:12Z</time>
        <name>WPT.1638</name>
      </trkpt>
      <trkpt lat="37.019495540" lon="-106.452979410">
        <ele>3037.600</ele>
        <time>2022-07-07T20:10:18Z</time>
        <name>WPT.1639</name>
      </trkpt>
      <trkpt lat="37.019452320" lon="-106.452964410">
        <ele>3038.600</ele>
        <time>2022-07-07T20:10:24Z</time>
        <name>WPT.1640</name>
      </trkpt>
      <trkpt lat="37.019418980" lon="-106.452934550">
        <ele>3039.400</ele>
        <time>2022-07-07T20:10:29Z</time>
        <name>WPT.1641</name>
      </trkpt>
      <trkpt lat="37.019384010" lon="-106.452914120">
        <ele>3040.000</ele>
        <time>2022-07-07T20:10:33Z</time>
        <name>WPT.1642</name>
      </trkpt>
      <trkpt lat="37.019348680" lon="-106.452896300">
        <ele>3040.400</ele>
        <time>2022-07-07T20:10:38Z</time>
        <name>WPT.1643</name>
      </trkpt>
      <trkpt lat="37.019317310" lon="-106.452866820">
        <ele>3044.000</ele>
        <time>2022-07-07T20:10:44Z</time>
        <name>WPT.1644</name>
      </trkpt>
      <trkpt lat="37.019287080" lon="-106.452828050">
        <ele>3044.000</ele>
        <time>2022-07-07T20:10:49Z</time>
        <name>WPT.1645</name>
      </trkpt>
      <trkpt lat="37.019263730" lon="-106.452782480">
        <ele>3043.900</ele>
        <time>2022-07-07T20:10:55Z</time>
        <name>WPT.1646</name>
      </trkpt>
      <trkpt lat="37.019271290" lon="-106.452732450">
        <ele>3043.500</ele>
        <time>2022-07-07T20:11:01Z</time>
        <name>WPT.1647</name>
      </trkpt>
      <trkpt lat="37.019260630" lon="-106.452681560">
        <ele>3042.900</ele>
        <time>2022-07-07T20:11:04Z</time>
        <name>WPT.1648</name>
      </trkpt>
      <trkpt lat="37.019256660" lon="-106.452636080">
        <ele>3043.100</ele>
        <time>2022-07-07T20:11:10Z</time>
        <name>WPT.1649</name>
      </trkpt>
      <trkpt lat="37.019224600" lon="-106.452614750">
        <ele>3043.200</ele>
        <time>2022-07-07T20:11:34Z</time>
        <name>WPT.1650</name>
      </trkpt>
      <trkpt lat="37.019195260" lon="-106.452581690">
        <ele>3042.100</ele>
        <time>2022-07-07T20:13:33Z</time>
        <name>WPT.1651</name>
      </trkpt>
      <trkpt lat="37.019170080" lon="-106.452544630">
        <ele>3042.200</ele>
        <time>2022-07-07T20:13:37Z</time>
        <name>WPT.1652</name>
      </trkpt>
      <trkpt lat="37.019148710" lon="-106.452507140">
        <ele>3042.400</ele>
        <time>2022-07-07T20:13:42Z</time>
        <name>WPT.1653</name>
      </trkpt>
      <trkpt lat="37.019121040" lon="-106.452477570">
        <ele>3044.400</ele>
        <time>2022-07-07T20:14:29Z</time>
        <name>WPT.1654</name>
      </trkpt>
      <trkpt lat="37.019098120" lon="-106.452436340">
        <ele>3047.400</ele>
        <time>2022-07-07T20:14:32Z</time>
        <name>WPT.1655</name>
      </trkpt>
      <trkpt lat="37.019072640" lon="-106.452394690">
        <ele>3047.600</ele>
        <time>2022-07-07T20:14:37Z</time>
        <name>WPT.1656</name>
      </trkpt>
      <trkpt lat="37.019038330" lon="-106.452355810">
        <ele>3046.900</ele>
        <time>2022-07-07T20:14:41Z</time>
        <name>WPT.1657</name>
      </trkpt>
      <trkpt lat="37.019010180" lon="-106.452324700">
        <ele>3047.000</ele>
        <time>2022-07-07T20:14:46Z</time>
        <name>WPT.1658</name>
      </trkpt>
      <trkpt lat="37.018969900" lon="-106.452303560">
        <ele>3046.200</ele>
        <time>2022-07-07T20:14:50Z</time>
        <name>WPT.1659</name>
      </trkpt>
      <trkpt lat="37.018936890" lon="-106.452277660">
        <ele>3045.500</ele>
        <time>2022-07-07T20:14:53Z</time>
        <name>WPT.1660</name>
      </trkpt>
      <trkpt lat="37.018907990" lon="-106.452247510">
        <ele>3045.300</ele>
        <time>2022-07-07T20:14:56Z</time>
        <name>WPT.1661</name>
      </trkpt>
      <trkpt lat="37.018870620" lon="-106.452225030">
        <ele>3044.000</ele>
        <time>2022-07-07T20:15:01Z</time>
        <name>WPT.1662</name>
      </trkpt>
      <trkpt lat="37.018836710" lon="-106.452194580">
        <ele>3043.900</ele>
        <time>2022-07-07T20:15:05Z</time>
        <name>WPT.1663</name>
      </trkpt>
      <trkpt lat="37.018807130" lon="-106.452150320">
        <ele>3043.500</ele>
        <time>2022-07-07T20:15:09Z</time>
        <name>WPT.1664</name>
      </trkpt>
      <trkpt lat="37.018777260" lon="-106.452108390">
        <ele>3043.000</ele>
        <time>2022-07-07T20:15:13Z</time>
        <name>WPT.1665</name>
      </trkpt>
      <trkpt lat="37.018754460" lon="-106.452070090">
        <ele>3044.000</ele>
        <time>2022-07-07T20:15:17Z</time>
        <name>WPT.1666</name>
      </trkpt>
      <trkpt lat="37.018729510" lon="-106.452027000">
        <ele>3043.300</ele>
        <time>2022-07-07T20:15:21Z</time>
        <name>WPT.1667</name>
      </trkpt>
      <trkpt lat="37.018696240" lon="-106.451987450">
        <ele>3042.100</ele>
        <time>2022-07-07T20:15:25Z</time>
        <name>WPT.1668</name>
      </trkpt>
      <trkpt lat="37.018660880" lon="-106.451951630">
        <ele>3041.100</ele>
        <time>2022-07-07T20:15:29Z</time>
        <name>WPT.1669</name>
      </trkpt>
      <trkpt lat="37.018620340" lon="-106.451934340">
        <ele>3039.500</ele>
        <time>2022-07-07T20:15:33Z</time>
        <name>WPT.1670</name>
      </trkpt>
      <trkpt lat="37.018582340" lon="-106.451918410">
        <ele>3038.600</ele>
        <time>2022-07-07T20:15:37Z</time>
        <name>WPT.1671</name>
      </trkpt>
      <trkpt lat="37.018553140" lon="-106.451875370">
        <ele>3038.300</ele>
        <time>2022-07-07T20:15:42Z</time>
        <name>WPT.1672</name>
      </trkpt>
      <trkpt lat="37.018537000" lon="-106.451829800">
        <ele>3038.500</ele>
        <time>2022-07-07T20:15:46Z</time>
        <name>WPT.1673</name>
      </trkpt>
      <trkpt lat="37.018516070" lon="-106.451784670">
        <ele>3038.500</ele>
        <time>2022-07-07T20:15:50Z</time>
        <name>WPT.1674</name>
      </trkpt>
      <trkpt lat="37.018499930" lon="-106.451737720">
        <ele>3037.900</ele>
        <time>2022-07-07T20:15:54Z</time>
        <name>WPT.1675</name>
      </trkpt>
      <trkpt lat="37.018477920" lon="-106.451690340">
        <ele>3036.400</ele>
        <time>2022-07-07T20:15:59Z</time>
        <name>WPT.1676</name>
      </trkpt>
      <trkpt lat="37.018485250" lon="-106.451641300">
        <ele>3035.900</ele>
        <time>2022-07-07T20:16:04Z</time>
        <name>WPT.1677</name>
      </trkpt>
      <trkpt lat="37.018500230" lon="-106.451597700">
        <ele>3035.600</ele>
        <time>2022-07-07T20:16:09Z</time>
        <name>WPT.1678</name>
      </trkpt>
      <trkpt lat="37.018507160" lon="-106.451549320">
        <ele>3035.100</ele>
        <time>2022-07-07T20:16:13Z</time>
        <name>WPT.1679</name>
      </trkpt>
      <trkpt lat="37.018508370" lon="-106.451497830">
        <ele>3034.400</ele>
        <time>2022-07-07T20:16:18Z</time>
        <name>WPT.1680</name>
      </trkpt>
      <trkpt lat="37.018540980" lon="-106.451468350">
        <ele>3034.500</ele>
        <time>2022-07-07T20:16:23Z</time>
        <name>WPT.1681</name>
      </trkpt>
      <trkpt lat="37.018576580" lon="-106.451453250">
        <ele>3033.300</ele>
        <time>2022-07-07T20:16:27Z</time>
        <name>WPT.1682</name>
      </trkpt>
      <trkpt lat="37.018592320" lon="-106.451410950">
        <ele>3033.300</ele>
        <time>2022-07-07T20:16:31Z</time>
        <name>WPT.1683</name>
      </trkpt>
      <trkpt lat="37.018611960" lon="-106.451363670">
        <ele>3033.600</ele>
        <time>2022-07-07T20:16:35Z</time>
        <name>WPT.1684</name>
      </trkpt>
      <trkpt lat="37.018635210" lon="-106.451322830">
        <ele>3033.600</ele>
        <time>2022-07-07T20:16:39Z</time>
        <name>WPT.1685</name>
      </trkpt>
      <trkpt lat="37.018673440" lon="-106.451301030">
        <ele>3032.500</ele>
        <time>2022-07-07T20:16:44Z</time>
        <name>WPT.1686</name>
      </trkpt>
      <trkpt lat="37.018698740" lon="-106.451262960">
        <ele>3029.900</ele>
        <time>2022-07-07T20:17:02Z</time>
        <name>WPT.1687</name>
      </trkpt>
      <trkpt lat="37.018695800" lon="-106.451208040">
        <ele>3029.600</ele>
        <time>2022-07-07T20:17:07Z</time>
        <name>WPT.1688</name>
      </trkpt>
      <trkpt lat="37.018669070" lon="-106.451165020">
        <ele>3029.200</ele>
        <time>2022-07-07T20:17:12Z</time>
        <name>WPT.1689</name>
      </trkpt>
      <trkpt lat="37.018646930" lon="-106.451129160">
        <ele>3029.700</ele>
        <time>2022-07-07T20:17:16Z</time>
        <name>WPT.1690</name>
      </trkpt>
      <trkpt lat="37.018614790" lon="-106.451108710">
        <ele>3029.100</ele>
        <time>2022-07-07T20:17:20Z</time>
        <name>WPT.1691</name>
      </trkpt>
      <trkpt lat="37.018576980" lon="-106.451084270">
        <ele>3030.200</ele>
        <time>2022-07-07T20:17:24Z</time>
        <name>WPT.1692</name>
      </trkpt>
      <trkpt lat="37.018537780" lon="-106.451067980">
        <ele>3028.500</ele>
        <time>2022-07-07T20:17:28Z</time>
        <name>WPT.1693</name>
      </trkpt>
      <trkpt lat="37.018503700" lon="-106.451049630">
        <ele>3028.300</ele>
        <time>2022-07-07T20:17:32Z</time>
        <name>WPT.1694</name>
      </trkpt>
      <trkpt lat="37.018470030" lon="-106.451026900">
        <ele>3028.000</ele>
        <time>2022-07-07T20:17:36Z</time>
        <name>WPT.1695</name>
      </trkpt>
      <trkpt lat="37.018441670" lon="-106.450994380">
        <ele>3027.800</ele>
        <time>2022-07-07T20:17:40Z</time>
        <name>WPT.1696</name>
      </trkpt>
      <trkpt lat="37.018408850" lon="-106.450957710">
        <ele>3028.200</ele>
        <time>2022-07-07T20:17:44Z</time>
        <name>WPT.1697</name>
      </trkpt>
      <trkpt lat="37.018382450" lon="-106.450924470">
        <ele>3027.000</ele>
        <time>2022-07-07T20:17:48Z</time>
        <name>WPT.1698</name>
      </trkpt>
      <trkpt lat="37.018351310" lon="-106.450899250">
        <ele>3026.600</ele>
        <time>2022-07-07T20:17:52Z</time>
        <name>WPT.1699</name>
      </trkpt>
      <trkpt lat="37.018324590" lon="-106.450866310">
        <ele>3026.100</ele>
        <time>2022-07-07T20:17:56Z</time>
        <name>WPT.1700</name>
      </trkpt>
      <trkpt lat="37.018290750" lon="-106.450835510">
        <ele>3026.200</ele>
        <time>2022-07-07T20:18:01Z</time>
        <name>WPT.1701</name>
      </trkpt>
      <trkpt lat="37.018257860" lon="-106.450802300">
        <ele>3026.200</ele>
        <time>2022-07-07T20:18:05Z</time>
        <name>WPT.1702</name>
      </trkpt>
      <trkpt lat="37.018230420" lon="-106.450762570">
        <ele>3027.000</ele>
        <time>2022-07-07T20:18:09Z</time>
        <name>WPT.1703</name>
      </trkpt>
      <trkpt lat="37.018200380" lon="-106.450734920">
        <ele>3026.900</ele>
        <time>2022-07-07T20:18:13Z</time>
        <name>WPT.1704</name>
      </trkpt>
      <trkpt lat="37.018175470" lon="-106.450699150">
        <ele>3027.600</ele>
        <time>2022-07-07T20:18:17Z</time>
        <name>WPT.1705</name>
      </trkpt>
      <trkpt lat="37.018145210" lon="-106.450661150">
        <ele>3026.300</ele>
        <time>2022-07-07T20:18:22Z</time>
        <name>WPT.1706</name>
      </trkpt>
      <trkpt lat="37.018130590" lon="-106.450613620">
        <ele>3025.800</ele>
        <time>2022-07-07T20:18:26Z</time>
        <name>WPT.1707</name>
      </trkpt>
      <trkpt lat="37.018118190" lon="-106.450564150">
        <ele>3025.400</ele>
        <time>2022-07-07T20:18:30Z</time>
        <name>WPT.1708</name>
      </trkpt>
      <trkpt lat="37.018107380" lon="-106.450511880">
        <ele>3025.600</ele>
        <time>2022-07-07T20:18:34Z</time>
        <name>WPT.1709</name>
      </trkpt>
      <trkpt lat="37.018100250" lon="-106.450461950">
        <ele>3025.800</ele>
        <time>2022-07-07T20:18:39Z</time>
        <name>WPT.1710</name>
      </trkpt>
      <trkpt lat="37.018100460" lon="-106.450412210">
        <ele>3024.700</ele>
        <time>2022-07-07T20:18:45Z</time>
        <name>WPT.1711</name>
      </trkpt>
      <trkpt lat="37.018091290" lon="-106.450360700">
        <ele>3024.300</ele>
        <time>2022-07-07T20:18:51Z</time>
        <name>WPT.1712</name>
      </trkpt>
      <trkpt lat="37.018096680" lon="-106.450306500">
        <ele>3023.300</ele>
        <time>2022-07-07T20:18:56Z</time>
        <name>WPT.1713</name>
      </trkpt>
      <trkpt lat="37.018093230" lon="-106.450255330">
        <ele>3022.600</ele>
        <time>2022-07-07T20:19:01Z</time>
        <name>WPT.1714</name>
      </trkpt>
      <trkpt lat="37.018085570" lon="-106.450209460">
        <ele>3022.900</ele>
        <time>2022-07-07T20:19:05Z</time>
        <name>WPT.1715</name>
      </trkpt>
      <trkpt lat="37.018048620" lon="-106.450183280">
        <ele>3023.200</ele>
        <time>2022-07-07T20:19:10Z</time>
        <name>WPT.1716</name>
      </trkpt>
      <trkpt lat="37.018006560" lon="-106.450176680">
        <ele>3023.000</ele>
        <time>2022-07-07T20:19:14Z</time>
        <name>WPT.1717</name>
      </trkpt>
      <trkpt lat="37.017962430" lon="-106.450169490">
        <ele>3022.000</ele>
        <time>2022-07-07T20:19:19Z</time>
        <name>WPT.1718</name>
      </trkpt>
      <trkpt lat="37.017923790" lon="-106.450171390">
        <ele>3021.800</ele>
        <time>2022-07-07T20:19:23Z</time>
        <name>WPT.1719</name>
      </trkpt>
      <trkpt lat="37.017880850" lon="-106.450171940">
        <ele>3021.500</ele>
        <time>2022-07-07T20:19:27Z</time>
        <name>WPT.1720</name>
      </trkpt>
      <trkpt lat="37.017842060" lon="-106.450180340">
        <ele>3021.500</ele>
        <time>2022-07-07T20:19:31Z</time>
        <name>WPT.1721</name>
      </trkpt>
      <trkpt lat="37.017805080" lon="-106.450172250">
        <ele>3021.800</ele>
        <time>2022-07-07T20:19:35Z</time>
        <name>WPT.1722</name>
      </trkpt>
      <trkpt lat="37.017771930" lon="-106.450144240">
        <ele>3021.200</ele>
        <time>2022-07-07T20:24:15Z</time>
        <name>WPT.1723</name>
      </trkpt>
      <trkpt lat="37.017759730" lon="-106.450120260">
        <ele>3021.900</ele>
        <time>2022-07-07T20:24:54Z</time>
        <name>WPT.1724</name>
      </trkpt>
    </trkseg>
  </trk>
</gpx>
